[[{"header":{"parameterUnit":"m.s-1","parameterCategory":1,"la1":30.6,"la2":28.766,"lo1":-90.7593,"lo2":-88.6598,"dy":0.0162,"dx":0.0183,"nx":116,"ny":114,"refTime":"2024-06-30T00:00:00:Z","depth":0,"parameterNumber":2,"parameterNumberName":"U-component_of_WINDS"},"data":[0.0,0.0,0.0,0.0,0.0,0.0,0.0,0.0,0.0,0.0,0.0,0.0,0.0,0.0,0.0,0.0,0.0,0.0,0.0,0.0,0.0,0.0,0.0,0.0,0.0,0.0,0.0,0.0,0.0,0.0,0.0,0.0,0.0,0.0,0.0,0.0,0.0,0.0,0.0,0.0,0.0,0.0,0.0,0.0,0.0,0.0,0.0,0.0,0.0,0.0,0.0,0.0,0.0,0.0,0.0,0.0,0.0,0.0,0.0,0.0,0.0,0.0,0.0,0.0,0.0,0.0,0.0,0.0,0.0,0.0,0.0,0.0,0.0,0.0,0.0,0.0,0.0,0.0,0.0,0.0,0.0,0.0,0.0,0.0,0.0,0.0,0.0,0.0,0.0,0.0,0.0,0.0,0.0,0.0,0.0,0.0,0.0,0.0,0.0,0.0,0.0,0.0,0.0,0.0,0.0,0.0,0.0,0.0,0.0,0.0,0.0,0.0,0.0,0.0,0.0,0.0,0.0,0.0,0.0,0.0,0.0,0.0,0.0,0.0,0.0,0.0,0.0,0.0,0.0,0.0,0.0,0.0,0.0,0.0,0.0,0.0,0.0,0.0,0.0,0.0,0.0,0.0,0.0,0.0,0.0,0.0,0.0,0.0,0.0,0.0,0.0,0.0,0.0,0.0,0.0,0.0,0.0,0.0,0.0,0.0,0.0,0.0,0.0,0.0,0.0,0.0,0.0,0.0,0.0,0.0,0.0,0.0,0.0,0.0,0.0,0.0,0.0,0.0,0.0,0.0,0.0,0.0,0.0,0.0,0.0,0.0,0.0,0.0,0.0,0.0,0.0,0.0,0.0,0.0,0.0,0.0,0.0,0.0,0.0,0.0,0.0,0.0,0.0,0.0,0.0,0.0,0.0,0.0,0.0,0.0,0.0,0.0,0.0,0.0,0.0,0.0,0.0,0.0,0.0,0.0,0.0,0.0,0.0,0.0,0.0,0.0,0.0,0.0,0.0,0.0,0.0,0.0,0.0,0.0,0.0,0.0,0.0,0.0,0.0,0.0,0.0,0.0,0.0,0.0,0.0,0.0,0.0,0.0,0.0,0.0,0.0,0.0,0.0,0.0,0.0,0.0,0.0,0.0,0.0,0.0,0.0,0.0,0.0,0.0,0.0,0.0,0.0,0.0,0.0,0.0,0.0,0.0,0.0,0.0,0.0,0.0,0.0,0.0,0.0,0.0,0.0,0.0,0.0,0.0,0.0,0.0,0.0,0.0,0.0,0.0,0.0,0.0,0.0,0.0,0.0,0.0,0.0,0.0,0.0,0.0,0.0,0.0,0.0,0.0,0.0,0.0,0.0,0.0,0.0,0.0,0.0,0.0,0.0,0.0,0.0,0.0,0.0,0.0,0.0,0.0,0.0,0.0,0.0,0.0,0.0,0.0,0.0,0.0,0.0,0.0,0.0,0.0,0.0,0.0,0.0,0.0,0.0,0.0,0.0,0.0,0.0,0.0,0.0,0.0,0.0,0.0,0.0,0.0,0.0,0.0,0.0,0.0,0.0,0.0,0.0,0.0,0.0,0.0,0.0,0.0,0.0,0.0,0.0,0.0,0.0,0.0,0.0,0.0,0.0,0.0,0.0,0.0,0.0,0.0,0.0,0.0,0.0,0.0,0.0,0.0,0.0,0.0,0.0,0.0,0.0,0.0,0.0,0.0,0.0,0.0,0.0,0.0,0.0,0.0,0.0,0.0,0.0,0.0,0.0,0.0,0.0,0.0,0.0,0.0,0.0,0.0,0.0,0.0,0.0,0.0,0.0,0.0,0.0,0.0,0.0,0.0,0.0,0.0,0.0,0.0,0.0,0.0,0.0,0.0,0.0,0.0,0.0,0.0,0.0,0.0,0.0,0.0,0.0,0.0,0.0,0.0,0.0,0.0,0.0,0.0,0.0,0.0,0.0,0.0,0.0,0.0,0.0,0.0,0.0,0.0,0.0,0.0,0.0,0.0,0.0,0.0,0.0,0.0,0.0,0.0,0.0,0.0,0.0,0.0,0.0,0.0,0.0,0.0,0.0,0.0,0.0,0.0,0.0,0.0,0.0,0.0,0.0,0.0,0.0,0.0,0.0,0.0,0.0,0.0,0.0,0.0,0.0,0.0,0.0,0.0,0.0,0.0,0.0,0.0,0.0,0.0,0.0,0.0,0.0,0.0,0.0,0.0,0.0,0.0,0.0,0.0,0.0,0.0,0.0,0.0,0.0,0.0,0.0,0.0,0.0,0.0,0.0,0.0,0.0,0.0,0.0,0.0,0.0,0.0,0.0,0.0,0.0,0.0,0.0,0.0,0.0,0.0,0.0,0.0,0.0,0.0,0.0,0.0,0.0,0.0,0.0,0.0,0.0,0.0,0.0,0.0,0.0,0.0,0.0,0.0,0.0,0.0,0.0,0.0,0.0,0.0,0.0,0.0,0.0,0.0,0.0,0.0,0.0,0.0,0.0,0.0,0.0,0.0,0.0,0.0,0.0,0.0,0.0,0.0,0.0,0.0,0.0,0.0,0.0,0.0,0.0,0.0,0.0,0.0,0.0,0.0,0.0,0.0,0.0,0.0,0.0,0.0,0.0,0.0,0.0,0.0,0.0,0.0,0.0,0.0,0.0,0.0,0.0,0.0,0.0,0.0,0.0,0.0,0.0,0.0,0.0,0.0,0.0,0.0,0.0,0.0,0.0,0.0,0.0,0.0,0.0,0.0,0.0,0.0,0.0,0.0,0.0,0.0,0.0,0.0,0.0,0.0,0.0,0.0,0.0,0.0,0.0,0.0,0.0,0.0,0.0,0.0,0.0,0.0,0.0,0.0,0.0,0.0,0.0,0.0,0.0,0.0,0.0,0.0,0.0,0.0,0.0,0.0,0.0,0.0,0.0,0.0,0.0,0.0,0.0,0.0,0.0,0.0,0.0,0.0,0.0,0.0,0.0,0.0,0.0,0.0,0.0,0.0,0.0,0.0,0.0,0.0,0.0,0.0,0.0,0.0,0.0,0.0,0.0,0.0,0.0,0.0,0.0,0.0,0.0,0.0,0.0,0.0,0.0,0.0,0.0,0.0,0.0,0.0,0.0,0.0,0.0,0.0,0.0,0.0,0.0,0.0,0.0,0.0,0.0,0.0,0.0,0.0,0.0,0.0,0.0,0.0,0.0,0.0,0.0,0.0,0.0,0.0,0.0,0.0,0.0,0.0,0.0,0.0,0.0,0.0,0.0,0.0,0.0,0.0,0.0,0.0,0.0,0.0,0.0,0.0,0.0,0.0,0.0,0.0,0.0,0.0,0.0,0.0,0.0,0.0,0.0,0.0,0.0,0.0,0.0,0.0,0.0,0.0,0.0,0.0,0.0,0.0,0.0,0.0,0.0,0.0,0.0,0.0,0.0,0.0,0.0,0.0,0.0,0.0,0.0,0.0,0.0,0.0,0.0,0.0,0.0,0.0,0.0,0.0,0.0,0.0,0.0,0.0,0.0,0.0,0.0,0.0,0.0,0.0,0.0,0.0,0.0,0.0,0.0,0.0,0.0,0.0,0.0,0.0,0.0,0.0,0.0,0.0,0.0,0.0,0.0,0.0,0.0,0.0,0.0,0.0,0.0,0.0,0.0,0.0,0.0,0.0,0.0,0.0,0.0,0.0,0.0,0.0,0.0,0.0,0.0,0.0,0.0,0.0,0.0,0.0,0.0,0.0,0.0,0.0,0.0,0.0,0.0,0.0,0.0,0.0,0.0,0.0,0.0,0.0,0.0,0.0,0.0,0.0,0.0,0.0,0.0,0.0,0.0,0.0,0.0,0.0,0.0,0.0,0.0,0.0,0.0,0.0,0.0,0.0,0.0,0.0,0.0,0.0,0.0,0.0,0.0,0.0,0.0,0.0,0.0,0.0,0.0,0.0,0.0,0.0,0.0,0.0,0.0,0.0,0.0,0.0,0.0,0.0,0.0,0.0,0.0,0.0,0.0,0.0,0.0,0.0,0.0,0.0,0.0,0.0,0.0,0.0,0.0,0.0,0.0,0.0,0.0,0.0,0.0,0.0,0.0,0.0,0.0,0.0,0.0,0.0,0.0,0.0,0.0,0.0,0.0,0.0,0.0,0.0,0.0,0.0,0.0,0.0,0.0,0.0,0.0,0.0,0.0,0.0,0.0,0.0,0.0,0.0,0.0,0.0,0.0,0.0,0.0,0.0,0.0,0.0,0.0,0.0,0.0,0.0,0.0,0.0,0.0,0.0,0.0,0.0,0.0,0.0,0.0,0.0,0.0,0.0,0.0,0.0,0.0,0.0,0.0,0.0,0.0,0.0,0.0,0.0,0.0,0.0,0.0,0.0,0.0,0.0,0.0,0.0,0.0,0.0,0.0,0.0,0.0,0.0,0.0,0.0,0.0,0.0,0.0,0.0,0.0,0.0,0.0,0.0,0.0,0.0,0.0,0.0,0.0,0.0,0.0,0.0,0.0,0.0,0.0,0.0,0.0,0.0,0.0,0.0,0.0,0.0,0.0,0.0,0.0,0.0,0.0,0.0,0.0,0.0,0.0,0.0,0.0,0.0,0.0,0.0,0.0,0.0,0.0,0.0,0.0,0.0,0.0,0.0,0.0,0.0,0.0,0.0,0.0,0.0,0.0,0.0,0.0,0.0,0.0,0.0,0.0,0.0,0.0,0.0,0.0,0.0,0.0,0.0,0.0,0.0,0.0,0.0,0.0,0.0,0.0,0.0,0.0,0.0,0.0,0.0,0.0,0.0,0.0,0.0,0.0,0.0,0.0,0.0,0.0,0.0,0.0,0.0,0.0,0.0,0.0,0.0,0.0,0.0,0.0,0.0,0.0,0.0,0.0,0.0,0.0,0.0,0.0,0.0,0.0,0.0,0.0,0.0,0.0,0.0,0.0,0.0,0.0,0.0,0.0,0.0,0.0,0.0,0.0,0.0,0.0,0.0,0.0,0.0,0.0,0.0,0.0,0.0,0.0,0.0,0.0,0.0,0.0,0.0,0.0,0.0,0.0,0.0,0.0,0.0,0.0,0.0,0.0,0.0,0.0,0.0,0.0,0.0,0.0,0.0,0.0,0.0,0.0,0.0,0.0,0.0,0.0,0.0,0.0,0.0,0.0,0.0,0.0,0.0,0.0,0.0,0.0,0.0,0.0,0.0,0.0,0.0,0.0,0.0,0.0,0.0,0.0,0.0,0.0,0.0,0.0,0.0,0.0,0.0,0.0,0.0,0.0,0.0,0.0,0.0,0.0,0.0,0.0,0.0,0.0,0.0,0.0,0.0,0.0,0.0,0.0,0.0,0.0,0.0,0.0,0.0,0.0,0.0,0.0,0.0,0.0,0.0,0.0,0.0,0.0,0.0,0.0,0.0,0.0,0.0,0.0,0.0,0.0,0.0,0.0,0.0,0.0,0.0,0.0,0.0,0.0,0.0,0.0,0.0,0.0,0.0,0.0,0.0,0.0,0.0,0.0,0.0,0.0,0.0,0.0,0.0,0.0,0.0,0.0,0.0,0.0,0.0,0.0,0.0,0.0,0.0,0.0,0.0,0.0,0.0,0.0,0.0,0.0,0.0,0.0,0.0,0.0,0.0,0.0,0.0,0.0,0.0,0.0,0.0,0.0,0.0,0.0,0.0,0.0,0.0,0.0,0.0,0.0,0.0,0.0,0.0,0.0,0.0,0.0,0.0,0.0,0.0,0.0,0.0,0.0,0.0,0.0,0.0,0.0,0.0,0.0,0.0,0.0,0.0,0.0,0.0,0.0,0.0,0.0,0.0,0.0,0.0,0.0,0.0,0.0,0.0,0.0,0.0,0.0,0.0,0.0,0.0,0.0,0.0,0.0,0.0,0.0,0.0,0.0,0.0,0.0,0.0,0.0,0.0,0.0,0.0,0.0,0.0,0.0,0.0,0.0,0.0,0.0,0.0,0.0,0.0,0.0,0.0,0.0,0.0,0.0,0.0,0.0,0.0,0.0,0.0,0.0,0.0,0.0,0.0,0.0,0.0,0.0,0.0,0.0,0.0,0.0,0.0,0.0,0.0,0.0,0.0,0.0,0.0,0.0,0.0,-3.6358,0.0,0.0,0.0,0.0,0.0,0.0,0.0,0.0,0.0,0.0,0.0,0.0,0.0,0.0,0.0,0.0,0.0,0.0,0.0,0.0,0.0,0.0,0.0,0.0,-2.5699,-2.5701,-2.5704,-2.5706,-2.571,-2.5695,0.0,0.0,0.0,0.0,0.0,-2.5701,-2.6113,-2.6543,-2.6992,-2.7832,-2.8691,-2.9531,-2.8613,-2.7754,-2.6953,0.0,0.0,0.0,0.0,0.0,0.0,0.0,0.0,0.0,0.0,0.0,0.0,0.0,0.0,0.0,0.0,0.0,0.0,0.0,0.0,0.0,0.0,0.0,0.0,0.0,0.0,0.0,0.0,0.0,0.0,0.0,0.0,0.0,0.0,0.0,0.0,0.0,0.0,0.0,0.0,0.0,0.0,0.0,0.0,0.0,0.0,0.0,0.0,0.0,0.0,0.0,0.0,0.0,0.0,0.0,0.0,0.0,0.0,0.0,0.0,0.0,0.0,0.0,0.0,0.0,0.0,0.0,0.0,0.0,0.0,0.0,-3.7771,0.0,0.0,0.0,0.0,0.0,0.0,0.0,0.0,0.0,0.0,0.0,0.0,0.0,0.0,0.0,0.0,0.0,0.0,0.0,0.0,0.0,-2.4693,-2.5765,-2.5884,-2.5944,-2.6102,-2.6128,-2.6056,-2.5926,-2.5912,0.0,0.0,0.0,-2.5692,-2.5692,-2.6558,-2.7147,-2.7459,-2.9491,-3.0937,-3.1797,-3.1797,-3.1016,-2.9629,-2.9023,0.0,0.0,0.0,0.0,0.0,0.0,0.0,0.0,0.0,0.0,0.0,0.0,0.0,0.0,0.0,0.0,0.0,0.0,0.0,0.0,0.0,0.0,0.0,0.0,0.0,0.0,0.0,0.0,0.0,0.0,0.0,0.0,0.0,0.0,0.0,0.0,0.0,0.0,0.0,0.0,0.0,0.0,0.0,0.0,0.0,0.0,0.0,0.0,0.0,0.0,0.0,0.0,0.0,0.0,0.0,0.0,0.0,0.0,0.0,0.0,0.0,0.0,0.0,0.0,-4.5902,-4.6544,-4.6691,-4.6746,-4.6562,-4.3075,-4.1258,-4.0561,0.0,0.0,0.0,0.0,0.0,0.0,0.0,0.0,0.0,0.0,0.0,0.0,0.0,0.0,0.0,0.0,0.0,0.0,0.0,0.0,-2.4836,-2.6479,-2.6653,-2.6958,-2.7722,-2.7783,-2.7498,-2.6786,-2.6732,0.0,0.0,-2.5698,-2.5702,-2.5702,-2.6551,-2.7746,-2.9268,-3.2455,-3.4469,-3.533,-3.533,-3.5214,-3.4863,-3.1875,-3.0137,-2.9414,0.0,0.0,0.0,0.0,0.0,0.0,0.0,0.0,0.0,0.0,0.0,0.0,0.0,0.0,0.0,0.0,0.0,0.0,0.0,0.0,0.0,0.0,0.0,0.0,0.0,0.0,0.0,0.0,0.0,0.0,0.0,0.0,0.0,0.0,0.0,0.0,0.0,0.0,0.0,0.0,0.0,-3.6269,-3.7373,0.0,0.0,0.0,0.0,0.0,0.0,0.0,0.0,0.0,0.0,0.0,0.0,0.0,0.0,-4.6305,-4.7094,-4.7627,-4.7829,-4.8581,-4.9023,-4.9151,-4.9829,-5.016,-5.0086,-4.8838,0.0,-4.3938,-4.2213,0.0,0.0,0.0,0.0,0.0,0.0,0.0,0.0,0.0,0.0,0.0,0.0,0.0,0.0,0.0,0.0,0.0,0.0,0.0,0.0,0.0,-2.7616,-2.8356,-2.8745,-2.8772,-2.8617,-2.8262,-2.7366,-2.6681,-2.6329,-2.5846,-2.5823,-2.6314,-2.7695,-2.9975,-3.3205,-3.5154,-3.6564,-3.7453,-3.7455,-3.7458,-3.7402,-3.5898,-3.4199,-3.2402,-3.1465,0.0,0.0,0.0,0.0,0.0,0.0,0.0,0.0,0.0,0.0,0.0,0.0,0.0,0.0,0.0,0.0,0.0,0.0,0.0,0.0,0.0,0.0,0.0,0.0,0.0,0.0,0.0,0.0,0.0,0.0,0.0,0.0,0.0,0.0,0.0,0.0,0.0,0.0,0.0,-3.543,-3.8104,-3.9931,-4.0142,-4.0142,0.0,0.0,0.0,0.0,0.0,0.0,0.0,0.0,0.0,-4.5999,-4.792,-4.9029,-4.9187,-5.0435,-5.1059,-5.1077,-5.1444,-5.1628,-5.1646,-5.1995,-5.1903,-5.1444,-5.1096,-4.9866,-4.7939,-4.5388,-4.3846,-4.2838,0.0,0.0,0.0,0.0,0.0,-4.0049,0.0,0.0,0.0,0.0,0.0,0.0,0.0,0.0,0.0,0.0,0.0,0.0,-2.7266,-2.8676,-2.9757,-3.0211,-3.0047,-2.9829,-2.9611,-2.8236,-2.7222,-2.6784,-2.6378,-2.6466,-2.7119,-2.9532,-3.2593,-3.6282,-3.7327,-3.8311,-3.9211,-3.9222,-3.9249,-3.9235,-3.9238,-3.7793,-3.5273,-3.3809,-3.2051,-3.0117,0.0,0.0,0.0,0.0,0.0,0.0,0.0,0.0,0.0,0.0,0.0,0.0,0.0,0.0,0.0,0.0,0.0,0.0,0.0,0.0,0.0,0.0,0.0,0.0,0.0,0.0,0.0,0.0,0.0,0.0,0.0,0.0,0.0,0.0,0.0,0.0,0.0,-3.7969,-4.0162,-4.2508,-4.297,-4.3096,0.0,0.0,0.0,0.0,0.0,0.0,-4.6571,-4.8238,-4.9225,-4.9361,-5.1062,-5.1994,-5.2032,-5.3225,-5.3812,-5.3812,-5.3812,-5.372,-5.3518,-5.3518,-5.3078,-5.2307,-5.2307,-5.1848,-5.0875,-4.7774,-4.6159,-4.537,-4.2948,-4.2508,0.0,-4.1644,-4.1644,-4.2288,0.0,0.0,0.0,0.0,0.0,0.0,0.0,0.0,0.0,0.0,0.0,-2.7203,-2.8805,-2.98,-3.1004,-3.2677,-3.206,-3.1254,0.0,-2.9593,-2.8366,-2.6764,-2.7524,-2.7989,-2.8032,-3.2128,-3.518,-3.7049,-3.8741,-4.0013,-4.0886,-4.0949,-4.0973,-4.0971,-4.0974,-3.9569,-3.7109,-3.6191,-3.4355,-3.1914,-3.0176,0.0,0.0,0.0,0.0,0.0,0.0,0.0,0.0,0.0,0.0,0.0,0.0,0.0,0.0,0.0,0.0,0.0,0.0,0.0,0.0,0.0,0.0,0.0,0.0,0.0,0.0,0.0,0.0,0.0,0.0,0.0,0.0,0.0,0.0,0.0,0.0,0.0,0.0,-4.521,-4.6144,0.0,0.0,0.0,0.0,-4.7643,-4.8351,-4.9657,-5.1706,-5.1646,-5.2414,-5.438,-5.4379,-5.4672,-5.5357,-5.5449,-5.5464,-5.5464,-5.5464,-5.5078,-5.4344,-5.4344,-5.3904,-5.3151,-5.3151,-5.2692,-5.1738,-4.9224,-4.8159,-4.7884,-4.5461,-4.5021,-4.5626,-4.4782,-4.4966,-4.5553,0.0,0.0,0.0,-2.0257,-2.0214,-2.0719,-2.2117,-2.2592,-2.3509,-2.5447,-2.6717,-2.8063,-2.9756,-3.1179,-3.2474,-3.366,-3.3487,-3.2961,-3.2112,-3.0739,-2.9454,-2.8294,-2.8073,-2.9028,-3.1259,-3.442,-3.6896,-3.8646,-3.982,-4.058,-4.0933,-4.1,-4.1059,-4.1109,-4.1104,-4.0602,-3.9647,-3.8262,-3.6172,-3.3652,-3.1953,-3.0234,0.0,0.0,0.0,0.0,0.0,0.0,0.0,0.0,0.0,0.0,0.0,0.0,0.0,0.0,0.0,0.0,0.0,0.0,0.0,0.0,0.0,0.0,0.0,0.0,0.0,0.0,0.0,0.0,0.0,0.0,0.0,0.0,0.0,0.0,0.0,0.0,0.0,-4.7702,-4.8317,0.0,-4.9279,-4.9356,-4.9875,-5.1114,-5.1851,-5.2899,-5.4437,-5.4766,-5.51,-5.55,-5.5905,-5.6198,-5.6363,-5.6877,-5.6877,-5.6363,-5.6363,-5.5941,-5.5133,-5.4638,-5.4234,-5.394,-5.3427,-5.3041,-5.2656,-5.1261,-5.0068,-4.893,-4.6984,-4.6415,-4.6562,-4.5773,-4.5645,-4.5865,-2.0617,-2.037,0.0,-2.0112,-2.0176,-2.0794,-2.2531,-2.2799,-2.3716,-2.6274,-2.7601,-2.8948,-3.0654,-3.2333,-3.368,-3.4564,-3.4379,-3.384,-3.2968,-3.1621,-3.0442,-2.9583,-2.9842,-3.1259,-3.3892,-3.6443,-3.8316,-3.946,-4.0349,-4.0801,-4.0878,-4.0925,-4.1007,-4.1076,-4.109,-4.1104,-4.1032,-3.9902,-3.8125,-3.584,-3.3848,-3.2187,-3.0723,0.0,0.0,0.0,0.0,0.0,0.0,0.0,0.0,0.0,0.0,0.0,0.0,0.0,0.0,0.0,0.0,0.0,0.0,0.0,0.0,0.0,0.0,0.0,0.0,0.0,0.0,0.0,0.0,0.0,0.0,0.0,0.0,0.0,0.0,0.0,-4.7067,-4.9913,-5.076,-5.1356,-5.1933,-5.2501,-5.3238,-5.4212,-5.4867,-5.5655,-5.6595,-5.6871,-5.6925,-5.6749,-5.7133,-5.7275,-5.7207,-5.7721,-5.7721,-5.7207,-5.7207,-5.6785,-5.5978,-5.517,-5.4656,-5.4363,-5.3555,-5.3185,-5.3151,-5.2325,-5.1373,-5.0253,-4.86,-4.7774,-4.7443,-4.6911,-4.6709,-4.6673,-1.9776,-1.9908,-1.9984,-1.9996,-2.0107,-2.0777,-2.2526,-2.2799,-2.3716,-2.6294,-2.8044,-2.9761,-3.1545,-3.3179,-3.4526,-3.5423,-3.4737,-3.3878,-3.3006,-3.2218,-3.1404,-3.0558,-3.2903,-3.4687,-3.5656,-3.8125,-3.9417,-3.9436,-4.0287,-4.0726,-4.0794,-4.0863,-4.0932,-4.099,-4.1076,-4.1108,-4.1107,-4.1091,-4.0155,-3.8457,-3.5859,-3.4297,-3.3242,0.0,0.0,0.0,0.0,0.0,0.0,0.0,0.0,0.0,0.0,0.0,0.0,0.0,0.0,0.0,0.0,0.0,0.0,0.0,0.0,0.0,0.0,0.0,0.0,0.0,0.0,0.0,0.0,0.0,0.0,0.0,0.0,0.0,-4.5729,-4.7894,-5.0106,-5.1808,-5.351,-5.4549,-5.4607,-5.6099,-5.6986,-5.6884,-5.7422,-5.7893,-5.8314,-5.7903,-5.7862,-5.8375,-5.8152,-5.7997,-5.7997,-5.7997,-5.7997,-5.7997,-5.7997,-5.7593,-5.6822,-5.5996,-5.5188,-5.4399,-5.3592,-5.3203,-5.3151,-5.2362,-5.2013,-5.183,-5.0235,-4.9077,-4.8343,-4.8324,-4.8306,-4.8196,-1.9641,-1.9751,-1.9866,-1.9918,-2.0045,-2.0728,-2.2456,-2.2771,-2.3932,-2.7121,-2.7934,-2.9333,-3.2256,-3.2987,-3.3853,-3.5365,-3.5269,-3.4776,-3.3898,-3.3648,-3.341,-3.316,-3.4436,-3.5828,-3.7305,-3.8652,-3.9622,-4.02,-4.0487,-4.0646,-4.0655,-4.0775,-4.0868,-4.0928,-4.1003,-4.1054,-4.1106,-4.1104,-4.0837,-4.0233,-3.8301,-3.7012,-3.6016,0.0,0.0,0.0,0.0,0.0,0.0,0.0,0.0,0.0,0.0,0.0,0.0,0.0,0.0,0.0,0.0,0.0,0.0,0.0,0.0,0.0,0.0,0.0,0.0,0.0,0.0,0.0,0.0,0.0,0.0,0.0,-4.6537,-4.8355,-4.8355,-5.001,-5.2068,-5.4376,-5.5068,-5.5876,-5.7126,-5.7665,-5.8116,-5.8496,-5.8566,-5.8703,-5.9005,-5.8669,-5.8399,-5.8264,-5.8106,-5.7997,-5.7997,-5.7997,-5.7997,-5.7997,-5.7997,-5.7886,-5.7648,-5.684,-5.6033,-5.5225,-5.4418,-5.3739,-5.3167,-5.2968,-5.2527,-5.183,-5.0235,-4.9445,-4.9169,-4.8526,-4.8306,-4.8196,-1.9592,-1.9699,-1.9819,-1.9898,-2.0311,-2.1111,-2.2484,-2.3073,-2.4317,-2.7005,-2.7972,-2.9275,-3.1602,-3.2487,-3.3314,-3.4308,-3.4724,-3.4563,-3.3718,-3.4314,-3.4698,-3.4698,-3.625,-3.7546,-3.8527,-3.9381,-4.0035,-4.0496,-4.0539,-4.0569,-4.0605,-4.0688,-4.0769,-4.0863,-4.0932,-4.1007,-4.1061,-4.1093,-4.1106,-4.1014,-4.0078,-3.918,-3.8203,-3.6445,-3.5469,-3.4922,-3.4082,-3.291,-3.168,-3.1309,0.0,0.0,0.0,0.0,0.0,0.0,0.0,0.0,0.0,0.0,0.0,0.0,0.0,0.0,0.0,0.0,0.0,0.0,0.0,0.0,0.0,0.0,0.0,0.0,-4.9336,-5.1241,-5.1933,-5.2876,-5.4184,-5.603,-5.6857,-5.7684,-5.8704,-5.9127,-5.9461,-5.9766,-5.9573,-5.9421,-5.938,-5.9082,-5.8702,-5.8305,-5.8152,-5.8042,-5.7997,-5.7997,-5.7997,-5.7997,-5.7997,-5.7997,-5.796,-5.7171,-5.6363,0.0,-5.4748,-5.394,-5.3185,-5.3185,-5.2931,0.0,0.0,0.0,0.0,0.0,-4.8306,-4.8233,-1.9583,-1.9712,-1.9819,-1.9892,-2.0735,-2.1689,-2.2561,-2.3496,-2.4697,-2.6379,-2.7879,-2.9167,-3.0142,-3.1565,-3.2532,-3.2731,-3.3416,-3.3581,-3.3056,-3.4592,-3.5571,-3.5686,-3.8004,-3.9335,-3.9438,-4.0131,-4.0554,-4.065,-4.065,-4.0723,-4.0889,-4.0798,-4.0809,-4.0918,-4.0897,-4.0921,-4.0992,-4.1053,-4.1098,-4.1111,-4.1152,-4.0723,-3.9863,-3.8223,-3.7598,-3.748,-3.6601,-3.5723,-3.4883,-3.4101,0.0,0.0,0.0,0.0,0.0,0.0,0.0,0.0,0.0,0.0,0.0,0.0,0.0,0.0,0.0,0.0,0.0,0.0,0.0,0.0,0.0,0.0,0.0,0.0,-5.1952,-5.4068,-5.5761,-5.6069,-5.6415,-5.7195,-5.8588,-5.955,-5.9646,-6.0339,-6.0741,-6.0604,-6.036,-5.9996,-5.9521,0.0,0.0,0.0,0.0,-5.8152,-5.7997,-5.7997,-5.7997,-5.7997,-5.7997,-5.7997,-5.7978,-5.7262,-5.651,-5.5684,-5.4876,-5.4087,-5.3335,-5.3243,-5.3075,-5.2782,-5.1371,-5.0251,-4.9372,-4.86,-4.8306,0.0,-1.9587,-1.9706,-1.9831,-1.9961,-2.0774,-2.1689,-2.2561,-2.3453,-2.4629,-2.6304,-2.6797,-2.7583,-2.9097,-2.9557,-3.0331,-3.1719,-3.2,-3.2581,-3.3714,-3.5354,-3.6642,-3.7383,-3.8573,-3.9554,-4.0246,-4.0419,-4.0835,-4.1546,-4.1546,-4.1912,-4.2601,-4.1948,-4.1665,-4.1658,-4.1092,-4.0854,-4.0918,-4.0986,-4.1055,-4.1102,-4.111,-4.1054,-4.084,-3.9785,-3.9394,-3.9277,-3.8418,-3.7539,-3.6777,-3.6601,-3.5506,-3.4131,-3.3813,-3.2221,0.0,0.0,0.0,0.0,0.0,0.0,0.0,0.0,0.0,0.0,0.0,0.0,0.0,0.0,0.0,0.0,0.0,0.0,0.0,-5.2991,-5.4472,-5.5818,-5.755,-5.8357,-5.8838,-5.8992,-5.93,-5.9781,-6.0473,-6.0704,-6.0729,-6.0539,-6.0373,-6.0026,-5.9452,-5.9197,0.0,-5.8341,-5.8246,-5.8152,-5.7997,-5.7997,-5.7997,-5.7997,0.0,0.0,-5.7997,-5.7831,-5.7336,-5.6528,-5.5721,-5.4913,-5.4124,-5.3482,-5.2454,-5.1242,-5.093,-4.9884,-4.8526,-4.8361,-4.8306,-4.8306,-1.9594,-1.9726,-2.0011,-2.0571,-2.1424,-2.2335,-2.3174,-2.4042,-2.4886,-2.5679,-2.6178,-2.6759,-2.7606,-2.8096,-2.8881,-3.019,-3.1423,0.0,-3.4407,-3.6103,-3.7455,-3.8367,-3.9295,-4.0013,-4.0495,-4.05,-4.0931,-4.1788,-4.1788,-4.2258,-4.3085,-4.2686,-4.2506,-4.2487,-4.2156,-4.1806,-4.1514,-4.1613,-4.1447,-4.1095,-4.1108,-4.1132,-4.1152,-4.0723,-4.0547,-4.0488,-4.0059,-3.9336,-3.8594,-3.8593,-3.7438,-3.5924,-3.5456,-3.4065,-3.2509,0.0,0.0,0.0,0.0,0.0,0.0,0.0,0.0,0.0,0.0,0.0,0.0,0.0,0.0,-4.5605,-4.7759,0.0,-5.2645,-5.4761,-5.6165,-5.7453,-5.8723,-5.9261,-5.9492,-5.9492,-5.9896,-6.0319,-6.0762,-6.08,-6.0734,-6.0617,-6.05,-6.0227,-5.9675,-5.9486,-5.9121,-5.8532,-5.8403,-5.8246,-5.7997,-5.7997,-5.7997,-5.7997,-5.7997,-5.7997,-5.7997,-5.7997,-5.7556,-5.6767,-5.5941,-5.5133,-5.4308,-5.3096,-5.1885,-5.0765,-5.0362,-4.9426,-4.8306,-4.8306,-4.8306,-4.8306,-1.9829,-2.0107,-2.0532,-2.1178,-2.2198,-2.3149,-2.3804,-2.4624,-2.5154,-2.5061,-2.5666,-2.6091,-2.6091,-2.6721,-2.758,-2.8626,0.0,0.0,-3.4632,-3.6483,-3.7947,-3.8814,-3.9821,-4.0405,-4.0502,-4.0492,-4.0931,-4.1788,-4.1962,-4.2489,-4.3335,-4.3335,-4.3333,-4.3335,-4.3231,-4.2879,-4.2327,-4.2272,-4.1911,-4.1342,-4.1164,-4.1132,-4.1191,-4.1191,-4.1191,-4.1172,-4.1016,-4.0508,-3.9863,-3.9706,-3.8588,-3.7149,-3.6393,-3.5379,-3.4338,-3.3568,-3.2705,0.0,0.0,0.0,0.0,0.0,0.0,0.0,0.0,-4.1508,-4.3932,-4.4259,-4.6605,-4.8971,-5.0164,-5.276,-5.5049,-5.603,-5.7511,-5.8819,-5.9646,-5.9742,-5.9742,-5.9742,-6.0358,-6.08,-6.08,-6.08,-6.0777,-6.0717,-6.0655,-6.0414,-5.9965,-5.9809,-5.9417,-5.8721,-5.8574,-5.8338,-5.7997,-5.7997,-5.7997,-5.7997,-5.7997,-5.7997,-5.7997,-5.7997,-5.7648,-5.6987,-5.6014,-5.5042,-5.4051,-5.2417,-5.1371,-5.071,-4.9719,-4.8912,-4.8306,-4.8306,-4.8306,-4.8306,-2.0652,-2.1313,-2.1722,-2.1294,-2.2626,-2.3804,-2.3899,-2.4591,-2.5074,-2.4948,-2.4972,-2.4975,-2.4975,-2.5075,-2.5849,-2.7608,-3.0019,-3.2123,-3.3658,-3.6004,-3.775,-3.8677,-3.9681,-4.0306,-4.0502,-4.0492,-4.0931,-4.1788,-4.2585,-4.3374,-4.4162,-4.4162,-4.4171,-4.4132,-4.3431,-4.3139,-4.3123,-4.2417,-4.2171,-4.2188,-4.1406,-4.1147,-4.1191,-4.1191,-4.1191,-4.1094,-4.0312,-3.998,-3.9785,-3.9003,-3.8057,-3.7191,-3.7099,-3.5841,-3.4381,-3.4204,-3.3502,-3.2942,-3.3712,-3.5648,-3.7841,-3.9515,-4.1239,-4.2527,0.0,-4.4586,-4.6894,-4.8394,-4.9606,-5.1125,-5.3491,-5.4818,-5.6107,-5.7742,-5.8781,-5.9665,-6.0531,-6.0646,-6.0646,-6.0646,-6.0742,-6.08,-6.08,-6.08,-6.0777,-6.0717,-6.0685,-6.0514,-6.0099,-5.989,-5.9486,-5.8808,-5.8598,-5.8338,-5.7997,-5.7997,-5.7997,-5.7997,-5.7997,-5.7997,-5.7997,-5.7997,-5.7941,-5.7776,-5.6253,-5.473,-5.3203,-5.161,-5.0875,-5.0637,-4.9058,-4.8398,-4.8306,-4.8306,-4.8306,-4.8306,-2.0691,-2.1834,-2.2742,-2.2574,-2.3259,-2.3999,-2.4513,-2.4889,-2.505,-2.4914,-2.4805,-2.4742,-2.4737,-2.5269,-2.6115,-2.7371,-2.9755,-3.1841,-3.3372,-3.5811,-3.7599,-3.8531,-3.9542,-4.0168,-4.0379,-4.0455,-4.0926,-4.1788,-4.2162,-4.2777,-4.3605,-4.4085,-4.4297,-4.4297,-4.452,-4.4099,-4.3221,-4.2964,-4.2356,-4.1551,-4.1232,-4.1119,-4.1092,-4.0623,-4.0447,-4.0409,-4.0039,-3.9258,0.0,-3.7967,-3.6902,-3.5744,-3.5694,-3.5088,-3.4395,-3.432,-3.468,-3.5507,-3.7361,-3.8649,-3.9977,-4.217,-4.3643,-4.4682,-4.5201,-4.6894,-4.8702,-4.9913,-5.1221,-5.2645,-5.4203,-5.5992,-5.7453,0.0,-5.9396,-6.0377,-6.0742,-6.0358,-6.0031,-6.0031,-5.9627,-5.9723,-6.0704,-6.08,-6.0788,-6.0765,-6.0765,-6.0604,-6.0242,-6.0064,-5.966,-5.8926,-5.8721,-5.8422,-5.7997,-5.7997,-5.7997,-5.7997,-5.7997,-5.7997,-5.7997,-5.7997,-5.7483,-5.6565,-5.5886,-5.4693,-5.3093,-5.1977,-5.1224,-5.0692,-4.9499,-4.8746,-4.8306,-4.8306,-4.8306,-4.8306,-2.0933,-2.2374,-2.3654,-2.3776,-2.3963,-2.4334,-2.4999,-2.5082,-2.5032,-2.4898,-2.4734,-2.4637,-2.4623,-2.5303,-2.6109,-2.6976,-2.9107,-3.1183,-3.2944,-3.5179,-3.7066,-3.8452,-3.9239,-3.9861,-4.0288,-4.0441,-4.0814,-4.145,-4.1673,-4.2124,-4.2758,-4.3585,-4.397,-4.3989,-4.4686,-4.4326,-4.3199,-4.3066,-4.2364,-4.1312,-4.1142,-4.0943,-4.0672,-4.0089,-3.9445,-3.8822,-3.8827,-3.8008,-3.6875,-3.6384,-3.5397,-3.4337,-3.4258,-3.4319,-3.4434,-3.461,-3.6132,-3.8234,-4.0304,-4.1381,-4.242,-4.4489,-4.5836,-4.6797,-4.7451,-4.8702,-4.999,-5.0856,-5.201,-5.3183,-5.4299,-5.6184,-5.7742,-5.8223,-5.9492,-6.0531,-6.0762,-6.005,-5.9492,-5.9492,-5.88,-5.8858,-6.03,-6.0435,-6.0531,-6.0781,-6.08,-6.0654,-6.0307,-6.0169,-5.9763,-5.9024,-5.8782,-5.8486,-5.7997,-5.7997,-5.7997,-5.7997,-5.7997,-5.7997,-5.7997,-5.7997,-5.7116,-5.5614,-5.5614,-5.4693,-5.3151,-5.2325,-5.1518,-5.0729,-4.9922,-4.9058,-4.8306,-4.8306,-4.8306,-4.8306,-2.1762,-2.3166,-2.4409,-2.4538,-2.4734,-2.4927,-2.5088,-2.5038,-2.4955,-2.4818,-2.4623,-2.4476,-2.4425,-2.4561,-2.5045,-2.6046,-2.7681,-2.9695,-3.2069,-3.3828,-3.5883,-3.8392,-3.8652,-3.9242,-4.0288,-4.0441,-4.0507,-4.0535,-4.1393,-4.1808,-4.1865,-4.2739,-4.3143,-4.3143,-4.3162,-4.3185,-4.3141,-4.2363,-4.2083,-4.2109,-4.1312,-4.0535,-3.9831,-3.9807,-3.8269,-3.6123,-3.6111,0.0,-3.578,-3.4098,-3.3481,-3.3436,-3.3353,-3.3833,-3.4541,-3.5336,-3.79,-4.0669,-4.1535,-4.3566,-4.5671,-4.6586,-4.8067,-4.9279,-4.9317,-5.001,-5.0894,-5.1692,-5.1904,-5.2462,-5.4184,-5.5203,-5.6319,-5.803,-5.9011,-5.9838,-6.0685,-6.005,-5.9492,-5.9492,-5.88,-5.8627,0.0,-5.955,-5.9896,-6.0742,-6.08,-6.0654,-6.0307,-6.0169,-5.9763,-5.9024,-5.8782,-5.8486,-5.7997,-5.7997,-5.7997,-5.7997,-5.7997,-5.7997,-5.7997,-5.7997,-5.7116,-5.5614,-5.5614,-5.4693,-5.3151,-5.2325,-5.1518,-5.0729,-4.9922,-4.9058,-4.8306,-4.8306,-4.8306,-4.8306,-2.259,-2.3573,-2.4455,-2.4645,-2.4801,-2.4954,-2.515,-2.512,-2.5031,-2.4881,-2.4654,0.0,0.0,0.0,0.0,0.0,-2.7002,-2.8469,-3.0349,-3.1999,-3.3832,-3.5886,-3.6627,-3.7481,-3.8551,-3.8703,-3.9073,-3.9708,-3.9988,-4.0412,-4.095,-4.1835,-4.2239,-4.2258,-4.2835,-4.2818,-4.2309,-4.2056,-4.168,-4.1199,-4.039,-3.9948,-3.9616,-3.8493,-3.7216,-3.5856,0.0,-3.3904,-3.3319,-3.2731,-3.2155,-3.176,-3.2279,-3.2974,-3.4183,-3.7179,-3.9261,-4.1139,-4.364,-4.496,-4.6075,-4.8067,-4.8971,-4.9548,-5.0125,-5.05,-5.0789,-5.1048,-5.1529,-5.2077,-5.2673,-5.4376,-5.5895,-5.6472,-5.8223,-5.9608,-5.9896,-5.9685,-5.9492,-5.9492,-5.88,0.0,-5.9415,0.0,0.0,-6.0723,-6.08,-6.0685,-6.0447,-6.0217,-5.9812,-5.9215,-5.8864,-5.8508,-5.8152,-5.8042,-5.7997,-5.7997,-5.7997,-5.7997,-5.7978,-5.7446,-5.662,-5.5578,-5.5042,-5.4197,-5.3167,-5.2913,-5.2013,-5.0765,-5.0508,-4.9536,-4.8306,-4.8306,-4.8306,-4.8306,-2.304,-2.3766,-2.4471,-2.4711,-2.4856,0.0,0.0,0.0,0.0,0.0,0.0,0.0,0.0,0.0,0.0,0.0,0.0,-2.7291,-2.865,-3.0274,-3.1993,-3.3806,-3.4774,-3.5893,-3.7241,-3.74,-3.7921,-3.8834,-3.8834,-3.9104,-3.9631,-4.0181,-4.045,-4.0469,-4.1027,-4.0993,-4.0537,-4.054,-4.0275,-3.9824,-3.931,-3.8954,-3.8617,-3.7595,-3.6315,0.0,-3.3798,-3.2652,-3.1677,-3.1636,-3.1469,-3.1406,-3.2216,-3.3864,-3.6056,-3.8909,-4.1027,-4.2888,-4.5007,-4.6268,-4.7336,-4.899,-4.9625,-4.9933,-5.0183,-5.025,-5.0144,-4.9837,-5.0183,-5.0635,-5.0952,-5.2606,-5.4203,-5.5126,-5.7146,-5.8819,-5.9415,-5.9492,-5.9492,-5.9492,-5.88,-5.8627,-5.9415,-5.9492,0.0,-6.0723,-6.08,-6.0717,-6.0512,-6.028,-5.9877,-5.9309,-5.8925,-5.8553,-5.8197,-5.8065,-5.7997,-5.7997,-5.7997,-5.7997,-5.796,-5.7171,-5.6363,-5.5556,-5.4748,-5.394,-5.3185,-5.3185,-5.2252,-5.0802,-5.0802,-4.9793,-4.8306,-4.8306,-4.8306,-4.8306,-2.3149,-2.3836,-2.4485,0.0,0.0,0.0,0.0,0.0,0.0,0.0,0.0,0.0,0.0,0.0,0.0,0.0,0.0,0.0,-2.7075,-2.8619,-3.0337,-3.2192,-3.3121,-3.4456,-3.6269,-3.645,-3.6933,-3.7815,-3.7853,-3.7892,-3.793,-3.7988,-3.7988,-3.793,-3.793,-3.7952,-3.7975,-3.7975,-3.8003,-3.8072,-3.8028,-3.754,-3.6884,-3.6966,0.0,0.0,-3.3327,-3.2319,-3.0952,-3.0889,-3.1498,-3.2444,-3.3298,-3.6366,-3.9805,-4.0564,-4.3127,-4.5714,-4.5785,-4.7548,-4.9413,-4.9452,-5.0048,-5.0423,-4.9586,-4.9375,-4.9086,-4.8221,-4.8048,-4.8298,-4.9125,-5.001,-5.1462,-5.3953,-5.5848,-5.758,-5.9204,-5.9511,-5.9569,0.0,-5.8896,-5.8723,-5.9492,-5.9569,0.0,-6.0742,0.0,-6.0729,-6.0525,-6.0318,-5.9937,-5.9345,-5.8967,-5.86,-5.8219,-5.8065,-5.7997,-5.7997,-5.7997,-5.7978,-5.7905,-5.7116,-5.6308,-5.5504,-5.4693,-5.3922,-5.3185,-5.3185,-5.2252,-5.0802,-5.0802,-4.9793,-4.8306,-4.8306,-4.8306,-4.8306,0.0,0.0,0.0,0.0,0.0,0.0,0.0,0.0,0.0,0.0,0.0,0.0,0.0,0.0,0.0,0.0,0.0,0.0,-2.6103,-2.6558,-2.788,-3.0371,-3.0791,-3.1821,-3.3639,-3.3796,-3.43,-3.5167,-3.5815,-3.6442,-3.7046,-3.77,-3.7642,-3.7019,-3.7019,-3.6699,-3.6155,-3.6155,-3.6163,-3.6145,-3.5548,-3.5194,-3.5014,0.0,0.0,-3.2426,-3.2439,-3.2151,-3.1794,-3.1777,-3.3143,-3.5102,-3.6578,-3.8616,-4.0885,-4.2855,-4.4515,-4.61,-4.794,-4.8913,-4.9548,-5.0212,-5.0048,-4.9663,-4.9452,-4.8894,-4.8202,-4.7375,-4.7212,-4.7278,-4.7509,-4.874,-5.0356,-5.226,-5.5049,0.0,-5.8454,-5.9685,0.0,-6.0473,-6.0281,-6.0242,-6.0454,-6.0473,0.0,0.0,-6.08,-6.0765,-6.0648,-6.0354,-6.0045,-5.9694,-5.9102,-5.8684,-5.8443,-5.8138,-5.7997,-5.7997,-5.7997,-5.7685,-5.7079,-5.6271,-5.5464,-5.4656,-5.3867,-5.339,-5.3185,-5.3185,-5.2252,-5.0802,-5.0802,-4.9793,-4.8306,-4.8306,-4.8306,-4.8214,0.0,0.0,0.0,0.0,0.0,0.0,0.0,0.0,0.0,0.0,0.0,0.0,0.0,0.0,0.0,0.0,0.0,0.0,0.0,-2.5581,-2.6674,-2.8611,-2.9232,-3.0345,-3.2127,-3.2294,-3.2795,-3.3622,-3.4122,-3.4596,-3.5045,-3.5526,-3.5507,-3.5026,-3.5026,-3.4776,-3.4365,-3.4365,-3.4366,0.0,0.0,0.0,0.0,0.0,0.0,-3.2062,-3.2097,-3.2562,-3.3299,-3.4002,-3.5651,-3.771,-3.9362,-4.1048,-4.2763,-4.4477,-4.5833,-4.7174,-4.8932,-4.9683,-5.0087,-5.0577,-5.0029,-4.9202,-4.8471,-4.7625,-4.6663,-4.549,-4.524,-4.5336,-4.5701,-4.7144,-4.899,0.0,0.0,0.0,-5.8127,-5.9742,-6.08,-6.08,-6.08,-6.08,-6.08,-6.08,-6.08,0.0,-6.08,-6.0777,-6.0697,-6.0474,-6.0169,-5.9807,-5.9289,-5.8806,-5.8359,-5.8133,-5.7997,-5.7997,-5.7997,-5.7574,-5.6785,-5.5959,-5.5152,-5.4363,0.0,-5.3185,-5.3167,-5.2821,-5.194,-5.0765,-5.0398,-4.9462,-4.8306,-4.8306,-4.8067,-4.7645,0.0,0.0,0.0,0.0,0.0,0.0,0.0,0.0,0.0,-2.5468,-2.5303,-2.5165,-2.5103,-2.499,0.0,0.0,0.0,0.0,0.0,0.0,-2.6085,-2.7078,-2.8167,-2.949,-3.112,-3.1399,-3.1872,-3.2564,-3.2679,-3.2737,-3.2737,-3.2852,-3.2833,-3.2737,-3.2737,-3.2679,-3.2564,-3.2564,-3.2564,-3.2564,-3.262,0.0,0.0,0.0,0.0,-3.187,-3.2161,-3.3258,-3.486,-3.6703,-3.8369,-3.9937,-4.1557,-4.3171,-4.4689,-4.5728,-4.7052,-4.8391,-4.9317,-5.0106,-5.0673,-5.0558,-4.9875,-4.8798,-4.7105,-4.6047,-4.4979,-4.3412,-4.3008,-4.3181,-4.3989,-4.547,-4.7394,-4.9933,-5.3183,-5.6011,-5.7877,-5.9569,-6.0666,-6.0781,-6.08,-6.08,-6.08,-6.08,-6.08,-6.08,-6.08,-6.0757,-6.0729,-6.0578,-6.028,-5.9758,-5.9435,-5.8925,-5.8201,-5.8088,-5.802,-5.7997,-5.7886,-5.7428,-5.662,-5.5812,-5.4987,-5.4197,0.0,0.0,-5.3151,-5.2325,-5.1518,-5.0729,-4.9922,-4.9058,-4.8306,-4.8306,-4.7791,-4.6984,0.0,0.0,0.0,0.0,0.0,0.0,0.0,0.0,0.0,0.0,0.0,0.0,0.0,0.0,0.0,0.0,0.0,0.0,0.0,0.0,0.0,-2.6185,-2.7253,-2.8331,-2.9411,-3.0227,-3.0692,-3.0827,-3.1564,-3.191,-3.1929,-3.2583,-3.2545,-3.191,-3.191,-3.1506,-3.0827,-3.0827,-3.0827,0.0,0.0,0.0,0.0,0.0,0.0,0.0,-3.2574,-3.3721,-3.4979,-3.8044,-3.9693,-4.0778,-4.2456,-4.3643,-4.4862,-4.7107,-4.7976,-4.8526,-5.0067,-5.0577,-5.0539,-4.9798,-4.8971,-4.7894,-4.6201,-4.5143,-4.4239,-4.3297,-4.2527,-4.2297,-4.3143,-4.4105,-4.5586,-4.8144,-5.1414,-5.4472,-5.6887,-5.8665,-5.9992,-6.0704,-6.08,-6.08,-6.08,-6.08,0.0,0.0,0.0,0.0,-6.0788,-6.0604,-6.0188,-5.9488,-5.9197,-5.8786,-5.8297,-5.8201,-5.8106,-5.7997,-5.7336,-5.6583,-5.5776,-5.4968,-5.4179,-5.3387,0.0,0.0,-5.3151,-5.2325,-5.1518,-5.0729,-4.9922,-4.9058,-4.8306,-4.8306,-4.7791,-4.6984,0.0,0.0,0.0,0.0,0.0,0.0,0.0,0.0,0.0,0.0,0.0,0.0,0.0,0.0,0.0,0.0,0.0,0.0,0.0,0.0,0.0,0.0,-2.7025,-2.8032,-2.8983,-2.992,-3.0404,-3.0404,0.0,-3.1019,-3.1019,-3.1423,0.0,0.0,0.0,0.0,0.0,0.0,0.0,0.0,0.0,0.0,0.0,0.0,0.0,0.0,-3.3504,-3.449,-3.5476,-3.7485,-3.925,-4.1001,-4.3115,-4.4036,-4.4779,-4.6891,-4.7825,-4.8422,-4.9673,-5.0346,-5.05,-4.9625,-4.874,-4.7548,-4.5413,-4.4278,-4.3181,-4.147,-4.1123,-4.1239,-4.1662,-4.3143,-4.5009,-4.7124,-5.0308,-5.328,-5.5395,-5.753,-5.9184,-6.0012,-6.0512,-6.08,-6.08,-6.08,-6.08,0.0,0.0,0.0,-6.08,-6.054,-6.0184,-5.9675,-5.9345,-5.8946,-5.8558,-5.8359,-5.798,-5.7463,-5.701,-5.6161,-5.495,-5.4583,-5.3959,-5.3185,0.0,0.0,-5.3115,-5.1885,-5.1151,-5.0674,-4.9407,-4.8673,-4.8306,-4.8306,-4.7535,-4.6434,0.0,0.0,0.0,0.0,0.0,0.0,0.0,0.0,-2.8506,-3.0173,-3.0404,-2.9886,-2.8514,-2.809,0.0,0.0,0.0,0.0,0.0,0.0,0.0,0.0,0.0,-2.7975,-2.8709,0.0,0.0,-3.0404,-3.0404,0.0,0.0,0.0,0.0,0.0,0.0,0.0,0.0,0.0,0.0,0.0,0.0,0.0,0.0,0.0,0.0,0.0,0.0,-3.4983,-3.5639,-3.6579,-3.8195,-4.0224,-4.2706,-4.3855,-4.4605,-4.6163,-4.7201,-4.8067,-4.9125,-4.976,-4.9971,-4.9298,-4.849,-4.7182,-4.4624,-4.3412,-4.2143,-3.9785,-3.9804,-4.0246,-4.0246,-4.2162,-4.4335,-4.6067,-4.9,-5.175,-5.3664,-5.6145,-5.8127,-5.9127,-5.9992,0.0,-6.0781,-6.08,0.0,0.0,0.0,0.0,-6.0788,-6.0507,-6.0237,-5.9981,-5.9609,-5.9234,-5.8867,-5.8352,-5.7725,-5.7,-5.65,-5.5629,-5.4399,-5.4216,-5.3812,-5.3185,0.0,0.0,0.0,-5.1463,-5.0802,-5.0637,-4.8948,-4.8306,-4.8306,-4.8306,-4.7278,-4.5902,0.0,0.0,0.0,0.0,0.0,0.0,0.0,0.0,-2.8506,-3.0173,-3.0404,-3.0346,-3.0186,-2.9384,0.0,0.0,0.0,0.0,0.0,0.0,0.0,0.0,0.0,0.0,0.0,0.0,0.0,-3.0404,-3.0404,0.0,0.0,0.0,0.0,0.0,0.0,0.0,0.0,0.0,0.0,0.0,0.0,0.0,0.0,0.0,0.0,0.0,0.0,-3.4516,-3.4773,-3.6364,-3.7012,-3.7576,-4.0062,-4.2439,-4.4489,-4.5441,-4.6336,-4.7355,-4.8952,-4.8875,-4.8317,-4.824,-4.7605,-4.6336,-4.3797,-4.2547,-4.1431,-3.9662,-3.9361,-3.9419,-3.9419,-4.0854,-4.2585,-4.4278,-4.674,-4.9317,-5.1788,-5.4337,-5.6549,-5.8204,0.0,0.0,-6.0723,-6.08,0.0,0.0,0.0,0.0,0.0,-6.061,-6.0447,-6.0169,-5.9906,-5.9539,-5.9083,-5.8022,-5.7323,-5.6982,-5.5383,-5.4546,-5.4381,-5.3647,-5.328,-5.3185,0.0,0.0,0.0,-5.1463,-5.0802,-5.0637,-4.8948,-4.8306,-4.8306,-4.8306,-4.7278,-4.5902,0.0,0.0,0.0,0.0,0.0,0.0,0.0,-2.79,-2.9044,-3.0231,-3.0865,-3.1173,-3.1173,-3.0386,0.0,0.0,0.0,0.0,0.0,0.0,0.0,0.0,0.0,0.0,0.0,0.0,0.0,-3.1173,-3.1679,0.0,0.0,0.0,0.0,0.0,0.0,0.0,0.0,0.0,0.0,0.0,0.0,0.0,0.0,0.0,0.0,0.0,0.0,0.0,-3.5223,-3.5898,-3.6428,-3.6972,-3.7899,-3.9623,-4.1739,-4.4124,-4.5432,-4.6374,-4.7567,-4.8009,-4.799,-4.7509,-4.7135,-4.624,-4.3682,-4.2431,-4.1181,-3.8969,-3.8931,-3.915,-3.8604,-4.0315,-4.22,-4.3374,-4.5278,-4.7471,-5.0048,-5.2587,-5.4838,-5.653,-5.8377,0.0,0.0,0.0,0.0,0.0,0.0,0.0,0.0,-6.0704,-6.0585,-6.0453,-6.0125,-5.9809,-5.947,-5.8183,-5.7154,-5.6441,-5.5061,-5.4161,-5.3683,-5.3353,-5.3185,-5.3185,0.0,0.0,0.0,-5.1261,-5.0508,-4.9958,-4.8765,-4.8306,-4.8306,-4.8306,-4.7278,-4.5902,0.0,0.0,0.0,0.0,0.0,0.0,-2.6262,-2.7511,-2.8756,-2.9871,-3.0544,-3.1025,-3.1295,-3.0769,-3.0136,-2.9466,0.0,0.0,0.0,0.0,0.0,0.0,0.0,0.0,0.0,0.0,0.0,-3.1698,-3.2506,-3.2891,0.0,0.0,0.0,0.0,0.0,0.0,0.0,0.0,0.0,0.0,0.0,0.0,0.0,0.0,0.0,0.0,0.0,0.0,0.0,0.0,0.0,-3.6458,-3.6642,-3.7546,-3.9142,-4.2258,-4.3778,-4.472,-4.5836,-4.6374,-4.6547,-4.622,-4.5951,-4.524,-4.3181,-4.1854,-4.0546,-3.8757,-3.8661,-3.8815,-3.845,-4.0046,-4.1797,-4.2912,-4.4278,-4.6105,-4.8663,-5.0991,-5.3183,-5.5126,0.0,-5.8954,0.0,0.0,0.0,0.0,0.0,0.0,0.0,-6.0765,-6.0704,-6.0642,-6.0351,-5.9954,-5.9387,-5.8052,-5.6813,-5.5734,-5.4612,-5.376,-5.3185,-5.3185,-5.3185,0.0,0.0,0.0,0.0,-5.0857,-5.0105,-4.9519,-4.8636,-4.8306,-4.8306,-4.8306,-4.7278,-4.5902,0.0,0.0,0.0,0.0,0.0,0.0,0.0,-2.6527,-2.7217,-2.8896,-2.9127,-2.9467,-3.0327,-3.0404,-3.0404,-3.0385,0.0,0.0,0.0,0.0,0.0,0.0,0.0,0.0,0.0,0.0,0.0,-3.1698,-3.2506,-3.2891,-3.2891,-3.2891,0.0,0.0,0.0,0.0,0.0,0.0,0.0,0.0,0.0,0.0,0.0,0.0,0.0,0.0,0.0,0.0,0.0,0.0,0.0,0.0,0.0,-3.6712,-3.7238,-3.9785,-4.1162,-4.2192,-4.3874,-4.3758,-4.3335,-4.4124,-4.372,-4.2912,-4.2019,-4.0527,-3.9323,-3.9284,-3.8604,-3.8277,-3.913,-3.9958,-4.1073,-4.2816,-4.3778,-4.5201,-4.7759,-4.9625,-5.1674,0.0,0.0,-5.7684,0.0,0.0,0.0,0.0,0.0,0.0,0.0,0.0,-6.0777,-6.0697,-6.0578,-5.9879,-5.8616,-5.7416,-5.6182,-5.49,-5.3826,-5.3274,-5.3185,-5.3185,0.0,0.0,0.0,0.0,0.0,-5.0271,-4.961,-4.9519,-4.8636,-4.8306,-4.8306,-4.8306,-4.7278,-4.5902,0.0,0.0,0.0,0.0,0.0,0.0,0.0,0.0,-2.6794,-2.7313,-2.8396,-2.9204,-2.9486,0.0,0.0,0.0,0.0,0.0,0.0,0.0,0.0,0.0,0.0,0.0,0.0,0.0,0.0,-3.2526,-3.3962,-3.4673,-3.4654,-3.4064,-3.3648,0.0,0.0,0.0,0.0,0.0,0.0,0.0,0.0,0.0,0.0,0.0,0.0,0.0,0.0,0.0,0.0,0.0,0.0,0.0,0.0,0.0,0.0,-3.7507,-3.9335,-4.1162,-4.2297,-4.2835,-4.3162,-4.3412,-4.3297,-4.272,-4.1239,-4.0092,-3.913,-3.8527,-3.818,-3.8277,-3.915,-3.9958,-4.1073,-4.2816,-4.3316,-4.4566,-4.7663,-4.9606,0.0,-5.3376,-5.6145,-5.855,0.0,0.0,0.0,0.0,0.0,0.0,0.0,0.0,-5.9904,-5.9892,-5.9703,-5.9084,-5.7986,-5.6698,-5.5801,-5.5287,-5.4088,-5.3484,-5.3444,-5.2749,0.0,0.0,0.0,0.0,0.0,-4.9812,-4.9262,-4.8673,-4.8416,-4.8306,-4.8233,-4.7681,-4.6819,-4.581,0.0,0.0,0.0,0.0,0.0,0.0,0.0,0.0,-2.6231,-2.6563,-2.7505,-2.8396,0.0,0.0,0.0,0.0,0.0,0.0,0.0,0.0,0.0,0.0,0.0,0.0,0.0,0.0,-3.3218,-3.3891,-3.5269,-3.6115,-3.6423,-3.5545,-3.4988,-3.4622,0.0,0.0,0.0,0.0,0.0,0.0,0.0,0.0,-3.5462,0.0,0.0,0.0,0.0,0.0,0.0,0.0,0.0,0.0,0.0,0.0,0.0,0.0,-3.7584,-3.9258,-4.0123,-4.0758,-4.1181,-4.1181,-4.1181,-4.0893,-3.9796,-3.8911,-3.8257,-3.8046,-3.8007,-3.8277,-3.915,-3.9958,-4.1073,-4.2816,-4.3104,-4.4278,-4.7625,0.0,0.0,-5.428,0.0,0.0,0.0,0.0,0.0,0.0,0.0,0.0,0.0,0.0,-5.8896,-5.8569,-5.8717,-5.8336,-5.7303,-5.6368,-5.5656,-5.5106,-5.4278,-5.3647,-5.3236,0.0,0.0,0.0,0.0,0.0,0.0,-4.9339,-4.8859,-4.8363,-4.8306,-4.8122,-4.7791,-4.7278,-4.6397,-4.5388,0.0,0.0,0.0,0.0,0.0,0.0,0.0,0.0,0.0,0.0,0.0,-2.7217,0.0,0.0,0.0,0.0,0.0,0.0,0.0,0.0,0.0,0.0,0.0,0.0,0.0,-3.2487,-3.3757,-3.55,-3.6308,-3.7161,-3.7988,-3.7123,-3.6308,-3.55,-3.3699,0.0,0.0,0.0,0.0,0.0,-3.55,-3.5462,0.0,0.0,0.0,0.0,0.0,0.0,0.0,0.0,0.0,0.0,0.0,0.0,0.0,0.0,0.0,0.0,0.0,-3.7911,-3.8007,-3.8007,-3.8007,-3.7988,-3.7911,-3.7276,0.0,-3.7738,-3.7969,-3.8277,-3.915,-3.9958,-4.1073,-4.2816,-4.3104,-4.4278,0.0,-4.9009,0.0,0.0,-5.8473,0.0,0.0,0.0,0.0,0.0,0.0,0.0,0.0,0.0,0.0,-5.6945,-5.7628,-5.7529,-5.6537,-5.6333,-5.5658,-5.4552,-5.4343,-5.3725,-5.275,0.0,0.0,0.0,0.0,0.0,0.0,-4.8919,-4.8513,-4.8494,-4.8308,-4.7793,-4.7113,-4.6985,-4.5993,-4.4691,0.0,0.0,0.0,0.0,0.0,0.0,0.0,0.0,0.0,0.0,0.0,0.0,0.0,0.0,0.0,0.0,0.0,0.0,0.0,0.0,0.0,0.0,0.0,0.0,0.0,-3.2487,-3.3757,-3.55,-3.6308,-3.7161,-3.7988,-3.7123,-3.6596,-3.6308,-3.3949,0.0,0.0,0.0,0.0,0.0,-3.55,-3.5103,0.0,0.0,0.0,0.0,-3.2968,-3.3026,0.0,0.0,0.0,0.0,0.0,0.0,0.0,0.0,-3.5635,-3.5827,-3.6019,0.0,-3.8007,-3.8007,-3.8007,-3.7834,0.0,-3.6846,-3.675,-3.6962,-3.7546,-3.8277,-3.915,-3.9958,-4.1073,-4.2816,-4.3104,-4.4278,-4.7625,-5.0529,0.0,-5.755,0.0,0.0,0.0,0.0,0.0,0.0,0.0,0.0,0.0,0.0,0.0,-5.603,-5.6192,-5.6115,-5.5763,-5.5607,-5.538,-5.5033,-5.4166,-5.3634,-5.3345,0.0,0.0,0.0,0.0,0.0,0.0,-4.8982,-4.8821,-4.866,-4.7957,-4.7499,-4.7095,-4.5826,-4.5074,-4.4617,0.0,0.0,0.0,0.0,0.0,0.0,0.0,0.0,0.0,0.0,0.0,0.0,0.0,0.0,0.0,0.0,0.0,0.0,0.0,0.0,0.0,0.0,0.0,0.0,0.0,-3.2679,-3.4122,-3.6654,-3.7084,-3.793,-3.9123,-3.8296,-3.768,-3.718,-3.4218,0.0,0.0,0.0,0.0,0.0,-3.5064,0.0,0.0,0.0,0.0,0.0,-3.191,-3.2006,0.0,-3.2891,-3.3295,-3.368,0.0,0.0,0.0,0.0,-3.4308,-3.4385,-3.4795,-3.6122,-3.7411,-3.7411,-3.77,-3.7777,-3.6904,-3.6692,-3.6596,-3.6231,-3.7142,-3.8142,-3.8623,-4.0008,-4.1546,-4.2874,-4.3739,0.0,0.0,0.0,-5.4761,-5.7396,0.0,0.0,0.0,0.0,0.0,0.0,0.0,0.0,0.0,0.0,0.0,0.0,-5.5338,-5.5275,-5.5551,-5.548,-5.5204,-5.4721,-5.4147,-5.3424,-5.2558,0.0,0.0,0.0,0.0,0.0,-4.9374,-4.922,-4.8884,-4.8379,-4.7814,-4.7031,-4.6135,-4.5161,-4.4522,-4.4085,0.0,0.0,0.0,0.0,0.0,0.0,0.0,0.0,0.0,0.0,0.0,0.0,0.0,0.0,0.0,0.0,0.0,0.0,0.0,0.0,0.0,0.0,0.0,0.0,-3.2852,-3.2891,-3.4584,-3.8007,-3.8007,-3.8854,-4.0477,-3.9534,-3.8488,-3.7296,-3.4391,0.0,0.0,0.0,0.0,0.0,-3.4545,0.0,0.0,0.0,0.0,0.0,0.0,0.0,0.0,-3.166,-3.216,-3.2737,-3.2852,0.0,0.0,0.0,0.0,0.0,-3.3955,-3.5411,-3.6731,-3.6865,-3.745,-3.7834,-3.7238,-3.6981,-3.6712,-3.6019,-3.7123,-3.8238,-3.8354,-4.0258,-4.2181,-4.3297,0.0,0.0,-5.1365,-5.3299,-5.4972,0.0,0.0,0.0,0.0,0.0,0.0,0.0,0.0,0.0,0.0,0.0,0.0,0.0,-5.4722,-5.4605,-5.5223,-5.5223,-5.4821,-5.4046,-5.39,-5.2999,-5.1469,-5.1311,0.0,0.0,0.0,0.0,-4.983,-4.947,-4.8822,-4.8025,-4.7567,-4.6426,-4.5001,-4.4735,-4.4153,-4.3515,0.0,0.0,0.0,0.0,0.0,0.0,0.0,0.0,0.0,0.0,0.0,0.0,0.0,0.0,0.0,0.0,0.0,0.0,0.0,0.0,0.0,0.0,0.0,-3.1173,-3.2852,-3.2891,-3.4584,-3.8007,-3.8007,-3.8854,-4.0477,-3.8911,-3.6969,-3.4763,-3.4225,-3.3994,-3.3994,0.0,0.0,-3.5423,-3.4545,0.0,0.0,0.0,0.0,0.0,0.0,0.0,0.0,-3.1448,-3.1775,-3.2006,-3.2699,0.0,0.0,0.0,0.0,0.0,-3.3955,-3.5411,-3.6885,-3.7623,-3.7892,-3.8161,-3.8757,-3.8334,-3.7777,-3.7642,-3.8411,-3.9304,-3.9996,-4.1046,-4.2547,-4.4844,0.0,-4.9548,0.0,0.0,0.0,0.0,0.0,0.0,0.0,0.0,0.0,0.0,0.0,0.0,0.0,0.0,0.0,0.0,0.0,-5.3442,-5.3567,-5.3567,-5.3509,-5.3334,-5.2551,-5.2031,-5.1721,-5.0921,-5.0482,0.0,0.0,0.0,-5.0062,-4.9239,-4.871,-4.8273,-4.6632,-4.5671,-4.5074,-4.4243,-4.3744,-4.3515,0.0,0.0,0.0,0.0,0.0,0.0,0.0,0.0,0.0,0.0,0.0,0.0,0.0,0.0,0.0,0.0,0.0,0.0,0.0,0.0,0.0,0.0,-3.1519,-3.2122,-3.2872,-3.3814,-3.5526,-3.8007,-3.8469,-3.9323,-4.0458,-3.8777,-3.6892,-3.4872,-3.4417,-3.4205,-3.4205,-3.4205,-3.4699,-3.5385,0.0,0.0,0.0,0.0,0.0,0.0,0.0,0.0,0.0,0.0,-3.1,-3.1058,-3.1423,0.0,0.0,0.0,0.0,0.0,-3.3141,-3.4757,-3.6481,-3.8257,-3.9027,-3.9342,-3.9304,-3.8996,-3.8565,-3.8104,-3.9046,-4.0054,-4.0439,-4.195,-4.3989,-4.6547,0.0,-5.0144,-5.2299,0.0,0.0,0.0,0.0,0.0,0.0,0.0,0.0,0.0,0.0,0.0,0.0,0.0,0.0,0.0,0.0,-5.25,-5.25,-5.2068,-5.2068,-5.2481,-5.2057,-5.1624,-5.1182,-5.0765,-5.0553,0.0,0.0,-4.9737,-4.9647,-4.8663,-4.7881,-4.7214,-4.6202,-4.5373,-4.4695,-4.4077,-4.3802,-4.3701,0.0,0.0,0.0,0.0,0.0,0.0,0.0,0.0,0.0,0.0,0.0,0.0,0.0,0.0,0.0,0.0,0.0,0.0,0.0,0.0,0.0,0.0,-3.2468,-3.3006,-3.3199,-3.4712,-3.6327,-3.8007,-3.8873,-3.9515,-3.9881,-3.8392,-3.6911,-3.5462,-3.4795,-3.4507,-3.4507,-3.4507,-3.4891,-3.5346,0.0,0.0,0.0,0.0,0.0,0.0,0.0,0.0,0.0,0.0,0.0,0.0,0.0,0.0,0.0,-3.0404,-3.0404,-3.0769,-3.2449,-3.4026,-3.5815,-3.8354,-3.9746,-4.0458,-4.0246,-4.0027,-3.9738,-3.9296,-4.0219,-4.117,-4.1362,-4.347,0.0,-4.7778,-4.899,-5.0452,0.0,0.0,0.0,0.0,0.0,0.0,0.0,0.0,0.0,0.0,0.0,0.0,0.0,0.0,0.0,0.0,0.0,0.0,-5.1625,-5.101,-5.101,-5.1625,-5.1625,-5.1298,-5.0693,-5.05,-5.0404,-5.0337,-4.9423,-4.9019,-4.8932,-4.7965,-4.7101,-4.6317,-4.5868,-4.5168,-4.4364,-4.4082,-4.3958,-4.391,0.0,0.0,0.0,0.0,0.0,0.0,0.0,0.0,0.0,0.0,0.0,0.0,0.0,0.0,0.0,0.0,0.0,0.0,0.0,0.0,0.0,0.0,0.0,-3.3276,-3.409,-3.5026,-3.6327,-3.8007,-3.8873,-3.8911,-3.8161,-3.7238,-3.6327,-3.55,-3.5423,-3.5404,-3.5404,-3.5404,-3.5442,-3.5346,-3.3603,0.0,0.0,0.0,0.0,0.0,0.0,0.0,0.0,0.0,0.0,0.0,0.0,0.0,-3.0404,-3.0404,-3.0404,-3.0769,-3.2449,-3.3583,-3.4917,-3.745,-3.9323,-4.092,-4.247,-4.22,-4.1835,-4.2585,-4.2835,-4.3143,-4.3893,-4.6105,-4.7894,-4.8067,-4.951,0.0,0.0,0.0,0.0,0.0,0.0,0.0,0.0,0.0,0.0,0.0,0.0,0.0,0.0,0.0,0.0,0.0,0.0,0.0,-5.0789,-5.0731,-5.0731,-5.0789,-5.0789,-5.077,-5.0673,-4.9856,-4.949,-4.9433,-4.8558,-4.8192,-4.8115,-4.7242,-4.6761,-4.6485,-4.5529,-4.4852,-4.4388,-4.4236,-4.4136,-4.4079,0.0,0.0,0.0,0.0,0.0,0.0,0.0,0.0,0.0,0.0,0.0,0.0,0.0,0.0,0.0,0.0,0.0,0.0,0.0,0.0,0.0,0.0,0.0,-3.3282,-3.4115,-3.5512,-3.6558,-3.7199,-3.8065,-3.8046,-3.718,-3.6846,-3.6269,-3.55,-3.55,-3.55,-3.55,-3.55,-3.5192,-3.4584,-3.3372,-3.2602,0.0,0.0,0.0,0.0,0.0,0.0,0.0,0.0,-2.8909,-2.9583,-2.9583,-2.9967,-3.0404,-3.0404,-3.0404,-3.0769,-3.2449,-3.3545,-3.4821,-3.7353,-3.9258,-4.0804,-4.2027,-4.2047,-4.2047,-4.2912,-4.3508,-4.4105,-4.496,-4.6336,-4.7528,-4.8029,-4.9106,0.0,0.0,0.0,0.0,0.0,0.0,0.0,0.0,0.0,0.0,0.0,0.0,0.0,0.0,0.0,0.0,0.0,0.0,0.0,0.0,-5.0712,-5.0442,-4.9894,-5.0442,-5.0423,-4.9875,-4.9548,-4.9106,-4.8548,-4.7721,-4.7346,-4.7269,-4.6358,-4.5937,-4.5821,-4.535,-4.5038,-4.482,-4.4681,-4.4576,-4.4513,0.0,0.0,0.0,0.0,0.0,0.0,0.0,0.0,0.0,0.0,0.0,0.0,0.0,0.0,0.0,0.0,0.0,0.0,0.0,0.0,0.0,0.0,0.0,-3.2877,-3.3676,-3.4841,-3.5861,-3.6697,-3.7308,-3.7276,-3.6692,-3.6442,-3.6038,-3.5481,-3.5212,-3.5084,-3.5064,-3.4788,-3.4334,-3.3725,-3.2852,-3.2199,0.0,0.0,0.0,0.0,0.0,0.0,0.0,0.0,-2.8049,-2.8761,-2.9011,-2.9506,-3.0038,-3.0327,-3.0596,-3.1115,-3.2526,-3.3737,-3.5218,-3.7777,-3.9457,-4.0881,-4.2277,-4.2585,-4.2835,-4.3701,-4.4335,-4.4893,-4.5498,-4.6317,0.0,0.0,0.0,0.0,0.0,0.0,0.0,0.0,0.0,0.0,0.0,0.0,0.0,0.0,0.0,0.0,0.0,0.0,0.0,0.0,0.0,0.0,0.0,-5.001,-4.9586,-4.899,-4.9586,-4.9567,-4.8971,-4.8721,-4.8298,-4.7682,-4.6855,-4.649,-4.6451,-4.5809,-4.5495,-4.5419,-4.5309,-4.5243,-4.5181,-4.508,-4.4967,-4.4858,0.0,0.0,0.0,0.0,0.0,0.0,0.0,0.0,0.0,0.0,0.0,0.0,0.0,0.0,0.0,0.0,0.0,0.0,0.0,0.0,0.0,0.0,0.0,-3.1954,-3.2761,-3.2737,-3.3999,-3.6661,-3.6659,-3.6673,-3.6654,-3.5865,-3.5481,-3.5462,-3.4584,-3.4205,-3.4148,-3.3276,-3.2891,-3.2814,-3.2025,-3.1698,-3.1506,0.0,0.0,0.0,0.0,0.0,0.0,0.0,-2.7178,-2.803,-2.8838,-2.9088,-2.928,-3.0135,-3.1019,-3.1891,-3.2699,-3.418,-3.6115,-3.8661,-3.9919,-4.1189,-4.372,-4.4297,-4.4547,-4.5421,-4.5594,-4.5594,-4.5594,-4.6317,0.0,0.0,0.0,0.0,0.0,0.0,0.0,0.0,0.0,0.0,0.0,0.0,0.0,0.0,0.0,0.0,0.0,0.0,0.0,0.0,0.0,0.0,0.0,-4.8529,-4.8105,-4.8086,-4.8086,-4.8086,-4.8067,-4.725,-4.6904,-4.6827,-4.597,-4.5594,-4.5594,-4.5594,-4.5568,-4.5495,-4.5429,-4.5408,-4.5379,-4.5328,-4.5213,-4.5091,0.0,0.0,0.0,0.0,0.0,0.0,0.0,0.0,0.0,0.0,0.0,0.0,0.0,0.0,0.0,0.0,0.0,0.0,0.0,0.0,0.0,0.0,0.0,0.0,0.0,0.0,-3.3081,-3.3964,-3.3991,-3.4345,-3.493,-3.4699,-3.4911,-3.5462,-3.4584,-3.4205,-3.4148,-3.3276,-3.2564,-3.2045,-3.1795,-3.1327,-3.0654,0.0,0.0,0.0,0.0,0.0,0.0,0.0,0.0,0.0,-2.7992,-2.8646,-2.928,-3.0135,-3.1019,-3.2006,-3.343,-3.4641,-3.625,-3.9381,-4.0777,-4.1912,-4.3855,-4.4297,-4.4547,-4.5421,-4.5594,-4.5594,-4.5594,-4.5806,0.0,0.0,0.0,0.0,0.0,0.0,0.0,0.0,0.0,0.0,0.0,0.0,0.0,0.0,0.0,0.0,0.0,0.0,0.0,0.0,0.0,0.0,0.0,0.0,-4.7817,-4.7259,-4.7259,-4.7259,-4.7259,-4.7,-4.6567,-4.597,-4.571,-4.5594,-4.5594,-4.5594,-4.5586,-4.5568,-4.556,-4.5551,-4.5523,-4.5477,-4.539,-4.5297,0.0,0.0,0.0,0.0,0.0,0.0,0.0,0.0,0.0,0.0,-2.5769,-2.5885,0.0,0.0,0.0,0.0,0.0,0.0,0.0,0.0,0.0,0.0,0.0,0.0,0.0,-3.1274,-3.16,0.0,0.0,-3.3166,-3.368,-3.368,-3.3968,-3.4423,-3.3583,-3.3006,-3.2622,-3.1756,-3.1102,-3.066,-3.066,-3.0564,-3.0308,0.0,0.0,0.0,0.0,0.0,0.0,0.0,0.0,0.0,-2.7101,-2.7948,-2.88,-2.964,-3.0968,-3.2468,-3.384,-3.5315,-3.7219,-4.0258,-4.1662,-4.2758,-4.4432,-4.4816,-4.4979,-4.5498,-4.5594,-4.5594,-4.5594,-4.5594,0.0,0.0,0.0,0.0,0.0,0.0,0.0,0.0,0.0,0.0,0.0,0.0,0.0,0.0,0.0,0.0,0.0,0.0,0.0,0.0,0.0,0.0,0.0,0.0,0.0,-4.6374,-4.6374,-4.6374,-4.6374,-4.6374,-4.6105,-4.5594,-4.5594,-4.5594,-4.5594,-4.5594,-4.5594,-4.5594,-4.5594,-4.5594,-4.5605,-4.554,-4.5486,-4.539,0.0,0.0,-2.5302,-2.5303,0.0,0.0,0.0,0.0,0.0,-2.5308,-2.5308,-2.5308,0.0,0.0,0.0,-2.5308,0.0,0.0,0.0,0.0,0.0,0.0,0.0,0.0,0.0,0.0,0.0,0.0,0.0,-3.2699,-3.2795,-3.2795,-3.2833,-3.2852,-3.2064,-3.1212,-3.0346,-2.9467,-2.9069,-2.8992,-2.8992,-2.9467,-3.0096,-2.9294,0.0,0.0,0.0,0.0,0.0,0.0,0.0,0.0,-2.6327,-2.714,-2.7953,-2.8838,-3.0852,-3.3006,-3.4052,-3.6122,-3.8623,-4.1258,-4.2624,-4.372,-4.5248,-4.5594,-4.5594,-4.5594,-4.5594,-4.5594,-4.5594,-4.5594,0.0,0.0,0.0,0.0,0.0,0.0,0.0,0.0,0.0,0.0,0.0,0.0,0.0,0.0,0.0,0.0,0.0,0.0,0.0,0.0,0.0,0.0,0.0,0.0,0.0,0.0,-4.5594,-4.5594,-4.5594,-4.5594,-4.5594,-4.5594,-4.5594,-4.5594,-4.5594,-4.5594,-4.5594,-4.5594,-4.5594,-4.5594,-4.5594,-4.5594,-4.5513,-4.541,0.0,0.0,-2.5298,-2.5303,0.0,0.0,0.0,0.0,-2.5308,-2.5308,-2.5308,-2.5308,-2.5308,-2.5308,0.0,-2.5308,-2.5308,0.0,0.0,0.0,0.0,0.0,0.0,0.0,0.0,0.0,0.0,0.0,0.0,-3.1187,-3.1968,-3.1968,-3.2295,-3.2852,-3.2064,-3.1212,-3.0346,-2.9467,-2.8742,-2.8165,-2.8165,-2.8275,-2.8409,-2.8242,-2.7621,0.0,0.0,0.0,0.0,0.0,0.0,0.0,-2.6327,-2.6736,-2.7178,-2.8665,-3.0448,-3.2449,-3.4635,-3.6584,-3.8777,-4.2008,-4.3951,-4.5171,-4.5518,-4.5594,-4.5594,-4.5594,-4.5594,-4.5594,-4.5594,0.0,0.0,0.0,0.0,0.0,0.0,0.0,0.0,0.0,0.0,0.0,0.0,0.0,0.0,0.0,0.0,0.0,0.0,0.0,0.0,0.0,0.0,0.0,-4.5874,-4.5691,-4.5594,0.0,-4.5594,-4.5594,-4.5594,-4.5594,-4.5594,-4.5594,-4.5594,-4.5594,-4.5594,-4.5594,-4.5594,-4.5594,-4.5594,-4.5594,-4.5594,-4.5594,-4.5559,-4.5485,0.0,0.0,0.0,0.0,0.0,0.0,0.0,0.0,-2.5308,-2.5308,-2.5308,-2.5308,-2.5308,-2.5308,0.0,0.0,-2.5308,-2.5308,0.0,0.0,0.0,0.0,0.0,0.0,0.0,0.0,0.0,0.0,-2.931,-3.0088,-3.1077,-3.1077,-3.1288,-3.1673,-3.125,-3.0385,-2.9179,-2.8717,-2.8049,-2.7274,-2.7274,-2.7525,-2.7857,-2.7448,-2.7005,-2.6544,-2.6135,0.0,0.0,0.0,0.0,0.0,0.0,0.0,-2.6774,-2.764,-2.941,-3.1538,-3.3673,-3.5776,-3.8296,-4.2143,-4.4355,-4.5594,-4.5594,-4.5594,-4.5594,-4.5594,-4.5594,-4.5594,0.0,0.0,0.0,0.0,0.0,0.0,0.0,0.0,0.0,0.0,0.0,0.0,0.0,0.0,0.0,0.0,0.0,0.0,0.0,0.0,0.0,0.0,0.0,0.0,-4.5594,-4.5594,-4.5594,-4.5594,-4.5594,-4.5594,-4.5594,-4.5594,-4.5594,-4.5594,-4.5594,-4.5594,-4.5594,-4.5594,-4.5594,-4.5594,-4.5594,-4.5594,-4.5594,-4.5594,-4.5559,-4.5504,0.0,0.0,0.0,0.0,0.0,0.0,0.0,0.0,0.0,-2.5308,-2.5308,-2.5308,-2.5308,-2.5308,-2.5308,0.0,0.0,0.0,-2.5308,0.0,0.0,0.0,0.0,0.0,0.0,0.0,0.0,-2.7392,-2.8417,-2.9417,-3.0398,-3.0558,-3.0692,-3.0827,-3.0692,-2.9698,-2.8107,-2.7953,-2.7313,-2.639,-2.639,-2.6813,-2.7371,-2.6659,-2.639,-2.6269,-2.5558,-2.5308,-2.5308,-2.5308,0.0,0.0,0.0,0.0,-2.6409,-2.6563,-2.8192,-3.0365,-3.2199,-3.4872,-3.8065,-4.1912,-4.4143,-4.5421,-4.5575,-4.5594,-4.5594,-4.5594,-4.5594,-4.5594,0.0,0.0,0.0,0.0,0.0,0.0,0.0,0.0,0.0,0.0,0.0,0.0,0.0,0.0,0.0,0.0,0.0,0.0,0.0,0.0,0.0,0.0,0.0,-4.5594,-4.5594,-4.5594,-4.5594,-4.5594,-4.5594,-4.5594,-4.5594,-4.5594,-4.5594,-4.5594,-4.5594,-4.5594,-4.5594,-4.5594,-4.5594,-4.5594,-4.5594,-4.5594,-4.5594,-4.5594,-4.5568,-4.5513,0.0,0.0,0.0,0.0,0.0,0.0,0.0,0.0,0.0,0.0,-2.5308,-2.5308,-2.5308,-2.5308,-2.5308,-2.5308,-2.5308,-2.5308,0.0,0.0,0.0,0.0,0.0,0.0,0.0,0.0,0.0,-2.7392,-2.8415,-2.941,-3.0412,-3.1167,-3.191,-3.2545,-3.1833,-3.0564,-2.8896,-2.8203,-2.6967,-2.5481,-2.5481,-2.5538,-2.5635,-2.5519,-2.5481,-2.5462,-2.5346,-2.5308,-2.5308,-2.5308,-2.5308,0.0,0.0,0.0,0.0,-2.639,-2.7371,-2.8756,-3.1198,-3.5334,-3.9431,-4.147,-4.3239,-4.4662,-4.5441,-4.5594,-4.5594,0.0,-4.5594,0.0,0.0,0.0,0.0,0.0,0.0,0.0,0.0,0.0,0.0,0.0,0.0,0.0,0.0,0.0,0.0,0.0,0.0,0.0,0.0,0.0,-4.5594,-4.5594,-4.5594,0.0,-4.5594,-4.5594,-4.5594,-4.5594,-4.5594,-4.5594,-4.5594,-4.5594,-4.5594,-4.5594,-4.5594,-4.5594,-4.5594,-4.5594,-4.5594,-4.5594,-4.5594,-4.5594,-4.5594,-4.5594,-4.5586,-4.5586,0.0,0.0,0.0,0.0,0.0,0.0,0.0,0.0,0.0,0.0,0.0,-2.5308,-2.5308,-2.5308,-2.5308,-2.5308,-2.5308,0.0,0.0,0.0,0.0,0.0,0.0,0.0,0.0,0.0,-2.6207,-2.5895,-2.7428,-2.8931,-3.0382,-3.2231,-3.3026,-3.2852,-3.2064,-3.1006,-2.9737,-2.8448,-2.7178,-2.6019,-2.6019,-2.6019,-2.6077,-2.6563,-2.6755,-2.6697,-2.6192,-2.6019,-2.5942,-2.5462,-2.5308,-2.5308,-2.5308,0.0,0.0,0.0,-2.6486,-2.7832,-3.0891,-3.4372,-3.77,-3.9854,-4.1662,-4.3258,-4.4566,-4.4874,-4.5017,-4.5498,0.0,0.0,0.0,0.0,0.0,0.0,0.0,0.0,0.0,0.0,0.0,0.0,0.0,0.0,0.0,0.0,0.0,0.0,0.0,0.0,-4.5594,-4.5594,-4.5594,-4.5594,-4.5594,0.0,-4.5594,-4.5594,-4.5594,-4.5594,-4.5594,-4.5594,-4.5594,-4.5594,-4.5594,-4.5594,-4.5594,-4.5594,-4.5594,-4.5594,-4.5594,-4.5594,-4.5594,-4.5594,-4.5594,-4.5594,-4.5594,-4.5594,0.0,0.0,0.0,0.0,0.0,0.0,0.0,0.0,0.0,0.0,0.0,-2.5308,-2.5308,0.0,0.0,0.0,-2.5308,0.0,0.0,0.0,0.0,0.0,0.0,0.0,0.0,0.0,-2.5213,-2.47,-2.6645,-2.8529,-3.035,-3.2744,-3.3757,-3.3526,-3.2929,-3.1942,-3.0635,-2.9159,-2.7909,-2.6948,-2.7159,-2.7236,-2.7332,-2.8198,-2.8544,-2.8429,-2.7544,-2.7236,-2.7063,-2.5981,-2.5635,-2.5596,-2.5365,-2.5308,0.0,0.0,0.0,-2.7255,-3.0237,-3.2756,-3.5192,-3.795,-3.9912,-4.1604,-4.3278,-4.3989,-4.447,0.0,0.0,0.0,0.0,0.0,0.0,0.0,0.0,0.0,0.0,0.0,0.0,0.0,0.0,0.0,0.0,0.0,0.0,0.0,0.0,0.0,-4.5594,-4.5594,-4.5594,-4.5594,-4.5594,-4.5594,-4.5594,-4.5594,-4.5594,-4.5594,-4.5594,-4.5594,-4.5594,-4.5594,-4.5594,-4.5594,-4.5594,-4.5594,-4.5594,-4.5594,-4.5594,-4.5594,-4.5594,-4.5594,-4.5594,-4.5594,-4.5594,-4.5594,0.0,0.0,0.0,0.0,0.0,0.0,0.0,0.0,0.0,0.0,0.0,-2.5308,-2.5308,-2.5308,-2.5308,-2.5308,-2.5308,0.0,0.0,0.0,0.0,0.0,0.0,0.0,0.0,-2.4603,-2.4599,-2.47,-2.6643,-2.8529,-3.033,-3.2122,-3.3833,-3.5365,-3.5327,-3.3942,-3.1564,-3.0654,-2.9333,-2.7895,-2.8665,-2.8973,-2.9069,-2.9942,-3.0269,-3.0154,-2.9275,-2.8973,-2.8723,-2.7082,-2.6524,-2.639,-2.5558,-2.5308,-2.5308,0.0,0.0,0.0,-2.8761,-3.0544,-3.2699,-3.6,-3.8142,-3.9873,-4.1546,0.0,0.0,0.0,0.0,0.0,0.0,0.0,0.0,0.0,0.0,0.0,0.0,0.0,0.0,0.0,0.0,0.0,0.0,0.0,0.0,0.0,0.0,0.0,-4.5594,-4.5594,-4.5594,-4.5594,-4.5594,-4.5594,-4.5594,-4.5594,-4.5594,-4.5594,-4.5594,-4.5594,-4.5594,-4.5594,-4.5594,-4.5594,-4.5594,-4.5594,-4.5594,-4.5594,-4.5594,-4.5594,-4.5594,-4.5594,-4.5594,-4.5594,-4.5594,-4.5594,0.0,0.0,0.0,0.0,0.0,0.0,0.0,0.0,0.0,0.0,0.0,0.0,0.0,-2.5308,-2.5308,-2.5308,-2.5308,0.0,0.0,0.0,0.0,0.0,0.0,0.0,0.0,-2.4676,-2.4718,-2.4757,-2.6151,-2.7733,-2.95,-3.1296,-3.2737,-3.3853,-3.441,-3.416,-3.3179,-3.1231,-3.0385,-3.0314,-3.0044,-3.0583,-3.1621,-3.2506,-3.3199,-3.3481,-3.2045,-3.1218,-3.0506,-2.8775,-2.7486,-2.6544,-2.6231,-2.575,-2.5308,-2.5308,-2.5519,-2.6019,-2.7178,-2.8736,-3.0583,-3.291,-3.5199,-3.7296,-3.8988,-4.0662,-4.2008,0.0,0.0,0.0,0.0,0.0,0.0,0.0,0.0,0.0,0.0,0.0,0.0,0.0,0.0,0.0,0.0,0.0,0.0,0.0,0.0,0.0,-4.5594,-4.5594,-4.5594,-4.5594,-4.5594,-4.5594,-4.5594,-4.5594,-4.5325,-4.4759,-4.4759,-4.4489,-4.3989,-4.3989,-4.3989,-4.3989,-4.3989,-4.4278,-4.472,-4.4201,-4.3989,-4.3989,-4.3989,-4.3989,-4.3989,-4.3989,-4.3989,-4.3989,0.0,0.0,0.0,-2.8049,0.0,-2.6308,-2.5423,-2.5308,-2.5308,-2.5308,0.0,0.0,0.0,0.0,-2.5308,-2.5308,-2.5308,-2.5308,-2.5308,0.0,0.0,0.0,0.0,0.0,0.0,-2.4809,-2.4817,-2.4809,-2.5874,-2.7135,-2.8594,-3.0124,-3.1275,-3.2083,-3.266,-3.3083,-3.3256,-3.1538,-3.1173,-3.1679,-3.1365,-3.225,-3.3872,-3.4718,-3.5584,-3.6154,-3.4699,-3.366,-3.2718,0.0,-2.9256,-2.7769,-2.7217,-2.6231,-2.5308,-2.5308,-2.5308,-2.55,-2.6365,-2.7409,-2.8736,-3.0756,-3.275,-3.4654,-3.6334,0.0,0.0,0.0,0.0,0.0,0.0,0.0,0.0,0.0,0.0,0.0,0.0,0.0,0.0,0.0,0.0,0.0,0.0,0.0,0.0,0.0,0.0,0.0,-4.519,-4.5171,-4.5037,-4.4767,-4.4767,-4.4767,-4.4767,-4.4767,-4.447,-4.3893,-4.3893,-4.3624,-4.3104,-4.3104,-4.3104,-4.3085,-4.2797,-4.3124,-4.3855,-4.3316,-4.3104,-4.3104,-4.3104,-4.3104,-4.3104,-4.3104,-4.3104,-4.3104,-2.9997,-2.9595,-2.8857,-2.8068,-2.7198,-2.6308,-2.5462,-2.5327,-2.5308,-2.5308,0.0,0.0,0.0,0.0,0.0,-2.5308,-2.5308,-2.5308,-2.5308,-2.5302,0.0,0.0,0.0,0.0,-2.4811,-2.4865,-2.4865,-2.4811,-2.5857,-2.6809,-2.7687,-2.8606,-2.9486,-3.0327,-3.0327,-3.0808,-3.1583,-3.1641,-3.1718,-3.1833,-3.2602,-3.3968,-3.5654,-3.6442,-3.7296,-3.7969,-3.7084,-3.625,0.0,-3.3564,0.0,-3.0135,-2.8409,-2.6697,-2.5327,-2.5308,-2.5308,-2.5481,0.0,0.0,0.0,-2.9673,0.0,0.0,-3.3725,0.0,0.0,0.0,0.0,0.0,0.0,0.0,0.0,0.0,0.0,0.0,0.0,0.0,0.0,0.0,0.0,0.0,0.0,0.0,0.0,0.0,0.0,-4.519,-4.4316,-4.4259,-4.3912,-4.3124,-4.3104,-4.3104,-4.3104,-4.3104,-4.3085,-4.3066,-4.3066,-4.3047,-4.3028,-4.3028,-4.3028,-4.2989,-4.2143,-4.2239,-4.3028,-4.3028,-4.3028,-4.3028,-4.3028,-4.3028,-4.3028,-4.3028,-4.3028,-4.3028,-2.9346,-2.924,-2.903,-2.8819,-2.7563,-2.6524,-2.6269,-2.5712,-2.5308,0.0,0.0,0.0,-2.5365,-2.5308,-2.5308,-2.5308,-2.5308,-2.5308,-2.5308,-2.5298,-2.5283,-2.5271,-2.5185,-2.5109,-2.5012,-2.5037,-2.5043,-2.5012,-2.5356,-2.6011,-2.6908,-2.7176,-2.7755,-2.8582,-2.8582,-2.8736,-2.9025,-3.025,-3.1814,-3.3468,-3.3064,-3.468,-3.7334,-3.7565,-3.8546,0.0,0.0,-3.8027,-3.7046,0.0,-3.325,-3.0833,-2.789,-2.664,-2.6115,-2.55,-2.5308,-2.5346,-2.5596,0.0,0.0,0.0,0.0,0.0,0.0,0.0,0.0,0.0,0.0,0.0,0.0,0.0,0.0,0.0,0.0,0.0,0.0,0.0,0.0,0.0,0.0,0.0,0.0,0.0,0.0,0.0,0.0,-4.4297,-4.347,-4.3431,-4.3335,-4.3104,-4.3104,-4.3104,-4.3104,-4.3104,-4.2777,-4.2162,-4.2162,-4.1835,-4.1227,-4.1227,-4.1227,-4.1208,-4.0958,-4.0997,-4.1227,-4.1227,-4.1227,-4.1227,-4.1227,-4.1227,-4.1227,-4.1227,-4.1227,-4.1227,-2.8954,-2.9104,-2.9107,-2.9107,-2.8299,-2.7525,-2.7198,-2.6717,-2.6385,0.0,0.0,0.0,-2.6447,-2.6058,-2.5846,-2.5846,-2.5519,-2.5308,-2.5308,-2.5308,-2.5298,-2.5292,-2.5257,-2.5206,-2.5151,-2.5138,-2.5138,-2.5145,-2.5201,-2.5526,-2.6065,-2.6067,-2.6327,-2.6813,-2.6813,-2.7024,-2.7448,-2.8794,-3.0621,-3.2622,-3.2814,-3.4737,0.0,-3.7853,-3.9046,0.0,0.0,0.0,-3.8392,-3.7411,-3.4911,0.0,-2.9019,-2.7717,-2.7044,-2.6524,-2.6385,-2.6385,-2.6385,-2.6755,-2.7217,-2.7563,0.0,0.0,0.0,-3.1538,0.0,0.0,0.0,0.0,0.0,0.0,0.0,0.0,0.0,0.0,0.0,0.0,0.0,0.0,0.0,0.0,0.0,0.0,0.0,0.0,-4.3797,-4.3431,-4.2604,-4.22,-4.2035,-4.2051,-4.2051,-4.2059,-4.2063,-4.2059,-4.1801,-4.1301,-4.1266,-4.0989,-4.0496,-4.0496,-4.0496,-4.0496,-4.0496,-4.0496,-4.0496,-4.0496,-4.0496,-4.0496,-4.0496,-4.0496,-4.0496,-4.0496,-4.0496,-4.0496,0.0,-2.9046,-2.9127,-2.9223,-2.9165,-2.8857,-2.8145,-2.7953,-2.7895,0.0,-2.7895,-2.7934,-2.803,-2.7178,-2.6601,-2.6601,-2.5808,-2.5308,-2.5308,-2.5308,-2.5298,-2.5297,-2.5292,-2.5271,-2.5209,-2.5206,-2.5212,-2.5204,-2.5271,-2.5292,-2.5292,-2.5298,-2.5308,-2.5308,-2.5308,-2.5731,-2.6524,-2.7486,-2.8756,-3.0288,-3.216,-3.4487,0.0,0.0,-3.9046,-4.0496,-4.0496,-4.0035,-3.94,-3.9111,-3.6411,0.0,-3.1096,-2.9525,-2.828,-2.8088,-2.803,-2.8011,-2.7915,-2.7895,-2.8068,-2.88,-2.8492,0.0,-2.9923,-3.0327,0.0,0.0,0.0,0.0,0.0,0.0,0.0,0.0,0.0,0.0,0.0,0.0,0.0,0.0,0.0,0.0,0.0,0.0,-4.3066,-4.297,-4.2874,-4.247,-4.17,-4.092,-4.0539,-4.0615,-4.0622,-4.0617,-4.0614,-4.0598,-4.0595,-4.0607,-4.0531,-4.0496,-4.0496,-4.0496,-4.0496,-4.0496,-4.0496,-4.0496,-4.0496,-4.0496,-4.0496,-4.0496,-4.0496,-4.0496,-4.0496,-4.0496,-4.0496,-4.0496,-2.7923,-2.8659,-2.9319,-3.0019,-2.9563,-2.905,-2.8896,-2.8319,-2.7895,-2.7895,-2.7895,-2.8145,-2.88,-2.7505,-2.6601,-2.6601,-2.5808,-2.5308,-2.5308,-2.5308,-2.5303,-2.5298,-2.5298,-2.5293,-2.5283,-2.5288,-2.5288,-2.5283,-2.5293,-2.5298,-2.5298,-2.5303,-2.5308,-2.5308,-2.5308,-2.5385,-2.5654,-2.7236,-2.8082,-2.864,-3.1679,-3.4853,-3.7757,-3.793,-3.9046,-4.0496,-4.0496,-4.04,-3.9958,-3.7892,-3.6212,-3.4577,0.0,-3.1218,-3.0679,-2.928,-2.8876,-2.8723,-2.8088,-2.7895,-2.7934,-2.8088,0.0,0.0,-2.928,-2.991,-3.0654,0.0,0.0,0.0,0.0,0.0,0.0,0.0,0.0,0.0,0.0,0.0,0.0,0.0,0.0,0.0,0.0,0.0,-4.2816,-4.2104,-4.1393,-4.0966,-4.0843,-4.0669,-4.061,-4.0673,-4.068,-4.068,-4.0687,-4.0633,-4.0605,-4.0607,-4.0531,-4.0496,-4.0496,-4.0496,-4.0496,-4.0496,-4.0496,-4.0496,-4.0496,-4.0496,-4.0496,-4.0496,-4.0496,-4.0496,-4.0496,-4.0496,-4.0496,-4.0496,-2.7082,-2.7582,-2.8255,-2.9525,-2.939,-2.9242,-2.9679,-2.941,-2.9159,-2.9159,-2.9525,-2.9948,-3.0352,-2.9256,-2.8313,-2.7871,-2.7082,-2.6409,-2.5981,-2.5942,-2.575,-2.5327,-2.5308,-2.5308,-2.5308,-2.5308,-2.5308,-2.5308,-2.5308,-2.5308,-2.5308,-2.5308,-2.5308,-2.5308,-2.5308,-2.5308,-2.5404,-2.7159,-2.8126,-2.8761,-3.1718,0.0,-3.6834,-3.768,-3.9046,-4.0496,-4.0496,-4.0496,-4.0189,-3.8065,-3.6788,0.0,0.0,-3.2641,-3.2122,0.0,-3.0698,-3.0314,-2.989,-2.9486,-2.9159,-2.9159,0.0,0.0,0.0,-2.9756,-3.0006,-3.0865,0.0,0.0,0.0,0.0,0.0,0.0,0.0,0.0,0.0,0.0,0.0,0.0,0.0,0.0,0.0,0.0,-4.0373,-3.995,-3.9892,-3.9915,-3.9945,-4.0359,-4.0454,-4.01,-4.0093,-3.9911,-3.9514,-3.9437,-3.938,-3.9346,-3.9297,-3.9261,-3.9258,-3.9708,-3.99,-3.9919,-4.0323,-4.0496,-4.0496,-4.0496,-4.0496,-4.0496,-4.0496,-4.0496,-4.0496,-4.0496,-4.0496,-4.0496,-2.6428,-2.6601,-2.7082,-2.8607,-2.8992,-2.9338,-3.0038,-3.0288,-3.0462,-3.0635,-3.1404,-3.1929,-3.1929,-3.1154,-3.0365,-2.9665,-2.8703,-2.7832,-2.7121,-2.6774,-2.6288,-2.5577,-2.5385,-2.5308,-2.5308,-2.5308,-2.5308,-2.5308,-2.5308,-2.5308,-2.5308,-2.5308,-2.5308,-2.5308,-2.5481,-2.5558,-2.5654,-2.739,-2.8511,-2.9319,0.0,-3.3949,-3.5673,-3.7353,-3.8931,-4.0285,-4.0439,-4.0496,-4.0246,-3.8565,-3.7526,-3.6661,-3.4988,-3.3968,0.0,0.0,0.0,0.0,0.0,0.0,0.0,0.0,0.0,-2.928,0.0,0.0,0.0,-3.0,0.0,0.0,0.0,0.0,0.0,0.0,0.0,0.0,0.0,0.0,0.0,0.0,0.0,0.0,0.0,0.0,-3.7757,-3.7757,-3.8419,-3.8883,-3.9061,-3.9753,-3.9875,-3.9305,-3.9282,-3.8976,-3.8337,-3.8244,-3.8189,-3.813,-3.8054,-3.8019,-3.8015,-3.8734,-3.9053,-3.9092,-3.9746,-4.0015,-4.0015,-4.0015,-4.0131,-4.0285,-4.0439,-4.0496,-4.0496,-4.0496,-4.0496,-4.0496,-2.6428,-2.6601,-2.6909,-2.7876,-2.8626,-2.9127,-2.9223,-2.991,-3.0673,-3.1448,-3.2256,-3.2756,-3.2756,-3.2045,-3.1506,-3.141,-2.991,-2.8915,-2.8819,-2.7428,-2.6563,-2.6467,-2.5712,-2.5308,-2.5308,-2.5308,-2.5308,-2.5308,-2.5308,-2.5308,-2.5308,-2.5308,-2.5308,-2.5327,-2.6115,-2.6447,-2.6563,-2.8261,-2.9011,0.0,-3.1872,-3.3949,0.0,-3.7353,-3.8604,-3.9534,-4.0246,-4.0496,-4.0246,0.0,-3.793,-3.7565,0.0,-3.5288,-3.5038,-3.4276,0.0,0.0,0.0,0.0,0.0,0.0,-3.0314,0.0,0.0,0.0,-2.9127,-2.9223,0.0,0.0,0.0,0.0,0.0,0.0,0.0,0.0,0.0,0.0,0.0,0.0,0.0,0.0,0.0,0.0,0.0,-3.6846,-3.6997,-3.743,-3.8189,-3.839,-3.8481,-3.8521,-3.8521,-3.8474,-3.838,-3.8322,-3.8249,-3.8189,-3.8118,-3.8054,-3.7993,-3.8089,-3.8152,-3.8142,-3.8238,-3.8277,-3.8277,-3.8277,-3.8738,-3.9515,-4.0227,-4.0496,-4.0496,-4.0496,-4.0496,-4.0496,-2.5769,-2.5846,-2.6115,-2.6986,-2.7428,-2.7986,-2.8953,-3.0275,-3.1442,-3.2295,-3.3122,-3.3641,-3.3641,-3.3795,-3.3699,-3.3179,-3.2474,-3.1647,0.0,0.0,-2.8365,-2.739,-2.7005,-2.6563,-2.6077,-2.6058,-2.5808,-2.5308,-2.5308,-2.5308,0.0,-2.5308,-2.5308,-2.5346,-2.6212,-2.6601,-2.6717,-2.8396,-2.9107,0.0,0.0,0.0,0.0,-3.6411,-3.8104,-3.9419,-4.0208,-4.0496,-4.0246,0.0,-3.8007,0.0,0.0,0.0,0.0,0.0,0.0,0.0,0.0,0.0,0.0,0.0,0.0,0.0,-2.9107,0.0,-2.9107,0.0,0.0,0.0,0.0,0.0,0.0,0.0,0.0,0.0,0.0,0.0,0.0,0.0,0.0,0.0,0.0,0.0,0.0,0.0,0.0,-3.6215,-3.6629,-3.7679,-3.8086,-3.7725,-3.7704,-3.7483,-3.7004,-3.6949,-3.6876,-3.6802,-3.6745,-3.6687,-3.6675,-3.7153,-3.7353,-3.7398,-3.7855,-3.8053,-3.8053,-3.8059,-3.8276,-3.8623,-3.8929,-3.9646,-4.0439,-3.9977,-3.9804,-3.9804,-2.5308,-2.5308,-2.55,-2.6135,-2.6447,-2.7255,-2.9159,-3.0929,-3.2314,-3.3141,-3.4199,-3.4891,-3.4891,-3.5661,-3.593,-3.5295,-3.5026,-3.4276,0.0,0.0,-3.0346,-2.8659,-2.8357,-2.7717,-2.6621,-2.6601,-2.6173,-2.5308,-2.5308,-2.5308,-2.5308,-2.5308,-2.5308,-2.5346,-2.6467,-2.7082,-2.739,-2.9083,-2.9935,-3.0319,-3.241,-3.3391,-3.3833,-3.5904,-3.7623,-3.9053,-3.9881,-4.0169,-3.9958,-3.8488,-3.8007,0.0,-3.6019,0.0,0.0,0.0,0.0,0.0,-3.4564,0.0,0.0,0.0,0.0,0.0,0.0,0.0,0.0,0.0,0.0,0.0,0.0,0.0,0.0,-2.803,0.0,0.0,0.0,0.0,0.0,0.0,0.0,0.0,0.0,0.0,0.0,0.0,0.0,0.0,-3.525,-3.6556,-3.7155,-3.6848,-3.687,-3.659,-3.601,-3.5955,-3.5883,-3.5824,-3.5788,-3.5739,-3.5757,-3.6337,-3.6593,-3.6596,-3.7181,-3.744,-3.744,-3.7449,-3.7572,-3.7758,-3.772,-3.8572,-3.9764,-3.9176,-3.8931,-3.8931,-2.5308,-2.5308,-2.5308,-2.5346,-2.6038,-2.7442,-2.9962,-3.1775,-3.316,-3.4052,-3.5603,0.0,0.0,0.0,0.0,0.0,0.0,-3.6269,-3.5423,0.0,-3.2064,-3.0385,-2.9506,-2.8299,-2.664,-2.6601,-2.6173,-2.5308,-2.5308,-2.5308,-2.5308,-2.5308,-2.5308,-2.5365,-2.7082,-2.8299,-2.9127,-3.0871,-3.2064,-3.2852,-3.3801,-3.4661,-3.5519,0.0,-3.7257,-3.8161,-3.9034,0.0,0.0,-3.8296,-3.8007,0.0,0.0,0.0,0.0,0.0,0.0,0.0,0.0,0.0,0.0,-3.3064,0.0,0.0,0.0,0.0,-2.8165,0.0,0.0,0.0,0.0,-2.9679,-2.8838,-2.803,-2.7198,0.0,0.0,0.0,0.0,0.0,0.0,0.0,0.0,0.0,0.0,0.0,0.0,0.0,-3.4352,-3.4616,-3.5086,-3.5919,-3.6002,-3.603,-3.5991,-3.5999,-3.5958,-3.5907,-3.5892,-3.585,-3.5791,-3.581,-3.5808,-3.5742,-3.5762,-3.5781,-3.5776,-3.5771,-3.6244,-3.6931,-3.6938,-3.7449,-3.8177,-3.8082,-3.8046,-3.8046,-2.5308,-2.5308,-2.5308,-2.5308,-2.6019,-2.7462,-3.0019,-3.2314,-3.4064,0.0,-3.6526,0.0,0.0,-3.8334,-3.8854,0.0,0.0,-3.7815,-3.6385,-3.5231,0.0,-3.2141,-3.1775,-3.0833,0.0,-2.8544,-2.7563,-2.6154,-2.5577,-2.5308,-2.5308,-2.5308,-2.5308,-2.5385,-2.7121,-2.8357,0.0,0.0,0.0,0.0,0.0,-3.4718,-3.5596,0.0,0.0,-3.7257,-3.8123,-3.843,0.0,-3.743,-3.7142,-3.6949,-3.5846,-3.55,-3.55,-3.55,-3.55,0.0,0.0,0.0,-3.4007,-3.3179,0.0,0.0,0.0,0.0,0.0,0.0,0.0,0.0,0.0,-2.9726,-2.8893,-2.803,-2.7178,-2.6288,0.0,0.0,0.0,0.0,0.0,0.0,0.0,0.0,0.0,0.0,0.0,0.0,0.0,-3.4234,-3.5019,-3.5938,-3.599,-3.5994,-3.5994,-3.5992,-3.5986,-3.5971,-3.5962,-3.5925,-3.586,-3.5872,-3.5841,-3.5833,-3.583,-3.584,-3.5836,-3.5788,-3.5928,-3.6172,-3.6163,-3.6304,-3.6579,-3.7025,-3.7215,-3.7209,-2.6212,-2.6212,-2.6135,-2.5827,-2.6981,-2.8615,-3.0558,-3.3026,0.0,0.0,-3.7411,0.0,-3.845,0.0,-3.9727,0.0,-3.9727,-3.9123,-3.7719,-3.7142,0.0,-3.4334,-3.3987,0.0,0.0,-3.0006,-2.8582,-2.6601,-2.6038,-2.5596,-2.5308,-2.5308,-2.5308,-2.5385,-2.7121,-2.8357,-2.9223,-3.1275,-3.2609,0.0,0.0,-3.5027,0.0,0.0,-3.6298,0.0,0.0,-3.7546,-3.7469,-3.6925,-3.6733,-3.6605,-3.5785,-3.5541,-3.5541,-3.5534,-3.5541,-3.5541,-3.5541,-3.5136,0.0,0.0,-3.2234,0.0,-3.0279,0.0,0.0,0.0,0.0,0.0,0.0,0.0,-2.9291,-2.809,-2.7439,-2.6659,0.0,-2.5308,0.0,0.0,0.0,0.0,0.0,0.0,-2.8272,-2.9121,0.0,0.0,0.0,0.0,-3.4589,-3.5515,-3.5837,-3.5995,-3.5995,-3.5995,-3.5994,-3.6009,-3.6005,-3.5979,-3.5931,-3.5946,-3.5941,-3.5937,-3.5942,-3.5936,-3.5936,-3.5855,-3.5844,-3.5841,-3.584,-3.5815,-3.5826,-3.6259,-3.6389,-3.6415,-2.7895,-2.7972,-2.7775,-2.6986,-2.8827,0.0,0.0,0.0,-3.5846,0.0,-3.8277,-3.9361,-3.9361,-4.0035,-4.0496,-4.0496,-4.0496,-4.0169,-3.9361,-3.9304,0.0,0.0,-3.6038,-3.4442,-3.1948,0.0,0.0,-2.6717,-2.664,-2.6154,-2.5308,-2.5308,-2.5308,-2.5385,-2.7121,0.0,-2.9261,-3.182,-3.3436,-3.4346,-3.5235,-3.5606,-3.5593,-3.5602,0.0,-3.561,-3.6379,-3.6649,-3.6656,-3.6728,-3.6735,-3.6614,-3.5859,-3.5606,-3.5599,-3.5602,-3.5593,-3.5593,-3.5593,-3.5612,-3.543,-3.4609,0.0,0.0,0.0,0.0,-2.995,0.0,0.0,0.0,0.0,0.0,-3.0002,-2.8255,-2.7897,-2.7255,-2.5596,0.0,0.0,0.0,0.0,0.0,0.0,-2.778,-2.8142,-2.9016,-2.9177,-3.0001,0.0,0.0,0.0,-3.4677,-3.5506,-3.5957,-3.5996,-3.5996,-3.5996,-3.5995,-3.5995,-3.5993,-3.6005,-3.6005,-3.6002,-3.5995,-3.5994,-3.5994,-3.5994,-3.5928,-3.5903,-3.5901,-3.5909,-3.5894,-3.588,-3.5741,-3.5658,-3.5729,-2.7895,-2.8909,-2.9885,0.0,-3.0404,-3.0904,0.0,0.0,0.0,0.0,-3.9142,-4.0189,-4.0189,-4.0381,-4.0496,-4.0496,-4.0496,0.0,0.0,0.0,0.0,-3.7719,-3.7469,-3.6469,-3.4577,-3.3045,-3.1006,-2.8453,0.0,-2.6154,-2.5308,-2.5308,-2.5308,-2.5385,-2.7121,-2.8368,-2.9347,-3.1888,-3.3843,-3.527,-3.5554,-3.5678,0.0,0.0,-3.5669,-3.5676,-3.5825,-3.5885,-3.589,-3.5896,-3.5933,-3.5955,-3.5739,-3.5664,-3.5679,-3.5664,-3.5669,-3.5669,-3.5669,-3.5713,-3.5551,-3.4686,-3.4191,-3.3747,0.0,0.0,0.0,0.0,0.0,0.0,0.0,0.0,0.0,-2.9158,-2.7773,-2.6774,-2.6327,0.0,0.0,0.0,0.0,0.0,-2.6025,-2.6029,-2.6417,-2.7344,-2.8035,0.0,0.0,0.0,0.0,-3.4645,-3.4921,-3.5332,-3.5996,-3.5996,-3.5996,-3.5996,-3.5996,-3.5996,-3.5995,-3.5995,-3.5995,-3.5994,-3.5992,-3.5992,-3.5991,-3.5987,-3.5966,-3.5965,-3.5977,-3.5944,-3.5882,-3.5807,-3.5722,-3.5708,-2.9486,-3.0602,0.0,-3.2178,0.0,0.0,-3.3378,0.0,0.0,-3.793,-3.9457,0.0,-4.0496,-4.0496,-4.0496,-4.0496,-4.0496,0.0,-3.9903,0.0,0.0,-3.9196,-3.8817,-3.7822,-3.6145,-3.4391,0.0,-2.9186,0.0,-2.6545,-2.5346,-2.5313,-2.5313,-2.5404,-2.6732,-2.783,-2.8873,-3.1825,-3.3867,-3.5156,-3.5603,0.0,0.0,-3.5799,-3.5787,-3.5783,-3.5741,-3.5683,-3.5649,-3.5689,-3.5708,-3.5747,-3.5791,-3.5792,-3.5784,-3.5799,-3.5787,-3.5787,-3.5787,-3.582,-3.5739,-3.5223,-3.489,-3.4513,-3.4028,-3.3622,-3.3444,0.0,0.0,0.0,0.0,0.0,0.0,-2.953,-2.8106,-2.7084,-2.6694,0.0,0.0,0.0,-2.5434,0.0,-2.5437,-2.543,-2.5817,-2.6736,-2.7272,0.0,0.0,0.0,0.0,0.0,-3.375,-3.4551,-3.543,-3.543,-3.5625,-3.5996,-3.5996,-3.5996,-3.5996,-3.5996,-3.5996,-3.5996,-3.5996,-3.5996,-3.5995,-3.5995,-3.5994,-3.5994,-3.5992,-3.5985,-3.5949,-3.5907,-3.5843,-3.5783,-3.1852,-3.2589,0.0,0.0,0.0,0.0,0.0,-3.6696,0.0,-3.819,0.0,-4.0527,-4.0527,-4.0527,-4.0527,-4.0527,0.0,-4.0561,-4.061,-4.0617,-4.0646,-4.0707,-3.9986,-3.8786,-3.7119,-3.5369,-3.2898,0.0,-2.8488,-2.7113,-2.5566,-2.5399,-2.5361,-2.545,-2.6251,-2.7267,0.0,-3.1841,-3.3724,-3.4594,-3.5524,-3.5919,-3.5902,-3.5903,-3.5912,-3.5912,-3.5912,-3.583,-3.573,-3.5788,-3.5803,-3.5818,-3.588,-3.5919,-3.5904,-3.5906,-3.5912,-3.5912,-3.5912,-3.5912,-3.5916,-3.5903,-3.5381,-3.4875,-3.4878,-3.4275,-3.3941,-3.4635,-3.4177,0.0,0.0,0.0,0.0,-2.9883,0.0,0.0,0.0,0.0,0.0,0.0,0.0,0.0,0.0,-2.5515,-2.5835,-2.6595,-2.6812,0.0,0.0,0.0,0.0,0.0,-3.2422,0.0,-3.4512,0.0,-3.5078,-3.582,-3.5957,-3.5996,-3.5996,-3.5996,-3.5996,-3.5996,-3.5996,-3.5996,-3.5996,-3.5996,-3.5996,-3.5996,-3.5995,-3.5993,-3.6007,-3.6007,-3.5958,-3.5917,-3.3583,0.0,0.0,0.0,0.0,-3.6839,-3.7409,-3.8439,-3.9181,-3.9232,-4.0063,-4.0662,-4.0662,-4.0662,-4.0662,-4.0662,-4.0662,0.0,0.0,0.0,0.0,-4.0782,-4.0632,-3.9738,-3.8,-3.6309,-3.4134,0.0,-2.9126,-2.7469,-2.647,-2.5781,-2.5468,-2.5514,-2.6319,0.0,-3.0277,-3.2399,0.0,-3.4661,-3.5533,-3.5939,-3.5985,-3.5988,-3.5988,-3.5988,-3.5988,-3.5931,-3.5863,-3.5885,-3.5875,-3.5884,-3.5892,-3.5939,-3.5985,-3.5988,-3.5988,-3.5988,-3.5988,-3.5974,-3.598,-3.5982,-3.5887,-3.5773,-3.5773,-3.5656,-3.5578,-3.5734,-3.5632,-3.5351,-3.4789,0.0,0.0,0.0,0.0,0.0,0.0,0.0,0.0,0.0,0.0,0.0,0.0,0.0,-2.5643,-2.5794,0.0,0.0,0.0,0.0,0.0,0.0,0.0,0.0,0.0,0.0,0.0,-3.4941,-3.5664,-3.5996,-3.5996,-3.5996,-3.5996,-3.5996,-3.5996,-3.5996,-3.5996,-3.5996,-3.5996,-3.5996,-3.5996,-3.5996,-3.5996,-3.5996,-3.5995,-3.5973,-3.5513,0.0,0.0,0.0,0.0,0.0,0.0,-3.9684,0.0,-3.9558,-4.0225,-4.0748,-4.0748,-4.0748,-4.0748,-4.0748,-4.0748,-4.0779,-4.0807,-4.0823,-4.0873,-4.0906,-4.09,0.0,-3.8392,-3.6685,-3.4535,-3.1942,-2.9336,-2.7604,-2.6724,-2.5885,-2.5494,-2.5554,-2.688,-2.8688,0.0,0.0,0.0,-3.4734,-3.5608,-3.5966,-3.6007,-3.6009,-3.5991,-3.5991,-3.5991,-3.5988,-3.5944,-3.5953,-3.5952,-3.5956,-3.5944,-3.5966,-3.6008,-3.6009,-3.5991,-3.5991,-3.5991,-3.5992,-3.5993,-3.5993,-3.5994,-3.5995,-3.5995,-3.5995,-3.5995,-3.5995,-3.5993,-3.5598,-3.4277,-3.3314,0.0,0.0,0.0,0.0,0.0,0.0,-2.7872,0.0,0.0,0.0,0.0,0.0,0.0,0.0,0.0,0.0,0.0,0.0,0.0,0.0,0.0,0.0,0.0,0.0,0.0,-3.4707,-3.5586,-3.5996,-3.5996,-3.5996,-3.5996,-3.5996,-3.5996,-3.5996,-3.5996,-3.5996,-3.5996,-3.5996,-3.5996,-3.5996,-3.5996,-3.5996,-3.5996,-3.5996,0.0,-3.7755,0.0,0.0,-3.9174,0.0,-3.9971,-4.0574,-4.0731,-3.9926,-4.0412,-4.084,-4.084,-4.084,-4.084,-4.084,-4.084,-4.0854,-4.0909,-4.0937,-4.0968,-4.1025,-4.1011,-4.0223,-3.8549,-3.6993,-3.4917,0.0,-2.9869,-2.8132,-2.7076,-2.6393,-2.6062,-2.6145,0.0,0.0,0.0,0.0,-3.4071,-3.4777,-3.5642,-3.5995,-3.5995,-3.5996,-3.5996,-3.5996,-3.5996,-3.5996,-3.5996,-3.5992,-3.6009,-3.6009,-3.5994,-3.5995,-3.5995,-3.5996,-3.5996,-3.5996,-3.5996,-3.5996,-3.5996,-3.5996,-3.5996,-3.5996,-3.5996,-3.5859,-3.5723,-3.5723,-3.5586,-3.5036,-3.3642,-3.3243,0.0,0.0,0.0,0.0,0.0,0.0,0.0,0.0,0.0,0.0,0.0,0.0,0.0,0.0,0.0,0.0,0.0,0.0,0.0,0.0,0.0,0.0,-3.1621,0.0,-3.373,0.0,-3.5488,-3.5996,-3.5996,-3.5996,-3.5996,-3.5996,-3.5996,-3.5996,-3.5996,-3.5996,-3.5996,-3.5996,-3.5996,-3.5996,-3.5996,-3.5996,-3.5996,-3.5996,0.0,0.0,0.0,0.0,0.0,0.0,0.0,-4.1033,-4.1037,-4.0889,-4.0922,-4.0981,-4.0981,-4.0981,-4.0981,-4.0981,-4.0981,-4.0981,-4.0983,-4.1057,-4.1085,-4.1087,-4.1099,-4.0285,-3.853,-3.763,-3.589,0.0,0.0,-2.9691,-2.8078,-2.7986,-2.7953,-2.8019,0.0,0.0,0.0,-3.3492,-3.4627,-3.4783,-3.5644,-3.5996,-3.5996,-3.5996,-3.5996,-3.5996,-3.5996,-3.5996,-3.5996,-3.5996,-3.5996,-3.5996,-3.5996,-3.5996,-3.5996,-3.5996,-3.5996,-3.5996,-3.5996,-3.5996,-3.5996,-3.5996,-3.5996,-3.5996,-3.5996,-3.5391,-3.4824,-3.4824,-3.4199,-3.3592,-3.3435,-3.2747,-3.2173,0.0,0.0,0.0,0.0,0.0,-2.9245,-2.8288,0.0,0.0,0.0,0.0,0.0,0.0,0.0,0.0,0.0,0.0,0.0,0.0,0.0,-2.9687,-2.9844,-3.2207,0.0,-3.3535,-3.5215,-3.5996,-3.5996,-3.5996,-3.5996,-3.5996,-3.5996,-3.5996,-3.5996,-3.5996,-3.5996,-3.5996,-3.5996,-3.5996,-3.5996,-3.5996,-3.5996,-3.5996,0.0,0.0,0.0,0.0,0.0,0.0,0.0,-4.11,-4.1105,-4.1124,-4.109,-4.1058,-4.1058,-4.1058,-4.1058,-4.1058,-4.1058,-4.106,-4.1064,-4.1088,-4.1094,-4.1101,-4.0636,-3.9818,-3.859,-3.7221,-3.5755,0.0,0.0,0.0,0.0,0.0,0.0,0.0,0.0,-3.1715,-3.322,-3.4257,-3.5,-3.5508,-3.5859,-3.5996,-3.5996,-3.5996,-3.5996,-3.5996,-3.5996,-3.5996,-3.5996,-3.5996,-3.5996,-3.5996,-3.5996,-3.5996,-3.5996,-3.5996,-3.5996,-3.5996,-3.5996,-3.5996,-3.5996,-3.5996,-3.5996,-3.5859,-3.5332,-3.4941,-3.4551,-3.4023,-3.3633,-3.3242,-3.2773,-3.2382,-3.199,0.0,0.0,0.0,0.0,0.0,0.0,-2.8397,0.0,-2.666,0.0,0.0,0.0,0.0,0.0,-2.5703,-2.5703,0.0,0.0,-2.7754,0.0,-2.9316,-3.0371,-3.2383,-3.3398,-3.3418,-3.5176,-3.5996,-3.5996,-3.5996,-3.5996,-3.5996,-3.5996,-3.5996,-3.5996,-3.5996,-3.5996,-3.5996,-3.5996,-3.5996,-3.5996,-3.5996,-3.5996,-3.5996,-4.1027,0.0,-4.1033,0.0,-4.1093,-4.1101,-4.1108,-4.1111,-4.1152,-4.1191,-4.1168,-4.1121,-4.1121,-4.1121,-4.1121,-4.1121,-4.1121,-4.1122,-4.1125,-4.1126,-4.1128,-4.1132,-4.0331,0.0,-3.8613,-3.7148,-3.5839,-3.4706,-3.2849,0.0,0.0,-2.9994,0.0,0.0,-3.1874,-3.3027,-3.4726,-3.4961,-3.5449,-3.5996,-3.5996,-3.5996,-3.5996,-3.5996,-3.5996,-3.5996,-3.5996,-3.5996,-3.5996,-3.5996,-3.5996,-3.5996,-3.5996,-3.5996,-3.5996,-3.5996,-3.5996,-3.5996,-3.5996,-3.5996,-3.5996,-3.5996,-3.5996,-3.5762,-3.4902,-3.4492,-3.4004,-3.2891,-3.2656,-3.248,-3.1914,-3.1816,-3.1621,0.0,0.0,0.0,0.0,0.0,0.0,0.0,-2.7754,-2.6934,-2.5801,0.0,0.0,0.0,0.0,-2.5977,-2.5703,0.0,0.0,0.0,0.0,0.0,0.0,0.0,-3.3047,-3.3066,-3.4785,-3.5625,-3.5625,-3.5879,-3.5996,-3.5996,-3.5996,-3.5996,-3.5996,-3.5996,-3.5996,-3.5996,-3.5996,-3.5996,-3.5996,-3.5996,-3.5996,-3.5996,-4.1109,-4.1094,-4.1098,-4.1098,-4.1107,-4.1092,-4.1092,-4.1152,-4.1191,-4.1191,-4.1191,-4.1191,-4.1191,-4.1191,-4.1191,-4.1191,-4.1191,-4.1191,-4.1191,-4.1191,-4.1191,0.0,0.0,-3.9492,-3.8613,-3.7734,-3.6445,-3.4707,0.0,0.0,-3.2187,-3.2168,-3.2598,-3.3418,-3.4277,-3.4668,-3.4766,-3.5625,-3.5996,-3.5996,-3.5996,-3.5996,-3.5996,-3.5996,-3.5996,-3.5996,-3.5996,-3.5996,-3.5996,-3.5996,-3.5996,-3.5996,-3.5996,-3.5996,-3.5996,-3.5996,-3.5996,-3.5996,-3.5996,-3.5996,-3.5996,-3.5996,-3.5996,-3.5762,-3.4902,-3.4023,-3.2949,-3.1269,-3.0937,-3.0937,-3.0918,-3.0918,-3.0918,-3.0898,0.0,0.0,0.0,0.0,0.0,-2.8516,-2.8281,-2.7598,-2.5879,0.0,0.0,0.0,0.0,0.0,0.0,0.0,0.0,-2.6992,-2.7851,0.0,-2.9609,-3.1348,-3.2207,-3.2226,-3.3906,-3.4726,-3.4746,-3.5605,-3.5996,-3.5996,-3.5996,-3.5996,-3.5996,-3.5996,-3.5996,-3.5996,-3.5996,-3.5996,-3.5996,-3.5996,-3.5996,-3.5996,-4.1169,-4.117,-4.117,-4.117,-4.1171,-4.1172,-4.1172,-4.1191,-4.1191,-4.1191,-4.1191,-4.1191,-4.1191,-4.1191,-4.1191,0.0,-4.1191,-4.1191,0.0,-4.1191,-4.1191,-4.1191,-4.0371,-3.9492,-3.8613,-3.7754,-3.6738,-3.5586,0.0,0.0,0.0,-3.3027,-3.3476,-3.4297,-3.457,-3.5039,-3.5605,-3.5879,-3.5996,-3.5996,-3.5996,-3.5996,-3.5996,-3.5996,-3.5996,-3.5996,-3.5996,-3.5996,-3.5996,-3.5996,-3.5996,-3.5996,-3.5996,-3.5996,-3.5996,-3.5996,-3.5996,-3.5996,-3.5996,-3.5996,-3.5996,-3.5996,-3.5996,-3.5625,-3.4141,-3.2715,-3.1543,-3.1016,-3.0898,-3.0898,-3.0898,-3.0898,-3.0898,-3.0898,0.0,0.0,0.0,0.0,0.0,0.0,-2.8669,-2.808,0.0,-2.7726,0.0,0.0,0.0,0.0,0.0,0.0,0.0,0.0,-2.9043,0.0,-3.0488,-3.1621,-3.248,-3.3027,-3.416,-3.5019,-3.5605,-3.5879,-3.5996,-3.5996,-3.5996,-3.5996,-3.5996,-3.5996,-3.5996,-3.5996,-3.5996,-3.5996,-3.5996,-3.5996,-3.5996,-3.5996,-4.1191,-4.1191,-4.1191,-4.1191,-4.1191,-4.1191,-4.1191,-4.1191,-4.1191,-4.1191,-4.1191,-4.1191,-4.1191,-4.1191,0.0,-4.1191,-4.1191,-4.1191,-4.1191,-4.1191,-4.1191,-4.1191,-4.0371,-3.9648,-3.9101,0.0,0.0,-3.6484,-3.5625,-3.4902,-3.4375,-3.4375,-3.4668,-3.5195,-3.5195,-3.5488,-3.5996,-3.5996,-3.5996,-3.5996,-3.5996,-3.5996,-3.6035,-3.6367,-3.6484,-3.6523,-3.6855,-3.6973,-3.6973,-3.6973,-3.6973,-3.6914,-3.6582,-3.6484,-3.6426,-3.6094,-3.5996,-3.5996,-3.5996,-3.5996,-3.5996,-3.5996,-3.5996,-3.5547,-3.3809,-3.2363,-3.1309,-3.0976,-3.0898,-3.0898,-3.0898,-3.0898,-3.0898,-3.0898,0.0,-3.0898,-3.0898,0.0,0.0,0.0,0.0,0.0,0.0,-2.8568,0.0,0.0,0.0,0.0,0.0,0.0,0.0,-2.9551,-2.9609,0.0,-3.0898,-3.1445,-3.2129,-3.2969,-3.4141,-3.5156,-3.5996,-3.5996,-3.5996,-3.5996,-3.5996,-3.5996,-3.5996,-3.5996,-3.5996,-3.5996,-3.5996,-3.5996,-3.5996,-3.5996,-3.5996,-3.5996,-4.1191,-4.1191,0.0,0.0,-4.1191,0.0,-4.1191,-4.1191,-4.1191,-4.1191,-4.1191,-4.1191,-4.1191,-4.1191,-4.1191,-4.1191,0.0,0.0,0.0,-4.1191,-4.1191,-4.1191,-4.043,0.0,-3.9902,-3.8301,-3.7422,-3.7305,-3.6426,-3.5996,-3.5996,-3.5996,-3.5996,-3.5996,-3.5996,-3.5996,-3.5996,-3.5996,-3.5996,-3.5996,-3.5996,-3.6035,-3.6172,-3.6992,-3.7344,-3.75,-3.8301,-3.8594,-3.8594,-3.8594,-3.8594,-3.8457,-3.7656,-3.7344,-3.7129,-3.6269,-3.5996,-3.5996,-3.5996,-3.5996,-3.5996,-3.5996,-3.5957,-3.5488,-3.3867,-3.2851,-3.2051,-3.123,-3.1074,-3.1055,-3.0996,-3.0976,-3.0976,-3.0918,-3.0898,-3.0898,-3.0897,0.0,0.0,0.0,0.0,0.0,0.0,-2.9108,-2.9577,0.0,0.0,0.0,0.0,0.0,0.0,-2.9668,-2.9687,-3.0078,-3.0898,-3.0957,-3.1445,-3.2383,-3.4023,-3.5215,-3.5996,-3.5996,-3.5996,-3.5996,-3.5996,-3.5996,-3.5996,-3.5996,-3.5996,-3.5996,-3.5996,-3.5996,-3.5996,-3.5996,-3.5996,-3.5996,0.0,0.0,-4.1191,-4.1191,-4.1191,-4.1191,-4.1191,-4.1191,-4.1191,-4.1191,-4.1191,-4.1191,-4.1191,-4.1191,-4.1191,-4.1191,-4.1191,-4.1191,-4.1191,-4.1191,-4.1191,-4.1191,-4.0996,-4.0586,-3.9902,-3.9492,-3.8633,-3.7305,-3.6426,-3.5996,-3.5996,-3.5996,-3.5996,-3.5996,-3.5996,-3.5996,-3.5996,-3.5996,-3.5996,-3.5996,-3.5996,-3.6406,-3.7012,-3.7226,-3.7715,-3.832,-3.8535,-3.8594,-3.8594,-3.8594,-3.8594,-3.8555,-3.8359,-3.7832,-3.7129,-3.6269,-3.5996,-3.5996,-3.5996,-3.5996,-3.5996,-3.5996,-3.5508,-3.4902,-3.4492,-3.373,-3.3066,-3.2851,-3.2812,-3.2597,-3.1933,-3.1814,-3.1618,-3.0993,-3.0855,-3.0814,-3.0813,0.0,0.0,0.0,-3.0446,-3.0333,-3.0124,-3.025,-3.0364,0.0,0.0,0.0,0.0,0.0,-3.026,-3.0515,-3.0516,-3.0614,-3.0828,-3.1472,-3.2584,-3.4126,-3.5181,-3.5807,-3.6002,-3.6002,-3.6005,-3.6009,-3.6009,-3.5992,-3.5995,-3.5995,-3.5996,-3.5996,-3.5996,-3.5996,-3.5996,-3.5996,-3.5996,-3.5996,-4.1191,-4.1191,-4.1191,-4.1191,-4.1191,-4.1191,-4.1191,-4.1191,-4.1191,-4.1191,-4.1191,-4.1191,-4.1191,-4.1191,-4.1191,-4.1191,-4.1191,-4.1191,-4.1191,-4.1191,-4.1191,-4.1191,-4.1191,-4.0976,-4.0508,-4.0098,-3.9238,-3.7891,-3.7422,-3.6973,-3.6582,-3.6582,-3.6387,-3.6016,-3.6426,-3.6582,-3.6621,-3.7012,-3.7187,-3.7187,-3.7187,-3.7461,-3.7949,-3.834,-3.8789,-3.9258,-3.9648,-3.9785,-3.9785,-3.9746,-3.9746,-3.9667,-3.9275,-3.8825,-3.82,-3.6968,-3.6306,-3.5996,-3.5996,-3.5995,-3.5993,-3.5992,-3.564,-3.5191,-3.4799,-3.4331,-3.3881,-3.3471,-3.3391,-3.3253,-3.2784,-3.2371,-3.1959,-3.1529,-3.1076,-3.0796,-3.075,-3.0753,0.0,-3.0712,-3.0688,-3.0645,-3.0618,-3.0574,-3.057,-3.0614,0.0,0.0,-3.0656,-3.0643,-3.0706,-3.0791,-3.0791,-3.0791,-3.0791,-3.202,-3.3326,-3.4651,-3.5531,-3.5942,-3.5942,-3.5942,-3.5946,-3.5952,-3.5955,-3.594,-3.5965,-3.5987,-3.6009,-3.5991,-3.5991,-3.5991,-3.5991,-3.5991,-3.5991,-3.5991,-4.1191,-4.1191,-4.1191,-4.1191,-4.1191,-4.1191,-4.1191,-4.1191,-4.1191,-4.1191,-4.1191,-4.1191,-4.1191,-4.1191,-4.1191,-4.1191,-4.1191,-4.1191,-4.1191,-4.1191,-4.1191,-4.1191,-4.1191,-4.1191,-4.1191,-4.0351,-3.9531,-3.8809,-3.8652,-3.8223,-3.75,-3.75,-3.7109,-3.6426,-3.7168,-3.75,-3.7539,-3.8281,-3.8594,-3.8594,-3.8593,-3.8671,-3.8867,-3.9609,-3.996,-4.0175,-4.0917,-4.1171,-4.1171,-4.111,-4.1109,-4.0971,-4.0239,-3.9903,-3.951,-3.8099,-3.6958,-3.6147,-3.6012,-3.5987,-3.5979,-3.5971,-3.5989,-3.5793,-3.5051,-3.4874,-3.4679,-3.3936,-3.3778,-3.3737,-3.362,-3.297,-3.2379,-3.2127,-3.1455,-3.0895,-3.074,0.0,-3.0665,-3.0595,-3.0582,-3.0567,-3.0487,-3.0477,-3.0477,-3.0482,-3.0544,0.0,0.0,-3.058,-3.0641,-3.0752,-3.0759,-3.0895,-3.1148,-3.2554,-3.376,-3.4769,-3.5512,-3.5866,-3.5866,-3.5866,-3.5887,-3.587,-3.5882,-3.589,-3.5896,-3.5962,-3.5986,-3.5989,-3.5989,-3.5989,-3.5989,-3.5989,-3.5989,-3.597,-4.1191,-4.1191,-4.1191,-4.1191,-4.1191,-4.1191,-4.1191,-4.1191,-4.1191,-4.1191,-4.1191,-4.1191,-4.1191,-4.1191,-4.1191,-4.1191,-4.1191,-4.1191,-4.1191,-4.1191,-4.1191,-4.1191,-4.1191,-4.1191,-4.1191,-4.0351,-3.9824,-3.9707,-3.8965,-3.8535,-3.8398,-3.8398,-3.832,-3.8203,-3.834,-3.8398,-3.8418,-3.8534,-3.8592,-3.8592,-3.8606,-3.9012,-3.9637,-3.9769,-4.0275,-4.0921,-4.1077,-4.1116,-4.1115,-4.1095,-4.1109,-4.1081,-4.0943,-4.0387,-3.9752,-3.9496,-3.8222,-3.6774,-3.61,-3.5923,-3.5914,-3.5912,-3.5912,-3.5873,-3.5736,-3.5717,-3.5678,-3.5539,-3.5505,-3.5295,-3.4552,-3.4258,-3.3653,-3.2252,-3.1858,-3.1488,0.0,0.0,-3.0597,-3.0519,-3.0516,-3.0495,-3.0419,-3.0411,-3.0425,-3.0414,-3.0419,-3.0465,-3.0506,-3.0511,-3.054,-3.0554,-3.0607,-3.1305,-3.2741,-3.2994,-3.3945,-3.5536,-3.5672,-3.573,-3.573,-3.573,-3.5752,-3.5827,-3.5827,-3.5846,-3.5899,-3.5902,-3.5914,-3.5912,-3.5912,-3.5912,-3.5912,-3.5912,-3.5912,-3.5912,-4.1145,-4.1145,-4.1145,-4.1145,-4.1145,-4.1145,-4.1145,-4.1145,-4.1145,-4.1145,-4.1145,-4.1145,-4.1145,-4.1145,-4.1145,-4.1145,-4.1145,-4.1145,-4.1145,-4.1171,-4.1172,-4.1152,-4.1152,-4.1151,-4.1148,-4.0758,-4.0543,-4.0543,-4.0135,-3.9726,-3.9296,-3.9296,-3.9042,-3.8613,-3.906,-3.9253,-3.9273,-3.9757,-3.9948,-3.9944,-3.9956,-4.0145,-4.0452,-4.0448,-4.0701,-4.1053,-4.1053,-4.1053,-4.1051,-4.1059,-4.105,-4.1039,-4.1003,-4.071,-4.0287,-3.9797,-3.8426,-3.6919,-3.6066,-3.5843,-3.5833,-3.5794,-3.579,-3.579,-3.579,-3.579,-3.579,-3.579,-3.5795,-3.5667,-3.5275,-3.4781,-3.4193,-3.3417,-3.248,0.0,0.0,-3.0868,-3.0521,-3.0442,-3.0455,-3.0428,-3.0389,-3.039,-3.041,-3.0408,-3.0408,-3.0419,-3.0447,-3.0447,-3.0453,-3.0449,-3.0511,-3.1361,-3.3084,-3.3103,-3.396,-3.5644,-3.5644,-3.5644,-3.5644,-3.5644,-3.5659,-3.5684,-3.5732,-3.5765,-3.5788,-3.5799,-3.5795,-3.579,-3.579,-3.579,-3.579,-3.579,-3.579,-3.5794,-4.1083,-4.1083,-4.1083,-4.1083,-4.1083,-4.1083,-4.1083,-4.1083,-4.1083,-4.1083,-4.1083,-4.1083,-4.1083,-4.1083,-4.1083,-4.1083,-4.1083,-4.1083,-4.1083,-4.1123,-4.1149,-4.1108,-4.1108,-4.1083,-4.1072,-4.1072,-4.1072,-4.1094,-4.1103,-4.0775,-4.0171,-4.0171,-3.9819,-3.9212,-3.9829,-4.0096,-4.0114,-4.0787,-4.107,-4.1081,-4.1069,-4.1017,-4.0986,-4.0958,-4.0955,-4.0955,-4.0955,-4.0955,-4.0951,-4.0944,-4.0949,-4.0933,-4.0883,-4.0878,-4.0708,-3.9982,-3.8617,-3.7109,-3.6062,-3.5769,-3.5736,-3.5699,-3.5689,-3.5689,-3.5689,-3.5689,-3.5689,-3.5689,-3.5684,-3.5679,-3.5679,-3.5131,-3.4607,-3.4413,0.0,0.0,0.0,-3.1339,-3.0758,-3.0719,-3.0521,-3.0394,-3.0404,-3.0404,-3.0404,-3.0404,-3.0404,-3.0404,-3.0404,-3.0404,-3.0404,-3.0404,-3.0455,-3.1312,-3.3051,-3.3051,-3.3901,-3.5581,-3.5581,-3.5581,-3.5581,-3.5581,-3.5587,-3.5579,-3.5621,-3.5657,-3.5672,-3.5674,-3.5684,-3.5689,-3.5689,-3.5689,-3.5689,-3.5689,-3.5689,-3.5674,-4.1018,-4.1018,-4.1018,-4.1018,-4.1018,-4.1018,-4.1018,-4.1018,-4.1018,-4.1018,-4.1018,-4.1018,-4.1018,-4.1018,-4.1018,-4.1018,-4.1018,-4.1018,-4.1018,-4.1003,-4.1033,-4.1091,-4.1103,-4.1072,-4.1001,-4.102,-4.1044,-4.1095,-4.1097,-4.1064,-4.1013,-4.1013,-4.0989,-4.0922,-4.0978,-4.0972,-4.092,-4.0972,-4.1016,-4.099,-4.0941,-4.0906,-4.0897,-4.0835,-4.0814,-4.0814,-4.0814,-4.0814,-4.0814,-4.0809,-4.0807,-4.0818,-4.0812,-4.075,-4.0693,-4.0629,-3.9372,-3.769,-3.6128,-3.5658,-3.5618,-3.5612,-3.5612,-3.5612,-3.5612,-3.5612,-3.5612,-3.5612,-3.561,-3.5612,-3.5612,-3.555,-3.5256,-3.4434,0.0,0.0,-3.3029,-3.2152,-3.1608,-3.1602,-3.0891,-3.0404,-3.0404,-3.0404,-3.0404,-3.0404,-3.0404,-3.0404,-3.0404,-3.0404,-3.0404,-3.0404,-3.039,-3.121,-3.2904,-3.2904,-3.3789,-3.5514,-3.5514,-3.5514,-3.5514,-3.5514,-3.5502,-3.5502,-3.5502,-3.5559,-3.5612,-3.5612,-3.561,-3.5612,-3.5612,-3.5612,-3.5612,-3.5612,-3.5612,-3.5612,-4.0885,-4.0885,-4.0885,-4.0885,-4.0885,-4.0885,-4.0885,-4.0885,-4.0885,-4.0885,-4.0885,-4.0885,-4.0885,-4.0885,-4.0885,-4.0885,-4.0885,-4.0885,-4.0885,-4.0885,-4.0929,-4.1025,-4.1003,-4.0953,-4.0945,-4.0945,-4.0949,-4.0976,-4.1019,-4.1042,-4.1047,-4.1047,-4.1044,-4.1037,-4.0997,-4.0953,-4.0941,-4.09,-4.0888,-4.0869,-4.0848,-4.0801,-4.0765,-4.0742,-4.073,-4.073,-4.073,-4.073,-4.075,-4.0745,-4.0745,-4.0726,-4.0687,-4.0666,-4.0537,-3.9995,-3.8972,-3.7789,-3.6633,-3.5939,-3.554,-3.5534,-3.5547,-3.5547,-3.5547,-3.5547,-3.5547,-3.5547,-3.5534,-3.5547,-3.5547,-3.5534,-3.5432,-3.5098,0.0,-3.409,-3.3782,-3.3,-3.2256,-3.1756,-3.141,-3.0981,-3.0442,-3.0404,-3.0404,-3.0404,-3.0404,-3.0404,-3.0404,-3.0404,-3.0404,-3.0404,-3.0923,-3.1756,-3.2891,-3.2891,-3.3776,-3.55,-3.55,-3.55,-3.55,-3.55,-3.5507,-3.5508,-3.5508,-3.5502,-3.5547,-3.5547,-3.5534,-3.5547,-3.5547,-3.5547,-3.5547,-3.5547,-3.5547,-3.5547,-4.0759,-4.0759,-4.0759,-4.0759,-4.0759,-4.0759,-4.0759,-4.0759,-4.0759,-4.0759,-4.0759,-4.0759,-4.0759,-4.0759,-4.0759,-4.0759,-4.0759,-4.0759,-4.0759,-4.0773,-4.0828,-4.0925,-4.0888,-4.0868,-4.0839,-4.0839,-4.0844,-4.0868,-4.092,-4.0933,-4.0941,-4.0941,-4.0937,-4.0945,-4.0883,-4.0863,-4.0833,-4.0784,-4.0769,-4.0764,-4.0745,-4.0707,-4.0668,-4.0655,-4.0636,-4.0636,-4.0636,-4.0636,-4.0648,-4.064,-4.0653,-4.0619,-4.0588,-4.0573,-4.045,-3.985,-3.9065,-3.8219,-3.7334,-3.6509,-3.5829,-3.5565,-3.55,-3.55,-3.55,-3.55,-3.55,-3.55,-3.55,-3.55,-3.55,-3.55,-3.55,-3.55,-3.5007,-3.4603,-3.4603,-3.3853,-3.3006,-3.2179,-3.1852,-3.1371,-3.0481,-3.0404,-3.0404,-3.0404,-3.0404,-3.0404,-3.0404,-3.0404,-3.0404,-3.0404,-3.125,-3.2083,-3.2891,-3.316,-3.4045,-3.55,-3.55,-3.55,-3.5481,-3.5212,-3.5084,-3.5084,-3.5084,-3.5084,-3.5115,-3.5385,-3.55,-3.55,-3.55,-3.55,-3.55,-3.55,-3.55,-3.5507,-4.0694,-4.0694,-4.0694,-4.0694,-4.0694,-4.0694,-4.0694,-4.0694,-4.0694,-4.0694,-4.0694,-4.0694,-4.0694,-4.0694,-4.0694,-4.0694,-4.0694,-4.0694,-4.0694,-4.0701,-4.0726,-4.0794,-4.0794,-4.0763,-4.0694,-4.0694,-4.0732,-4.0794,-4.0794,-4.0792,-4.0807,-4.0807,-4.0809,-4.0794,-4.0794,-4.0763,-4.0694,-4.0694,-4.0694,-4.0694,-4.0636,-4.0607,-4.058,-4.0531,-4.0496,-4.0496,-4.0496,-4.0496,-4.0496,-4.0496,-4.0496,-4.0496,-4.0496,-4.0496,-4.0496,-4.0496,-3.9938,-3.9111,-3.8257,-3.7373,-3.65,-3.5692,-3.55,-3.55,-3.55,-3.55,-3.55,-3.55,-3.55,-3.55,-3.55,-3.55,-3.55,-3.55,-3.55,-3.55,-3.55,-3.4757,-3.3878,-3.3006,-3.2199,-3.1365,-3.0481,-3.0404,-3.0404,-3.0404,-3.0404,-3.0404,-3.0404,-3.0404,-3.0404,-3.0404,-3.125,-3.2083,-3.2872,-3.3763,-3.4622,-3.5481,-3.5481,-3.5481,-3.5442,-3.4584,-3.4186,-3.4186,-3.4186,-3.4186,-3.4263,-3.5135,-3.5481,-3.55,-3.55,-3.55,-3.55,-3.55,-3.55,-3.55,-4.0564,-4.0564,-4.0564,-4.0564,-4.0564,-4.0564,-4.0564,-4.0564,-4.0564,-4.0564,-4.0564,-4.0564,-4.0564,-4.0564,-4.0564,-4.0564,-4.0564,-4.0564,-4.0564,-4.0557,-4.0576,-4.0579,-4.0619,-4.0653,-4.0619,-4.0619,-4.0646,-4.0653,-4.0707,-4.0733,-4.0726,-4.0726,-4.0739,-4.0726,-4.068,-4.0646,-4.0639,-4.0583,-4.0569,-4.0561,-4.0539,-4.0531,-4.0531,-4.0516,-4.0496,-4.0496,-4.0496,-4.0496,-4.0496,-4.0496,-4.0496,-4.0496,-4.0496,-4.0496,-4.0496,-4.0496,-3.9938,-3.9246,-3.8977,-3.7834,-3.65,-3.5692,-3.55,-3.55,-3.55,-3.55,-3.55,-3.55,-3.55,-3.55,-3.55,-3.55,-3.55,-3.55,-3.55,-3.55,-3.55,-3.5269,-3.4564,-3.3083,-3.2699,-3.1987,-3.0538,-3.0404,-3.0404,-3.0404,-3.0404,-3.0404,-3.0404,-3.0404,-3.0404,-3.0404,-3.1795,-3.2391,-3.2064,-3.3468,-3.434,-3.4584,-3.4584,-3.4276,-3.368,-3.341,-3.3295,-3.3295,-3.3295,-3.3622,-3.4225,-3.4468,-3.4949,-3.55,-3.55,-3.55,-3.55,-3.55,-3.55,-3.5404,-4.0496,-4.0496,-4.0496,-4.0496,-4.0496,-4.0496,-4.0496,-4.0496,-4.0496,-4.0496,-4.0496,-4.0496,-4.0496,-4.0496,-4.0496,-4.0496,-4.0496,-4.0496,-4.0496,-4.0496,-4.0496,-4.0496,-4.0539,-4.0565,-4.0565,-4.0565,-4.0565,-4.0565,-4.0591,-4.0619,-4.0619,-4.0619,-4.0619,-4.0612,-4.0588,-4.0565,-4.0565,-4.0523,-4.0496,-4.0496,-4.0496,-4.0496,-4.0496,-4.0496,-4.0496,-4.0496,-4.0496,-4.0496,-4.0496,-4.0496,-4.0496,-4.0496,-4.0496,-4.0496,-4.0496,-4.0496,-4.0169,-3.9708,-3.94,-3.8527,-3.745,-3.6269,-3.5731,-3.55,-3.55,-3.55,-3.55,-3.55,-3.55,-3.55,-3.55,-3.55,-3.55,-3.55,-3.55,-3.55,-3.55,-3.55,-3.4981,-3.3583,-3.3103,-3.2372,-3.1038,-3.0596,-3.0404,-3.0404,-3.0404,-3.0398,-3.0367,-3.0367,-3.0355,-3.0324,-3.1636,-3.2103,-3.1636,-3.2967,-3.3666,-3.3686,-3.3686,-3.341,-3.2891,-3.2564,-3.2429,-3.2429,-3.2429,-3.2718,-3.3256,-3.3936,-3.4507,-3.5026,-3.5365,-3.55,-3.55,-3.55,-3.55,-3.5385,-4.0496,-4.0496,-4.0496,-4.0496,-4.0496,-4.0496,-4.0496,-4.0496,-4.0496,-4.0496,-4.0496,-4.0496,-4.0496,-4.0496,-4.0496,-4.0496,-4.0496,-4.0496,-4.0496,-4.0496,-4.0496,-4.0496,-4.0496,-4.0496,-4.0496,-4.0496,-4.0496,-4.0496,-4.0496,-4.0496,-4.0496,-4.0496,-4.0496,-4.0496,-4.0496,-4.0496,-4.0496,-4.0496,-4.0496,-4.0496,-4.0496,-4.0496,-4.0496,-4.0496,-4.0496,-4.0496,-4.0496,-4.0496,-4.0496,-4.0496,-4.0496,-4.0496,-4.0496,-4.0496,-4.0496,-4.0489,-4.0508,-4.0335,-3.9596,-3.9319,-3.8877,-3.7216,-3.6171,-3.5582,-3.5519,-3.55,-3.55,-3.55,-3.55,-3.55,-3.55,-3.55,-3.55,-3.55,-3.55,-3.5493,-3.5493,-3.5486,-3.5159,-3.4282,-3.3474,-3.2648,-3.1776,-3.0898,-3.0379,-3.0404,-3.0404,-3.0392,-3.0426,-3.0419,-3.0382,-3.0303,-3.1145,-3.1515,-3.1374,-3.2249,-3.2708,-3.2769,-3.2769,-3.2756,-3.2641,-3.1929,-3.1583,-3.1583,-3.1583,-3.1641,-3.1814,-3.3353,-3.4013,-3.4167,-3.4968,-3.5269,-3.5288,-3.5365,-3.5385,-3.525,-4.0496,-4.0496,-4.0496,-4.0496,-4.0496,-4.0496,-4.0496,-4.0496,-4.0496,-4.0496,-4.0496,-4.0496,-4.0496,-4.0496,-4.0496,-4.0496,-4.0496,-4.0496,-4.0496,-4.0496,-4.0496,-4.0496,-4.0496,-4.0496,-4.0496,-4.0496,-4.0496,-4.0496,-4.0496,-4.0496,-4.0496,-4.0496,-4.0496,-4.0496,-4.0496,-4.0496,-4.0496,-4.0496,-4.0496,-4.0496,-4.0496,-4.0496,-4.0496,-4.0496,-4.0496,-4.0496,-4.0496,-4.0496,-4.0496,-4.0496,-4.0496,-4.0496,-4.0496,-4.0496,-4.0508,-4.0487,-4.0499,-4.0444,-4.0166,-3.9585,-3.8801,-3.7742,-3.6884,-3.6151,-3.5626,-3.55,-3.55,-3.55,-3.55,-3.55,-3.55,-3.55,-3.55,-3.55,-3.546,-3.542,-3.542,-3.5388,-3.5017,-3.4155,-3.3887,-3.3171,-3.1696,-3.0797,-3.0342,-3.0404,-3.0404,-3.068,-3.1296,-3.1271,-3.1198,-3.1147,-3.1928,-3.1707,-3.0342,-3.1237,-3.1764,-3.1879,-3.1879,-3.1539,-3.0942,-3.0769,-3.0673,-3.0673,-3.0673,-3.1077,-3.1737,-3.2083,-3.2602,-3.3199,-3.3391,-3.3468,-3.3545,-3.4237,-3.4468,-3.4353,-4.0496,-4.0496,-4.0496,-4.0496,-4.0496,-4.0496,-4.0496,-4.0496,-4.0496,-4.0496,-4.0496,-4.0496,-4.0496,-4.0496,-4.0496,-4.0496,-4.0496,-4.0496,-4.0496,-4.0496,-4.0496,-4.0496,-4.0496,-4.0496,-4.0496,-4.0496,-4.0496,-4.0496,-4.0496,-4.0496,-4.0496,-4.0496,-4.0496,-4.0496,-4.0496,-4.0496,-4.0496,-4.0496,-4.0496,-4.0496,-4.0496,-4.0496,-4.0496,-4.0496,-4.05,-4.0503,-4.0503,-4.0452,-4.04,-4.0375,-4.0366,-4.0366,-4.0366,-4.0366,-4.0358,-4.0351,-4.0325,-4.0279,-4.0214,-3.9852,-3.9175,-3.7917,-3.7297,-3.6695,-3.5592,-3.5354,-3.5354,-3.5354,-3.5354,-3.5354,-3.5354,-3.5354,-3.5354,-3.5354,-3.5339,-3.5297,-3.5254,-3.5234,-3.5029,-3.4538,-3.4138,-3.3413,-3.2157,-3.1661,-3.1461,-3.1493,-3.1493,-3.1658,-3.2003,-3.1977,-3.1691,-3.1178,-3.1535,-3.1121,-2.9809,-3.0297,-3.0622,-3.0782,-3.0897,-3.0708,-3.0292,-3.0292,-3.0299,-3.0292,-3.0292,-3.0586,-3.1059,-3.1488,-3.1917,-3.2372,-3.2756,-3.2891,-3.2968,-3.341,-3.3333,-3.3006,-4.0496,-4.0496,-4.0496,-4.0496,-4.0496,-4.0496,-4.0496,-4.0496,-4.0496,-4.0496,-4.0496,-4.0496,-4.0496,-4.0496,-4.0496,-4.0496,-4.0496,-4.0496,-4.0496,-4.0496,-4.0496,-4.0496,-4.0496,-4.0496,-4.0496,-4.0496,-4.0496,-4.0496,-4.0496,-4.0496,-4.0496,-4.0496,-4.0496,-4.0496,-4.0496,-4.0489,-4.05,-4.05,-4.0492,-4.0465,-4.0465,-4.0457,-4.0449,-4.0449,-4.0444,-4.0449,-4.0441,-4.0342,-4.0243,-4.0177,-4.0158,-4.0158,-4.0158,-4.0158,-4.0158,-4.0139,-4.011,-4.0051,-4.0011,-3.9962,-3.954,-3.7991,-3.7488,-3.7014,-3.5597,-3.521,-3.5166,-3.5166,-3.5166,-3.5166,-3.5166,-3.5166,-3.5166,-3.5166,-3.5149,-3.5132,-3.507,-3.5035,-3.4981,-3.4944,-3.4205,-3.3472,-3.2836,-3.2705,-3.2661,-3.2657,-3.2676,-3.2675,-3.2691,-3.2488,-3.1993,-3.113,-3.0893,-3.0395,-2.9551,-2.9561,-2.9644,-2.9813,-2.9996,-3.0121,-3.0171,-3.0171,-3.0166,-3.0168,-3.0168,-3.0208,-3.0311,-3.1053,-3.1392,-3.1514,-3.2186,-3.2436,-3.2455,-3.259,-3.2321,-3.193,-4.0496,-4.0496,-4.0496,-4.0496,-4.0496,-4.0496,-4.0496,-4.0496,-4.0496,-4.0496,-4.0496,-4.0496,-4.0496,-4.0496,-4.0496,-4.0496,-4.0496,-4.0496,-4.0496,-4.0496,-4.0496,-4.0496,-4.0496,-4.0496,-4.0496,-4.0496,-4.0496,-4.0496,-4.0496,-4.0496,-4.0496,-4.0496,-4.0496,-4.0496,-4.0496,-4.0492,-4.0491,-4.0491,-4.043,-4.0334,-4.0334,-4.0288,-4.0243,-4.0243,-4.0243,-4.0233,-4.0177,-4.011,-4.0042,-4.0032,-4.0032,-4.0032,-4.0032,-4.0032,-4.0012,-3.9958,-3.9927,-3.9873,-3.964,-3.9568,-3.9318,-3.8284,-3.7442,-3.6667,-3.575,-3.5283,-3.5034,-3.5034,-3.5034,-3.5034,-3.5034,-3.5034,-3.5034,-3.5034,-3.4982,-3.4945,-3.4936,-3.4791,-3.4668,-3.4658,-3.3895,-3.3391,-3.3449,-3.2832,-3.245,-3.2515,-3.2523,-3.2805,-3.343,-3.2721,-3.2166,-3.1858,-3.1114,-3.0267,-2.9345,-2.9404,-2.9434,-2.9464,-2.9541,-2.9742,-3.0034,-3.0034,-3.0034,-3.0022,-3.009,-3.0123,-3.0138,-3.0314,-3.0385,-3.0411,-3.0526,-3.0564,-3.064,-3.1355,-3.2005,-3.2476,-4.0496,-4.0496,-4.0496,-4.0496,-4.0496,-4.0496,-4.0496,-4.0496,-4.0496,-4.0496,-4.0496,-4.0496,-4.0496,-4.0496,-4.0496,-4.0496,-4.0496,-4.0496,-4.0496,-4.0492,-4.0495,-4.0495,-4.0471,-4.0436,-4.0436,-4.0411,-4.0383,-4.0383,-4.0457,-4.0496,-4.0496,-4.0511,-4.0495,-4.0495,-4.0427,-4.0394,-4.0388,-4.0316,-4.0243,-4.0186,-4.0158,-4.011,-4.0091,-4.0091,-4.007,-4.0,-3.9832,-3.9747,-3.9713,-3.9625,-3.9621,-3.9621,-3.9621,-3.9621,-3.9609,-3.9568,-3.9539,-3.9489,-3.9363,-3.9298,-3.9072,-3.8191,-3.77,-3.7067,-3.5783,-3.5355,-3.5122,-3.4737,-3.4653,-3.4653,-3.4653,-3.4653,-3.4653,-3.4653,-3.463,-3.4607,-3.4575,-3.4487,-3.4427,-3.4374,-3.408,-3.3881,-3.3979,-3.3703,-3.3527,-3.3559,-3.3559,-3.3698,-3.3971,-3.316,-3.2409,-3.179,-3.0924,-3.0061,-2.9192,-2.9214,-2.9275,-2.9339,-2.937,-2.9512,-2.9725,-2.9725,-2.9732,-2.9775,-2.9811,-2.9878,-2.9984,-3.0026,-3.0045,-3.009,-3.009,-3.009,-3.0185,-3.1024,-3.1272,-3.1215]},{"header":{"parameterUnit":"m.s-1","parameterCategory":1,"la1":30.6,"la2":28.766,"lo1":-90.7593,"lo2":-88.6598,"dy":0.0162,"dx":0.0183,"nx":116,"ny":114,"refTime":"2024-06-30T00:00:00:Z","depth":0,"parameterNumber":3,"parameterNumberName":"V-component_of_WINDS"},"data":[0.0,0.0,0.0,0.0,0.0,0.0,0.0,0.0,0.0,0.0,0.0,0.0,0.0,0.0,0.0,0.0,0.0,0.0,0.0,0.0,0.0,0.0,0.0,0.0,0.0,0.0,0.0,0.0,0.0,0.0,0.0,0.0,0.0,0.0,0.0,0.0,0.0,0.0,0.0,0.0,0.0,0.0,0.0,0.0,0.0,0.0,0.0,0.0,0.0,0.0,0.0,0.0,0.0,0.0,0.0,0.0,0.0,0.0,0.0,0.0,0.0,0.0,0.0,0.0,0.0,0.0,0.0,0.0,0.0,0.0,0.0,0.0,0.0,0.0,0.0,0.0,0.0,0.0,0.0,0.0,0.0,0.0,0.0,0.0,0.0,0.0,0.0,0.0,0.0,0.0,0.0,0.0,0.0,0.0,0.0,0.0,0.0,0.0,0.0,0.0,0.0,0.0,0.0,0.0,0.0,0.0,0.0,0.0,0.0,0.0,0.0,0.0,0.0,0.0,0.0,0.0,0.0,0.0,0.0,0.0,0.0,0.0,0.0,0.0,0.0,0.0,0.0,0.0,0.0,0.0,0.0,0.0,0.0,0.0,0.0,0.0,0.0,0.0,0.0,0.0,0.0,0.0,0.0,0.0,0.0,0.0,0.0,0.0,0.0,0.0,0.0,0.0,0.0,0.0,0.0,0.0,0.0,0.0,0.0,0.0,0.0,0.0,0.0,0.0,0.0,0.0,0.0,0.0,0.0,0.0,0.0,0.0,0.0,0.0,0.0,0.0,0.0,0.0,0.0,0.0,0.0,0.0,0.0,0.0,0.0,0.0,0.0,0.0,0.0,0.0,0.0,0.0,0.0,0.0,0.0,0.0,0.0,0.0,0.0,0.0,0.0,0.0,0.0,0.0,0.0,0.0,0.0,0.0,0.0,0.0,0.0,0.0,0.0,0.0,0.0,0.0,0.0,0.0,0.0,0.0,0.0,0.0,0.0,0.0,0.0,0.0,0.0,0.0,0.0,0.0,0.0,0.0,0.0,0.0,0.0,0.0,0.0,0.0,0.0,0.0,0.0,0.0,0.0,0.0,0.0,0.0,0.0,0.0,0.0,0.0,0.0,0.0,0.0,0.0,0.0,0.0,0.0,0.0,0.0,0.0,0.0,0.0,0.0,0.0,0.0,0.0,0.0,0.0,0.0,0.0,0.0,0.0,0.0,0.0,0.0,0.0,0.0,0.0,0.0,0.0,0.0,0.0,0.0,0.0,0.0,0.0,0.0,0.0,0.0,0.0,0.0,0.0,0.0,0.0,0.0,0.0,0.0,0.0,0.0,0.0,0.0,0.0,0.0,0.0,0.0,0.0,0.0,0.0,0.0,0.0,0.0,0.0,0.0,0.0,0.0,0.0,0.0,0.0,0.0,0.0,0.0,0.0,0.0,0.0,0.0,0.0,0.0,0.0,0.0,0.0,0.0,0.0,0.0,0.0,0.0,0.0,0.0,0.0,0.0,0.0,0.0,0.0,0.0,0.0,0.0,0.0,0.0,0.0,0.0,0.0,0.0,0.0,0.0,0.0,0.0,0.0,0.0,0.0,0.0,0.0,0.0,0.0,0.0,0.0,0.0,0.0,0.0,0.0,0.0,0.0,0.0,0.0,0.0,0.0,0.0,0.0,0.0,0.0,0.0,0.0,0.0,0.0,0.0,0.0,0.0,0.0,0.0,0.0,0.0,0.0,0.0,0.0,0.0,0.0,0.0,0.0,0.0,0.0,0.0,0.0,0.0,0.0,0.0,0.0,0.0,0.0,0.0,0.0,0.0,0.0,0.0,0.0,0.0,0.0,0.0,0.0,0.0,0.0,0.0,0.0,0.0,0.0,0.0,0.0,0.0,0.0,0.0,0.0,0.0,0.0,0.0,0.0,0.0,0.0,0.0,0.0,0.0,0.0,0.0,0.0,0.0,0.0,0.0,0.0,0.0,0.0,0.0,0.0,0.0,0.0,0.0,0.0,0.0,0.0,0.0,0.0,0.0,0.0,0.0,0.0,0.0,0.0,0.0,0.0,0.0,0.0,0.0,0.0,0.0,0.0,0.0,0.0,0.0,0.0,0.0,0.0,0.0,0.0,0.0,0.0,0.0,0.0,0.0,0.0,0.0,0.0,0.0,0.0,0.0,0.0,0.0,0.0,0.0,0.0,0.0,0.0,0.0,0.0,0.0,0.0,0.0,0.0,0.0,0.0,0.0,0.0,0.0,0.0,0.0,0.0,0.0,0.0,0.0,0.0,0.0,0.0,0.0,0.0,0.0,0.0,0.0,0.0,0.0,0.0,0.0,0.0,0.0,0.0,0.0,0.0,0.0,0.0,0.0,0.0,0.0,0.0,0.0,0.0,0.0,0.0,0.0,0.0,0.0,0.0,0.0,0.0,0.0,0.0,0.0,0.0,0.0,0.0,0.0,0.0,0.0,0.0,0.0,0.0,0.0,0.0,0.0,0.0,0.0,0.0,0.0,0.0,0.0,0.0,0.0,0.0,0.0,0.0,0.0,0.0,0.0,0.0,0.0,0.0,0.0,0.0,0.0,0.0,0.0,0.0,0.0,0.0,0.0,0.0,0.0,0.0,0.0,0.0,0.0,0.0,0.0,0.0,0.0,0.0,0.0,0.0,0.0,0.0,0.0,0.0,0.0,0.0,0.0,0.0,0.0,0.0,0.0,0.0,0.0,0.0,0.0,0.0,0.0,0.0,0.0,0.0,0.0,0.0,0.0,0.0,0.0,0.0,0.0,0.0,0.0,0.0,0.0,0.0,0.0,0.0,0.0,0.0,0.0,0.0,0.0,0.0,0.0,0.0,0.0,0.0,0.0,0.0,0.0,0.0,0.0,0.0,0.0,0.0,0.0,0.0,0.0,0.0,0.0,0.0,0.0,0.0,0.0,0.0,0.0,0.0,0.0,0.0,0.0,0.0,0.0,0.0,0.0,0.0,0.0,0.0,0.0,0.0,0.0,0.0,0.0,0.0,0.0,0.0,0.0,0.0,0.0,0.0,0.0,0.0,0.0,0.0,0.0,0.0,0.0,0.0,0.0,0.0,0.0,0.0,0.0,0.0,0.0,0.0,0.0,0.0,0.0,0.0,0.0,0.0,0.0,0.0,0.0,0.0,0.0,0.0,0.0,0.0,0.0,0.0,0.0,0.0,0.0,0.0,0.0,0.0,0.0,0.0,0.0,0.0,0.0,0.0,0.0,0.0,0.0,0.0,0.0,0.0,0.0,0.0,0.0,0.0,0.0,0.0,0.0,0.0,0.0,0.0,0.0,0.0,0.0,0.0,0.0,0.0,0.0,0.0,0.0,0.0,0.0,0.0,0.0,0.0,0.0,0.0,0.0,0.0,0.0,0.0,0.0,0.0,0.0,0.0,0.0,0.0,0.0,0.0,0.0,0.0,0.0,0.0,0.0,0.0,0.0,0.0,0.0,0.0,0.0,0.0,0.0,0.0,0.0,0.0,0.0,0.0,0.0,0.0,0.0,0.0,0.0,0.0,0.0,0.0,0.0,0.0,0.0,0.0,0.0,0.0,0.0,0.0,0.0,0.0,0.0,0.0,0.0,0.0,0.0,0.0,0.0,0.0,0.0,0.0,0.0,0.0,0.0,0.0,0.0,0.0,0.0,0.0,0.0,0.0,0.0,0.0,0.0,0.0,0.0,0.0,0.0,0.0,0.0,0.0,0.0,0.0,0.0,0.0,0.0,0.0,0.0,0.0,0.0,0.0,0.0,0.0,0.0,0.0,0.0,0.0,0.0,0.0,0.0,0.0,0.0,0.0,0.0,0.0,0.0,0.0,0.0,0.0,0.0,0.0,0.0,0.0,0.0,0.0,0.0,0.0,0.0,0.0,0.0,0.0,0.0,0.0,0.0,0.0,0.0,0.0,0.0,0.0,0.0,0.0,0.0,0.0,0.0,0.0,0.0,0.0,0.0,0.0,0.0,0.0,0.0,0.0,0.0,0.0,0.0,0.0,0.0,0.0,0.0,0.0,0.0,0.0,0.0,0.0,0.0,0.0,0.0,0.0,0.0,0.0,0.0,0.0,0.0,0.0,0.0,0.0,0.0,0.0,0.0,0.0,0.0,0.0,0.0,0.0,0.0,0.0,0.0,0.0,0.0,0.0,0.0,0.0,0.0,0.0,0.0,0.0,0.0,0.0,0.0,0.0,0.0,0.0,0.0,0.0,0.0,0.0,0.0,0.0,0.0,0.0,0.0,0.0,0.0,0.0,0.0,0.0,0.0,0.0,0.0,0.0,0.0,0.0,0.0,0.0,0.0,0.0,0.0,0.0,0.0,0.0,0.0,0.0,0.0,0.0,0.0,0.0,0.0,0.0,0.0,0.0,0.0,0.0,0.0,0.0,0.0,0.0,0.0,0.0,0.0,0.0,0.0,0.0,0.0,0.0,0.0,0.0,0.0,0.0,0.0,0.0,0.0,0.0,0.0,0.0,0.0,0.0,0.0,0.0,0.0,0.0,0.0,0.0,0.0,0.0,0.0,0.0,0.0,0.0,0.0,0.0,0.0,0.0,0.0,0.0,0.0,0.0,0.0,0.0,0.0,0.0,0.0,0.0,0.0,0.0,0.0,0.0,0.0,0.0,0.0,0.0,0.0,0.0,0.0,0.0,0.0,0.0,0.0,0.0,0.0,0.0,0.0,0.0,0.0,0.0,0.0,0.0,0.0,0.0,0.0,0.0,0.0,0.0,0.0,0.0,0.0,0.0,0.0,0.0,0.0,0.0,0.0,0.0,0.0,0.0,0.0,0.0,0.0,0.0,0.0,0.0,0.0,0.0,0.0,0.0,0.0,0.0,0.0,0.0,0.0,0.0,0.0,0.0,0.0,0.0,0.0,0.0,0.0,0.0,0.0,0.0,0.0,0.0,0.0,0.0,0.0,0.0,0.0,0.0,0.0,0.0,0.0,0.0,0.0,0.0,0.0,0.0,0.0,0.0,0.0,0.0,0.0,0.0,0.0,0.0,0.0,0.0,0.0,0.0,0.0,0.0,0.0,0.0,0.0,0.0,0.0,0.0,0.0,0.0,0.0,0.0,0.0,0.0,0.0,0.0,0.0,0.0,0.0,0.0,0.0,0.0,0.0,0.0,0.0,0.0,0.0,0.0,0.0,0.0,0.0,0.0,0.0,0.0,0.0,0.0,0.0,0.0,0.0,0.0,0.0,0.0,0.0,0.0,0.0,0.0,0.0,0.0,0.0,0.0,0.0,0.0,0.0,0.0,0.0,0.0,0.0,0.0,0.0,0.0,0.0,0.0,0.0,0.0,0.0,0.0,0.0,0.0,0.0,0.0,0.0,0.0,0.0,0.0,0.0,0.0,0.0,0.0,0.0,0.0,0.0,0.0,0.0,0.0,0.0,0.0,0.0,0.0,0.0,0.0,0.0,0.0,0.0,0.0,0.0,0.0,0.0,0.0,0.0,0.0,0.0,0.0,0.0,0.0,0.0,0.0,0.0,0.0,0.0,0.0,0.0,0.0,0.0,0.0,0.0,0.0,0.0,0.0,0.0,0.0,0.0,0.0,0.0,0.0,0.0,0.0,0.0,0.0,0.0,0.0,0.0,0.0,0.0,0.0,0.0,0.0,0.0,0.0,0.0,0.0,0.0,0.0,0.0,0.0,0.0,0.0,0.0,0.0,0.0,0.0,0.0,0.0,0.0,0.0,0.0,0.0,0.0,0.0,0.0,0.0,0.0,0.0,0.0,0.0,0.0,0.0,0.0,0.0,0.0,0.0,0.0,0.0,0.0,0.0,0.0,0.0,0.0,0.0,0.0,0.0,0.0,0.0,0.0,0.0,0.0,0.0,0.0,0.0,0.0,0.0,0.0,0.0,0.0,0.0,0.0,0.0,0.0,0.0,0.0,0.0,0.0,0.0,0.0,0.0,0.0,0.0,0.0,0.0,0.0,0.0,0.0,0.0,0.0,0.0,0.0,0.0,0.0,0.0,0.0,0.0,0.0,0.0,0.0,0.0,0.0,0.0,0.0,0.0,0.0,0.0,0.0,0.0,0.0,0.0,0.0,0.0,0.0,0.0,0.0,0.0,0.0,0.0,-1.3233,0.0,0.0,0.0,0.0,0.0,0.0,0.0,0.0,0.0,0.0,0.0,0.0,0.0,0.0,0.0,0.0,0.0,0.0,0.0,0.0,0.0,0.0,0.0,0.0,-0.1094,-0.1066,-0.0982,-0.0926,-0.0814,-0.0645,0.0,0.0,0.0,0.0,0.0,-0.0336,-0.0171,-0.0087,-0.0088,-0.003,0.0,0.0,0.0,0.0,0.0,0.0,0.0,0.0,0.0,0.0,0.0,0.0,0.0,0.0,0.0,0.0,0.0,0.0,0.0,0.0,0.0,0.0,0.0,0.0,0.0,0.0,0.0,0.0,0.0,0.0,0.0,0.0,0.0,0.0,0.0,0.0,0.0,0.0,0.0,0.0,0.0,0.0,0.0,0.0,0.0,0.0,0.0,0.0,0.0,0.0,0.0,0.0,0.0,0.0,0.0,0.0,0.0,0.0,0.0,0.0,0.0,0.0,0.0,0.0,0.0,0.0,0.0,0.0,0.0,0.0,0.0,0.0,0.0,0.0,0.0,0.0,-1.3748,0.0,0.0,0.0,0.0,0.0,0.0,0.0,0.0,0.0,0.0,0.0,0.0,0.0,0.0,0.0,0.0,0.0,0.0,0.0,0.0,0.0,-0.1889,-0.1689,-0.1668,-0.1644,-0.1625,-0.1512,-0.1394,-0.1274,-0.116,0.0,0.0,0.0,-0.0757,-0.0757,-0.0464,-0.0296,-0.03,-0.0193,-0.0101,-0.0069,-0.0069,-0.0034,0.0,0.0,0.0,0.0,0.0,0.0,0.0,0.0,0.0,0.0,0.0,0.0,0.0,0.0,0.0,0.0,0.0,0.0,0.0,0.0,0.0,0.0,0.0,0.0,0.0,0.0,0.0,0.0,0.0,0.0,0.0,0.0,0.0,0.0,0.0,0.0,0.0,0.0,0.0,0.0,0.0,0.0,0.0,0.0,0.0,0.0,0.0,0.0,0.0,0.0,0.0,0.0,0.0,0.0,0.0,0.0,0.0,0.0,0.0,0.0,0.0,0.0,0.0,0.0,0.0,0.0,-1.6707,-1.6941,-1.6994,-1.7014,-1.6947,-1.5678,-1.5017,-1.4763,0.0,0.0,0.0,0.0,0.0,0.0,0.0,0.0,0.0,0.0,0.0,0.0,0.0,0.0,0.0,0.0,0.0,0.0,0.0,0.0,-0.3022,-0.3105,-0.3125,-0.3042,-0.2883,-0.2859,-0.2557,-0.1932,-0.1869,0.0,0.0,-0.1122,-0.1038,-0.1038,-0.0782,-0.0666,-0.0734,-0.0637,-0.0526,-0.0347,-0.0347,-0.023,0.0,0.0,0.0,0.0,0.0,0.0,0.0,0.0,0.0,0.0,0.0,0.0,0.0,0.0,0.0,0.0,0.0,0.0,0.0,0.0,0.0,0.0,0.0,0.0,0.0,0.0,0.0,0.0,0.0,0.0,0.0,0.0,0.0,0.0,0.0,0.0,0.0,0.0,0.0,0.0,0.0,0.0,0.0,0.0,0.0,-0.6436,-0.659,0.0,0.0,0.0,0.0,0.0,0.0,0.0,0.0,0.0,0.0,0.0,0.0,0.0,0.0,-1.6911,-1.7199,-1.7335,-1.7408,-1.7682,-1.7782,-1.7829,-1.8136,-1.8257,-1.823,-1.7776,0.0,-1.5992,-1.5364,0.0,0.0,0.0,0.0,0.0,0.0,0.0,0.0,0.0,0.0,0.0,0.0,0.0,0.0,0.0,0.0,0.0,0.0,0.0,0.0,0.0,-0.3758,-0.3828,-0.3721,-0.366,-0.3482,-0.3158,-0.2906,-0.2687,-0.2477,-0.2176,-0.1976,-0.1955,-0.1482,-0.121,-0.1087,-0.1228,-0.1157,-0.0776,-0.0654,-0.0449,-0.0204,-0.0078,0.0,0.0,0.0,0.0,0.0,0.0,0.0,0.0,0.0,0.0,0.0,0.0,0.0,0.0,0.0,0.0,0.0,0.0,0.0,0.0,0.0,0.0,0.0,0.0,0.0,0.0,0.0,0.0,0.0,0.0,0.0,0.0,0.0,0.0,0.0,0.0,0.0,0.0,0.0,0.0,0.0,0.0,-0.6247,-0.6719,-0.7041,-0.7078,-0.7078,0.0,0.0,0.0,0.0,0.0,0.0,0.0,0.0,0.0,-1.5113,-1.6267,-1.7242,-1.7903,-1.8357,-1.8584,-1.8591,-1.8724,-1.8791,-1.8798,-1.8925,-1.8891,-1.8724,-1.8597,-1.815,-1.7448,-1.652,-1.5959,-1.5645,0.0,0.0,0.0,0.0,0.0,-1.4626,0.0,0.0,0.0,0.0,0.0,0.0,0.0,0.0,0.0,0.0,0.0,0.0,-0.4136,-0.435,-0.4514,-0.4515,-0.4424,-0.4292,-0.4162,-0.3843,-0.3614,-0.3497,-0.3122,-0.2869,-0.282,-0.2389,-0.2029,-0.1822,-0.2038,-0.1924,-0.1455,-0.1113,-0.0814,-0.0471,-0.0214,-0.0082,0.0,0.0,0.0,0.0,0.0,0.0,0.0,0.0,0.0,0.0,0.0,0.0,0.0,0.0,0.0,0.0,0.0,0.0,0.0,0.0,0.0,0.0,0.0,0.0,0.0,0.0,0.0,0.0,0.0,0.0,0.0,0.0,0.0,0.0,0.0,0.0,0.0,0.0,0.0,0.0,0.0,-0.6695,-0.7082,-0.7495,-0.7577,-0.7647,0.0,0.0,0.0,0.0,0.0,0.0,-1.2207,-1.3378,-1.4815,-1.6576,-1.752,-1.8348,-1.8938,-1.9372,-1.9586,-1.9586,-1.9586,-1.9553,-1.9479,-1.9479,-1.9319,-1.9038,-1.9038,-1.8871,-1.8517,-1.7388,-1.68,-1.6569,-1.5685,-1.5524,0.0,-1.5157,-1.5157,-1.5444,0.0,0.0,0.0,0.0,0.0,0.0,0.0,0.0,0.0,0.0,0.0,-0.4766,-0.5014,-0.5221,-0.5362,-0.5432,-0.5329,-0.5055,0.0,-0.4423,-0.4176,-0.3791,-0.3563,-0.3468,-0.3442,-0.3377,-0.3271,-0.3201,-0.3134,-0.2886,-0.2411,-0.1967,-0.1386,-0.067,-0.0492,-0.0259,0.0,0.0,0.0,0.0,0.0,0.0,0.0,0.0,0.0,0.0,0.0,0.0,0.0,0.0,0.0,0.0,0.0,0.0,0.0,0.0,0.0,0.0,0.0,0.0,0.0,0.0,0.0,0.0,0.0,0.0,0.0,0.0,0.0,0.0,0.0,0.0,0.0,0.0,0.0,0.0,0.0,0.0,0.0,-0.7921,-0.8136,0.0,0.0,0.0,0.0,-0.9261,-1.0002,-1.135,-1.3492,-1.4748,-1.6275,-1.8195,-1.8924,-1.9562,-2.008,-2.0113,-2.0187,-2.0187,-2.0187,-2.0047,-1.978,-1.978,-1.9619,-1.9345,-1.9345,-1.9178,-1.8831,-1.7916,-1.7528,-1.7428,-1.6603,-1.6386,-1.6607,-1.6299,-1.6366,-1.658,0.0,0.0,0.0,-0.3983,-0.3792,-0.3747,-0.4024,-0.4034,-0.4119,-0.4487,-0.4711,-0.4948,-0.5247,-0.5498,-0.569,-0.5822,-0.5792,-0.5627,-0.5374,-0.5178,-0.4929,-0.464,-0.4415,-0.4241,-0.4219,-0.4455,-0.4489,-0.4318,-0.4361,-0.4042,-0.3401,-0.2777,-0.2107,-0.1391,-0.0852,-0.0487,-0.0259,-0.0083,0.0,0.0,0.0,0.0,0.0,0.0,0.0,0.0,0.0,0.0,0.0,0.0,0.0,0.0,0.0,0.0,0.0,0.0,0.0,0.0,0.0,0.0,0.0,0.0,0.0,0.0,0.0,0.0,0.0,0.0,0.0,0.0,0.0,0.0,0.0,0.0,0.0,0.0,0.0,0.0,0.0,-0.8411,-0.852,0.0,-0.8689,-0.8703,-0.9019,-0.9935,-1.0726,-1.2152,-1.4396,-1.5704,-1.7175,-1.8907,-1.9591,-2.0108,-2.0514,-2.0702,-2.0702,-2.0514,-2.0514,-2.0361,-2.0067,-1.9887,-1.974,-1.9633,-1.9446,-1.9305,-1.9165,-1.8657,-1.8223,-1.7809,-1.7159,-1.6951,-1.7005,-1.666,-1.6613,-1.6693,-0.5308,-0.4843,0.0,-0.4298,-0.399,-0.3877,-0.415,-0.4097,-0.4182,-0.4633,-0.4867,-0.5104,-0.544,-0.5701,-0.5939,-0.6095,-0.6023,-0.5929,-0.5813,-0.5576,-0.5402,-0.5216,-0.5094,-0.5021,-0.499,-0.5365,-0.5513,-0.537,-0.5357,-0.5055,-0.4387,-0.3715,-0.2957,-0.2153,-0.139,-0.0852,-0.0492,-0.0218,-0.0083,0.0,0.0,0.0,0.0,0.0,0.0,0.0,0.0,0.0,0.0,0.0,0.0,0.0,0.0,0.0,0.0,0.0,0.0,0.0,0.0,0.0,0.0,0.0,0.0,0.0,0.0,0.0,0.0,0.0,0.0,0.0,0.0,0.0,0.0,0.0,0.0,0.0,0.0,0.0,-0.8299,-0.8801,-0.895,-0.9055,-0.9157,-0.9198,-0.9627,-1.0476,-1.1475,-1.2977,-1.5098,-1.6509,-1.7948,-1.954,-2.0162,-2.0634,-2.0822,-2.1009,-2.1009,-2.0822,-2.0822,-2.0668,-2.0374,-2.008,-1.9893,-1.9786,-1.9492,-1.9424,-1.9345,-1.9045,-1.8635,-1.8229,-1.7689,-1.7388,-1.7326,-1.7074,-1.7001,-1.6987,-0.5717,-0.5241,-0.4775,-0.4639,-0.4228,-0.3968,-0.4175,-0.4097,-0.4182,-0.4636,-0.4945,-0.5214,-0.5562,-0.585,-0.6088,-0.6286,-0.6125,-0.5936,-0.582,-0.5681,-0.5573,-0.5423,-0.5617,-0.5727,-0.5727,-0.6124,-0.6331,-0.6334,-0.6201,-0.5905,-0.5416,-0.4701,-0.3851,-0.2911,-0.2153,-0.1436,-0.0718,-0.0493,-0.0263,0.0,0.0,0.0,0.0,0.0,0.0,0.0,0.0,0.0,0.0,0.0,0.0,0.0,0.0,0.0,0.0,0.0,0.0,0.0,0.0,0.0,0.0,0.0,0.0,0.0,0.0,0.0,0.0,0.0,0.0,0.0,0.0,0.0,0.0,0.0,0.0,0.0,-0.8012,-0.8445,-0.8835,-0.9193,-0.9435,-0.9618,-0.9629,-0.9829,-1.0305,-1.1057,-1.214,-1.3699,-1.5625,-1.7289,-1.8801,-2.01,-2.0736,-2.1109,-2.1109,-2.1109,-2.1109,-2.1109,-2.1109,-2.0962,-2.0681,-2.0381,-2.0087,-1.98,-1.9506,-1.943,-1.9345,-1.9058,-1.8931,-1.8865,-1.8222,-1.7862,-1.7595,-1.7589,-1.7582,-1.7542,-0.6099,-0.5734,-0.5323,-0.4966,-0.4513,-0.4217,-0.434,-0.4143,-0.4193,-0.4782,-0.4894,-0.5172,-0.5688,-0.5817,-0.5969,-0.6276,-0.6259,-0.6132,-0.5939,-0.5895,-0.5891,-0.5847,-0.6033,-0.6237,-0.641,-0.6642,-0.6764,-0.6862,-0.6684,-0.6438,-0.6121,-0.5413,-0.4656,-0.3896,-0.3002,-0.2196,-0.148,-0.0852,-0.049,-0.0263,-0.0084,0.0,0.0,0.0,0.0,0.0,0.0,0.0,0.0,0.0,0.0,0.0,0.0,0.0,0.0,0.0,0.0,0.0,0.0,0.0,0.0,0.0,0.0,0.0,0.0,0.0,0.0,0.0,0.0,0.0,0.0,0.0,0.0,0.0,-0.8153,-0.8526,-0.8526,-0.8818,-0.9181,-0.9588,-0.971,-0.9852,-1.0073,-1.0168,-1.064,-1.1768,-1.2582,-1.4093,-1.6502,-1.7797,-1.9045,-2.0418,-2.0862,-2.1109,-2.1109,-2.1109,-2.1109,-2.1109,-2.1109,-2.1069,-2.0982,-2.0688,-2.0394,-2.01,-1.9806,-1.9559,-1.9417,-1.9279,-1.9118,-1.8865,-1.8222,-1.7935,-1.7896,-1.7662,-1.7582,-1.7542,-0.6319,-0.5976,-0.5566,-0.5123,-0.4666,-0.4391,-0.4396,-0.4224,-0.426,-0.4762,-0.4901,-0.5162,-0.5572,-0.5728,-0.5874,-0.6088,-0.6201,-0.6211,-0.6059,-0.6166,-0.6235,-0.6235,-0.6433,-0.662,-0.6793,-0.69,-0.7014,-0.7095,-0.6966,-0.6789,-0.6567,-0.6035,-0.5458,-0.4701,-0.3851,-0.2957,-0.2062,-0.13,-0.0762,-0.0358,-0.0087,0.0,0.0,0.0,0.0,0.0,0.0,0.0,0.0,0.0,0.0,0.0,0.0,0.0,0.0,0.0,0.0,0.0,0.0,0.0,0.0,0.0,0.0,0.0,0.0,0.0,0.0,0.0,0.0,0.0,0.0,0.0,0.0,0.0,-0.8699,-0.9035,-0.9157,-0.9323,-0.9554,-0.988,-1.0025,-1.0171,-1.0351,-1.0426,-1.0886,-1.1888,-1.2731,-1.4197,-1.6467,-1.7641,-1.8932,-2.0361,-2.0736,-2.0982,-2.1109,-2.1109,-2.1109,-2.1109,-2.1109,-2.1109,-2.1096,-2.0808,-2.0514,0.0,-1.9927,-1.9633,-1.9424,-1.9424,-1.9265,0.0,0.0,0.0,0.0,0.0,-1.7582,-1.7555,-0.641,-0.6003,-0.5566,-0.5145,-0.4739,-0.4487,-0.4411,-0.4302,-0.4355,-0.4711,-0.4979,-0.5209,-0.5417,-0.5672,-0.581,-0.5808,-0.608,-0.6262,-0.6201,-0.6489,-0.6673,-0.6695,-0.683,-0.6936,-0.691,-0.7031,-0.7105,-0.7122,-0.7122,-0.7043,-0.6888,-0.6599,-0.6145,-0.5523,-0.475,-0.376,-0.2597,-0.1837,-0.1121,-0.0448,-0.018,-0.0044,0.0,0.0,0.0,0.0,0.0,0.0,0.0,0.0,0.0,0.0,0.0,0.0,0.0,0.0,0.0,0.0,0.0,0.0,0.0,0.0,0.0,0.0,0.0,0.0,0.0,0.0,0.0,0.0,0.0,0.0,0.0,0.0,-0.9161,-0.9534,-0.9832,-0.9886,-0.9947,-1.0021,-1.0331,-1.05,-1.0517,-1.0639,-1.1052,-1.178,-1.2692,-1.4058,-1.5949,0.0,0.0,0.0,0.0,-2.0736,-2.1109,-2.1109,-2.1109,-2.1109,-2.1109,-2.1109,-2.1102,-2.0842,-2.0568,-2.0267,-1.9973,-1.9686,-1.9412,-1.9379,-1.9383,-1.9276,-1.8698,-1.829,-1.7909,-1.7689,-1.7582,0.0,-0.627,-0.5954,-0.5523,-0.4954,-0.4653,-0.4487,-0.4411,-0.4426,-0.462,-0.5113,-0.5239,-0.5393,-0.5689,-0.5779,-0.5793,-0.5807,-0.6003,-0.6296,-0.6706,-0.7072,-0.7205,-0.7182,-0.7193,-0.7152,-0.7051,-0.7082,-0.72,-0.7326,-0.7326,-0.739,-0.7416,-0.7067,-0.6739,-0.6412,-0.5547,-0.461,-0.358,-0.2686,-0.1792,-0.0942,-0.0493,-0.0179,0.0,0.0,0.0,0.0,0.0,0.0,0.0,0.0,-0.0349,-0.0819,-0.0996,-0.1689,0.0,0.0,0.0,0.0,0.0,0.0,0.0,0.0,0.0,0.0,0.0,0.0,0.0,0.0,0.0,0.0,0.0,0.0,0.0,-0.9344,-0.9605,-0.9842,-1.0148,-1.029,-1.0375,-1.0402,-1.0456,-1.0541,-1.0663,-1.0704,-1.1118,-1.2111,-1.2626,-1.3927,-1.6278,-1.7184,0.0,-2.0017,-2.0412,-2.0736,-2.1109,-2.1109,-2.1109,-2.1109,0.0,0.0,-2.1109,-2.1049,-2.0869,-2.0575,-2.0281,-1.9987,-1.97,-1.9466,-1.9092,-1.8651,-1.8537,-1.8156,-1.7662,-1.7602,-1.7582,-1.7582,-0.6249,-0.582,-0.5385,-0.501,-0.4701,-0.4544,-0.4636,-0.4673,-0.4837,-0.5254,-0.5445,-0.5627,-0.5773,-0.5812,-0.5778,-0.5698,-0.6215,0.0,-0.7589,-0.788,-0.8004,-0.7937,-0.7683,-0.7461,-0.7323,-0.7187,-0.7217,-0.7415,-0.7415,-0.7451,-0.7597,-0.7383,-0.7161,-0.6919,-0.6253,-0.5365,-0.4318,-0.3229,-0.2172,-0.1211,-0.0628,-0.0224,0.0,0.0,0.0,0.0,0.0,0.0,0.0,-0.0168,-0.0531,-0.098,-0.1509,-0.227,-0.3094,0.0,0.0,0.0,0.0,0.0,0.0,0.0,0.0,0.0,0.0,0.0,0.0,0.0,0.0,-0.8041,-0.8421,0.0,-0.9283,-0.9656,-0.9903,-1.0131,-1.0354,-1.0449,-1.049,-1.049,-1.0561,-1.0636,-1.0714,-1.0721,-1.0982,-1.1714,-1.2103,-1.3214,-1.5364,-1.6078,-1.7442,-1.9514,-1.9896,-2.0412,-2.1109,-2.1109,-2.1109,-2.1109,-2.1109,-2.1109,-2.1109,-2.1109,-2.0949,-2.0661,-2.0361,-2.0067,-1.9766,-1.9325,-1.8885,-1.8477,-1.833,-1.7989,-1.7582,-1.7582,-1.7582,-1.7582,-0.6347,-0.5908,-0.5477,-0.5158,-0.482,-0.4657,-0.487,-0.4954,-0.5089,-0.5441,-0.5778,-0.6024,-0.6024,-0.5985,-0.5894,-0.5759,0.0,0.0,-0.8434,-0.8675,-0.8761,-0.8738,-0.8237,-0.7808,-0.7507,-0.7231,-0.7217,-0.7415,-0.7446,-0.7492,-0.7641,-0.7641,-0.7543,-0.73,-0.6847,-0.6026,-0.4963,-0.3791,-0.2609,-0.1444,-0.0808,-0.0314,0.0,0.0,0.0,0.0,0.0,0.0,-0.0043,-0.0303,-0.0674,-0.1176,-0.1947,-0.2784,-0.3647,-0.4345,-0.4742,0.0,0.0,0.0,0.0,0.0,0.0,0.0,0.0,-0.7319,-0.7746,-0.7804,-0.8218,-0.8635,-0.8845,-0.9303,-0.9707,-0.988,-1.0141,-1.0371,-1.0517,-1.0534,-1.0534,-1.0534,-1.0643,-1.0721,-1.0721,-1.0721,-1.0853,-1.1185,-1.1516,-1.2429,-1.4189,-1.4912,-1.6408,-1.8938,-1.9386,-2.0087,-2.1109,-2.1109,-2.1109,-2.1109,-2.1109,-2.1109,-2.1109,-2.1109,-2.0982,-2.0742,-2.0388,-2.0034,-1.9673,-1.9078,-1.8698,-1.8457,-1.8096,-1.7802,-1.7582,-1.7582,-1.7582,-1.7582,-0.6785,-0.6643,-0.6229,-0.526,-0.4964,-0.487,-0.489,-0.5115,-0.5473,-0.6018,-0.6487,-0.678,-0.678,-0.6631,-0.6445,-0.631,-0.6896,-0.7675,-0.8705,-0.9228,-0.9412,-0.9241,-0.8706,-0.8109,-0.7507,-0.7231,-0.7217,-0.7415,-0.7509,-0.7648,-0.7787,-0.7787,-0.7739,-0.7732,-0.7317,-0.6543,-0.5534,-0.4692,-0.3365,-0.1796,-0.1265,-0.0628,0.0,0.0,0.0,0.0,0.0,0.0,-0.0043,-0.0255,-0.083,-0.1624,-0.2269,-0.3333,-0.445,-0.4883,-0.5344,-0.5734,-0.5868,-0.6246,-0.663,-0.6923,-0.7272,-0.7499,0.0,-0.7862,-0.8269,-0.8533,-0.8747,-0.9015,-0.9432,-0.9666,-0.9893,-1.0181,-1.0365,-1.0521,-1.0673,-1.0694,-1.0694,-1.0694,-1.0711,-1.0721,-1.0721,-1.0721,-1.0853,-1.1185,-1.1247,-1.2037,-1.3875,-1.4586,-1.6078,-1.8472,-1.9252,-2.0087,-2.1109,-2.1109,-2.1109,-2.1109,-2.1109,-2.1109,-2.1109,-2.1109,-2.1089,-2.1029,-2.0474,-1.992,-1.943,-1.8784,-1.8517,-1.843,-1.7856,-1.7615,-1.7582,-1.7582,-1.7582,-1.7582,-0.7099,-0.7068,-0.6845,-0.6155,-0.5611,-0.5266,-0.5294,-0.5404,-0.5668,-0.6241,-0.6734,-0.7036,-0.7122,-0.6741,-0.6511,-0.6634,-0.7247,-0.8087,-0.9098,-0.9805,-1.0075,-0.983,-0.9402,-0.8767,-0.794,-0.7544,-0.7355,-0.7415,-0.7434,-0.7543,-0.7689,-0.7773,-0.7811,-0.7811,-0.755,-0.6985,-0.6122,-0.5228,-0.3939,-0.2405,-0.1755,-0.1077,-0.0403,-0.0399,-0.0397,-0.0353,-0.0087,0.0,0.0,-0.0373,-0.0926,-0.1639,-0.2496,-0.3611,-0.4643,-0.5167,-0.5765,-0.6261,-0.6546,-0.6771,-0.7004,-0.7388,-0.7695,-0.7879,-0.797,-0.8269,-0.8587,-0.8801,-0.9032,-0.9283,-0.9557,-0.9873,-1.0131,0.0,-1.0473,-1.0646,-1.0711,-1.0643,-1.0585,-1.0585,-1.0514,-1.0531,-1.0704,-1.0721,-1.0787,-1.092,-1.092,-1.1574,-1.3149,-1.3936,-1.5499,-1.8156,-1.8938,-1.9903,-2.1109,-2.1109,-2.1109,-2.1109,-2.1109,-2.1109,-2.1109,-2.1109,-2.0922,-2.0588,-2.0341,-1.9907,-1.939,-1.8918,-1.8644,-1.845,-1.8016,-1.7742,-1.7582,-1.7582,-1.7582,-1.7582,-0.7413,-0.7486,-0.7401,-0.693,-0.6253,-0.573,-0.5628,-0.5618,-0.5837,-0.6381,-0.6918,-0.7327,-0.744,-0.6987,-0.6692,-0.6851,-0.7426,-0.821,-0.9252,-0.9963,-1.0323,-1.0213,-0.9738,-0.9065,-0.8197,-0.7724,-0.7426,-0.7309,-0.7395,-0.7428,-0.7539,-0.7685,-0.7753,-0.7756,-0.7628,-0.7169,-0.6408,-0.567,-0.4453,-0.307,-0.2381,-0.1653,-0.0976,-0.0831,-0.0775,-0.0678,-0.0254,-0.0083,-0.0121,-0.0476,-0.0966,-0.1612,-0.2583,-0.3645,-0.4648,-0.5211,-0.5965,-0.6656,-0.7061,-0.725,-0.7432,-0.7845,-0.8082,-0.8252,-0.8367,-0.8587,-0.8815,-0.8967,-0.9171,-0.9378,-0.9574,-0.9907,-1.0181,-1.0266,-1.049,-1.0673,-1.0714,-1.0588,-1.049,-1.049,-1.0368,-1.0378,-1.0633,-1.0656,-1.0673,-1.0717,-1.0721,-1.131,-1.275,-1.3477,-1.5178,-1.7905,-1.8746,-1.9711,-2.1109,-2.1109,-2.1109,-2.1109,-2.1109,-2.1109,-2.1109,-2.1109,-2.0788,-2.0173,-2.0173,-1.9907,-1.9345,-1.9045,-1.8751,-1.8464,-1.8109,-1.7856,-1.7582,-1.7582,-1.7582,-1.7582,-0.7706,-0.7949,-0.799,-0.7385,-0.6772,-0.6186,-0.5677,-0.5723,-0.5991,-0.6534,-0.7235,-0.7717,-0.7877,-0.7509,-0.7182,-0.7009,-0.732,-0.7957,-0.9044,-0.9501,-0.9909,-1.0287,-0.9592,-0.888,-0.8197,-0.7724,-0.737,-0.7102,-0.7299,-0.7419,-0.7429,-0.7536,-0.7607,-0.7607,-0.7611,-0.713,-0.6399,-0.6048,-0.5027,-0.3638,-0.307,-0.239,-0.1608,-0.1173,-0.096,-0.0828,-0.0433,0.0,-0.0312,-0.0521,-0.0986,-0.1643,-0.2369,-0.3407,-0.4432,-0.4966,-0.5918,-0.6897,-0.7277,-0.7682,-0.8002,-0.8214,-0.8476,-0.8689,-0.8696,-0.8818,-0.8974,-0.9173,-0.921,-0.9309,-0.9554,-0.9734,-0.993,-1.0232,-1.0405,-1.0551,-1.07,-1.0588,-1.049,-1.049,-1.0368,-1.0337,0.0,-1.05,-1.0561,-1.0711,-1.0721,-1.131,-1.275,-1.3477,-1.5178,-1.7905,-1.8746,-1.9711,-2.1109,-2.1109,-2.1109,-2.1109,-2.1109,-2.1109,-2.1109,-2.1109,-2.0788,-2.0173,-2.0173,-1.9907,-1.9345,-1.9045,-1.8751,-1.8464,-1.8109,-1.7856,-1.7582,-1.7582,-1.7582,-1.7582,-0.8,-0.8088,-0.7975,-0.73,-0.6674,-0.6077,-0.5489,-0.5626,-0.5923,-0.629,-0.7128,0.0,0.0,0.0,0.0,0.0,-0.7584,-0.7996,-0.8667,-0.9289,-0.9701,-0.9826,-0.9472,-0.8869,-0.8106,-0.7655,-0.7286,-0.6957,-0.7051,-0.7126,-0.7221,-0.7377,-0.7448,-0.7451,-0.7553,-0.7309,-0.6796,-0.652,-0.5719,-0.4512,-0.3978,-0.3232,-0.238,-0.1807,-0.1503,-0.1291,0.0,-0.0407,-0.0327,-0.0464,-0.0912,-0.1526,-0.2328,-0.3357,-0.4462,-0.5722,-0.6438,-0.693,-0.7597,-0.7877,-0.8073,-0.8476,-0.8635,-0.8737,-0.8838,-0.8848,-0.8898,-0.9001,-0.9086,-0.9241,-0.9347,-0.9588,-0.9856,-0.9958,-1.0266,-1.051,-1.0561,-1.0524,-1.049,-1.049,-1.0368,0.0,-1.0477,0.0,0.0,-1.0707,-1.0721,-1.1247,-1.2367,-1.335,-1.4982,-1.726,-1.8489,-1.9647,-2.0736,-2.0982,-2.1109,-2.1109,-2.1109,-2.1109,-2.1102,-2.0909,-2.0608,-2.016,-2.0034,-1.9726,-1.9417,-1.9259,-1.8931,-1.8477,-1.8384,-1.8029,-1.7582,-1.7582,-1.7582,-1.7582,-0.8074,-0.8067,-0.7863,-0.7144,-0.6544,0.0,0.0,0.0,0.0,0.0,0.0,0.0,0.0,0.0,0.0,0.0,0.0,-0.7922,-0.8215,-0.8788,-0.9098,-0.9137,-0.8912,-0.8452,-0.7789,-0.7397,-0.7071,-0.6848,-0.6848,-0.6895,-0.6943,-0.7085,-0.7132,-0.7136,-0.7234,-0.709,-0.6738,-0.6602,-0.6019,-0.5155,-0.4696,-0.4008,-0.3209,-0.2464,-0.1943,0.0,-0.0848,-0.0499,-0.038,-0.0552,-0.0996,-0.1577,-0.2394,-0.3485,-0.4747,-0.6163,-0.6774,-0.7129,-0.7835,-0.8106,-0.8347,-0.8638,-0.875,-0.8804,-0.8849,-0.8804,-0.8842,-0.8788,-0.8849,-0.8985,-0.8984,-0.9276,-0.9557,-0.972,-1.0076,-1.0371,-1.0477,-1.049,-1.049,-1.049,-1.0368,-1.0337,-1.0477,-1.049,0.0,-1.0707,-1.0721,-1.1185,-1.2243,-1.3157,-1.4721,-1.6936,-1.8226,-1.945,-2.0609,-2.0919,-2.1109,-2.1109,-2.1109,-2.1109,-2.1096,-2.0808,-2.0514,-2.0221,-1.9927,-1.9633,-1.9424,-1.9424,-1.9018,-1.849,-1.849,-1.8123,-1.7582,-1.7582,-1.7582,-1.7582,-0.7999,-0.7918,-0.7691,0.0,0.0,0.0,0.0,0.0,0.0,0.0,0.0,0.0,0.0,0.0,0.0,0.0,0.0,0.0,-0.7828,-0.8038,-0.82,-0.8288,-0.7952,-0.7639,-0.7379,-0.6962,-0.672,-0.6668,-0.6675,-0.6681,-0.6688,-0.6698,-0.6698,-0.6688,-0.6688,-0.6564,-0.6312,-0.6312,-0.6019,-0.5563,-0.5175,-0.4692,-0.408,-0.3031,0.0,0.0,-0.0909,-0.0599,-0.0574,-0.0775,-0.1272,-0.1913,-0.2584,-0.3782,-0.5152,-0.6198,-0.6879,-0.7394,-0.7919,-0.8384,-0.8713,-0.872,-0.8825,-0.8834,-0.8743,-0.8706,-0.8655,-0.8503,-0.8472,-0.8516,-0.8662,-0.8818,-0.9016,-0.9513,-0.9785,-1.0088,-1.0439,-1.0493,-1.0504,0.0,-1.0385,-1.0354,-1.049,-1.0504,0.0,-1.0711,0.0,-1.1118,-1.2177,-1.289,-1.439,-1.6807,-1.7958,-1.9182,-2.0545,-2.0919,-2.1109,-2.1109,-2.1109,-2.1102,-2.1076,-2.0788,-2.0494,-2.0133,-1.9907,-1.9626,-1.9424,-1.9424,-1.9018,-1.849,-1.849,-1.8123,-1.7582,-1.7582,-1.7582,-1.7582,0.0,0.0,0.0,0.0,0.0,0.0,0.0,0.0,0.0,0.0,0.0,0.0,0.0,0.0,0.0,0.0,0.0,0.0,-0.8012,-0.7993,-0.7995,-0.7996,-0.7534,-0.7164,-0.6882,-0.6493,-0.6241,-0.6161,-0.6315,-0.6467,-0.6532,-0.6647,-0.6637,-0.6569,-0.6569,-0.6471,-0.6294,-0.6294,-0.6133,-0.5765,-0.5273,-0.4711,-0.4105,0.0,0.0,-0.1877,-0.1204,-0.1053,-0.118,-0.111,-0.1991,-0.3264,-0.4006,-0.4741,-0.5473,-0.6596,-0.71,-0.7456,-0.8292,-0.8625,-0.8737,-0.8797,-0.8825,-0.8757,-0.872,-0.8621,-0.8499,-0.8353,-0.8378,-0.8336,-0.8377,-0.8594,-0.8879,-0.9215,-0.9707,0.0,-1.0307,-1.0524,0.0,-1.0663,-1.0629,-1.0622,-1.066,-1.0663,0.0,0.0,-1.0721,-1.092,-1.1446,-1.2622,-1.3932,-1.5368,-1.7437,-1.8926,-1.9839,-2.0659,-2.1109,-2.1109,-2.1109,-2.0995,-2.0775,-2.0481,-2.0187,-1.9893,-1.9606,-1.9432,-1.9424,-1.9424,-1.9018,-1.849,-1.849,-1.8123,-1.7582,-1.7582,-1.7582,-1.7549,0.0,0.0,0.0,0.0,0.0,0.0,0.0,0.0,0.0,0.0,0.0,0.0,0.0,0.0,0.0,0.0,0.0,0.0,0.0,-0.7913,-0.7806,-0.77,-0.7085,-0.6693,-0.6573,-0.6131,-0.5893,-0.5928,-0.6017,-0.6139,-0.6179,-0.6264,-0.6261,-0.6176,-0.6176,-0.6132,-0.6098,-0.6098,-0.5982,0.0,0.0,0.0,0.0,0.0,0.0,-0.2066,-0.1436,-0.1528,-0.2,-0.234,-0.3276,-0.4422,-0.5226,-0.5723,-0.6153,-0.7094,-0.7516,-0.7788,-0.8518,-0.876,-0.8832,-0.8861,-0.8821,-0.8676,-0.8547,-0.8397,-0.8228,-0.8021,-0.7977,-0.7994,-0.8058,-0.8313,-0.8638,0.0,0.0,0.0,-1.0249,-1.0534,-1.0721,-1.0721,-1.0721,-1.0721,-1.0721,-1.0721,-1.0721,0.0,-1.0721,-1.0853,-1.1181,-1.2235,-1.3477,-1.4842,-1.6791,-1.8542,-2.0024,-2.0729,-2.1109,-2.1109,-2.1109,-2.0955,-2.0668,-2.0368,-2.0074,-1.9786,0.0,-1.9424,-1.9417,-1.9225,-1.8905,-1.8477,-1.8343,-1.8003,-1.7582,-1.7582,-1.7554,-1.74,0.0,0.0,0.0,0.0,0.0,0.0,0.0,0.0,0.0,-0.5211,-0.5523,-0.5868,-0.6288,-0.6725,0.0,0.0,0.0,0.0,0.0,0.0,-0.7665,-0.7382,-0.6665,-0.6302,-0.6331,-0.5819,-0.562,-0.5742,-0.5762,-0.5772,-0.5772,-0.5793,-0.5789,-0.5772,-0.5772,-0.5762,-0.5742,-0.5742,-0.5742,-0.5742,-0.5532,0.0,0.0,0.0,0.0,-0.2298,-0.1721,-0.2034,-0.2897,-0.3939,-0.4669,-0.5346,-0.6164,-0.6596,-0.6878,-0.755,-0.7927,-0.8206,-0.8585,-0.8835,-0.8878,-0.8858,-0.8794,-0.8604,-0.8306,-0.8119,-0.788,-0.7655,-0.7584,-0.7614,-0.7756,-0.8018,-0.8357,-0.8804,-0.9378,-0.9876,-1.0205,-1.0504,-1.0697,-1.0717,-1.0721,-1.0721,-1.0721,-1.0721,-1.0721,-1.0721,-1.0721,-1.085,-1.1118,-1.1912,-1.3157,-1.5038,-1.6413,-1.8226,-2.0539,-2.0856,-2.1046,-2.1109,-2.1069,-2.0902,-2.0608,-2.0314,-2.0013,-1.9726,0.0,0.0,-1.9345,-1.9045,-1.8751,-1.8464,-1.8109,-1.7856,-1.7582,-1.7582,-1.7454,-1.7159,0.0,0.0,0.0,0.0,0.0,0.0,0.0,0.0,0.0,0.0,0.0,0.0,0.0,0.0,0.0,0.0,0.0,0.0,0.0,0.0,0.0,-0.7169,-0.6543,-0.6119,-0.5917,-0.5602,-0.5446,-0.547,-0.5566,-0.5627,-0.563,-0.5745,-0.5739,-0.5627,-0.5627,-0.5555,-0.547,-0.547,-0.547,0.0,0.0,0.0,0.0,0.0,0.0,0.0,-0.2314,-0.2691,-0.3522,-0.4755,-0.5402,-0.5822,-0.6487,-0.6864,-0.7156,-0.783,-0.8082,-0.8229,-0.8716,-0.8861,-0.8854,-0.8781,-0.8635,-0.8445,-0.8147,-0.796,-0.7801,-0.7634,-0.7499,-0.7458,-0.7607,-0.7777,-0.8038,-0.8489,-0.9066,-0.9605,-0.9967,-1.0344,-1.0578,-1.0704,-1.0721,-1.0721,-1.0721,-1.0721,0.0,0.0,0.0,0.0,-1.0787,-1.178,-1.3481,-1.6148,-1.7254,-1.8606,-2.0144,-2.0539,-2.0862,-2.1109,-2.0869,-2.0595,-2.0301,-2.0007,-1.972,-1.9497,0.0,0.0,-1.9345,-1.9045,-1.8751,-1.8464,-1.8109,-1.7856,-1.7582,-1.7582,-1.7454,-1.7159,0.0,0.0,0.0,0.0,0.0,0.0,0.0,0.0,0.0,0.0,0.0,0.0,0.0,0.0,0.0,0.0,0.0,0.0,0.0,0.0,0.0,0.0,-0.6488,-0.6022,-0.5864,-0.5545,-0.5395,-0.5395,0.0,-0.5504,-0.5504,-0.5576,0.0,0.0,0.0,0.0,0.0,0.0,0.0,0.0,0.0,0.0,0.0,0.0,0.0,0.0,-0.271,-0.3093,-0.3846,-0.481,-0.5604,-0.6311,-0.707,-0.7369,-0.7544,-0.8057,-0.8272,-0.8375,-0.8703,-0.8821,-0.8848,-0.875,-0.8594,-0.8384,-0.8007,-0.7807,-0.7614,-0.7312,-0.7251,-0.7272,-0.7346,-0.7607,-0.7936,-0.8309,-0.8927,-0.9395,-0.9768,-1.0144,-1.0436,-1.0582,-1.067,-1.0721,-1.0721,-1.0721,-1.0721,0.0,0.0,0.0,-1.0721,-1.1905,-1.3411,-1.5364,-1.6737,-1.8092,-1.931,-2.0024,-2.0461,-2.0631,-2.0679,-2.0441,-2.0,-1.9867,-1.9639,-1.9424,0.0,0.0,-1.9332,-1.8885,-1.8617,-1.8444,-1.7983,-1.7716,-1.7582,-1.7582,-1.7301,-1.6901,0.0,0.0,0.0,0.0,0.0,0.0,0.0,0.0,-0.5026,-0.5354,-0.5395,-0.5404,-0.5414,-0.5747,0.0,0.0,0.0,0.0,0.0,0.0,0.0,0.0,0.0,-0.5914,-0.5841,0.0,0.0,-0.5395,-0.5395,0.0,0.0,0.0,0.0,0.0,0.0,0.0,0.0,0.0,0.0,0.0,0.0,0.0,0.0,0.0,0.0,0.0,0.0,-0.3484,-0.4139,-0.4816,-0.5666,-0.6596,-0.7386,-0.7733,-0.7865,-0.814,-0.8323,-0.8476,-0.8662,-0.8774,-0.8811,-0.8693,-0.855,-0.8319,-0.7868,-0.7655,-0.7431,-0.697,-0.6974,-0.7051,-0.7051,-0.7434,-0.7818,-0.8123,-0.8695,-0.9183,-0.9462,-0.99,-1.0249,-1.0426,-1.0578,0.0,-1.0717,-1.0721,0.0,0.0,0.0,0.0,-1.0787,-1.1967,-1.3079,-1.4124,-1.5694,-1.7125,-1.8349,-1.9312,-1.9947,-2.0185,-2.0425,-2.0247,-1.98,-1.9733,-1.9586,-1.9424,0.0,0.0,0.0,-1.8731,-1.849,-1.843,-1.7816,-1.7582,-1.7582,-1.7582,-1.7208,-1.6707,0.0,0.0,0.0,0.0,0.0,0.0,0.0,0.0,-0.5026,-0.5354,-0.5395,-0.5385,-0.5391,-0.5545,0.0,0.0,0.0,0.0,0.0,0.0,0.0,0.0,0.0,0.0,0.0,0.0,0.0,-0.5395,-0.5395,0.0,0.0,0.0,0.0,0.0,0.0,0.0,0.0,0.0,0.0,0.0,0.0,0.0,0.0,0.0,0.0,0.0,0.0,-0.4162,-0.4617,-0.5232,-0.5779,-0.633,-0.6974,-0.7435,-0.7845,-0.7961,-0.817,-0.835,-0.8632,-0.8618,-0.852,-0.8506,-0.8394,-0.817,-0.7723,-0.7502,-0.7305,-0.6993,-0.6896,-0.6906,-0.6906,-0.7204,-0.7509,-0.7807,-0.8241,-0.8696,-0.919,-0.9581,-0.9971,-1.0263,0.0,0.0,-1.0707,-1.0721,0.0,0.0,0.0,0.0,0.0,-1.1644,-1.2367,-1.3477,-1.452,-1.5884,-1.7571,-1.8364,-1.925,-2.0178,-1.9953,-1.9853,-1.9793,-1.9526,-1.9392,-1.9424,0.0,0.0,0.0,-1.8731,-1.849,-1.843,-1.7816,-1.7582,-1.7582,-1.7582,-1.7208,-1.6707,0.0,0.0,0.0,0.0,0.0,0.0,0.0,-0.5297,-0.5121,-0.5365,-0.5477,-0.5532,-0.5532,-0.5495,0.0,0.0,0.0,0.0,0.0,0.0,0.0,0.0,0.0,0.0,0.0,0.0,0.0,-0.5532,-0.5586,0.0,0.0,0.0,0.0,0.0,0.0,0.0,0.0,0.0,0.0,0.0,0.0,0.0,0.0,0.0,0.0,0.0,0.0,0.0,-0.5068,-0.5445,-0.5851,-0.627,-0.664,-0.6987,-0.736,-0.778,-0.8011,-0.8177,-0.8387,-0.8465,-0.8462,-0.8377,-0.8364,-0.8153,-0.7702,-0.7482,-0.7261,-0.6871,-0.6865,-0.6859,-0.6807,-0.7109,-0.7441,-0.7648,-0.7984,-0.837,-0.8825,-0.9273,-0.9669,-0.9968,-1.0293,0.0,0.0,0.0,0.0,0.0,0.0,0.0,0.0,-1.1251,-1.1776,-1.2437,-1.3674,-1.4912,-1.6213,-1.758,-1.864,-1.9296,-1.9633,-1.9713,-1.9539,-1.9419,-1.9424,-1.9424,0.0,0.0,0.0,-1.8657,-1.8384,-1.8183,-1.7749,-1.7582,-1.7582,-1.7582,-1.7208,-1.6707,0.0,0.0,0.0,0.0,0.0,0.0,-0.5612,-0.5254,-0.507,-0.5267,-0.5386,-0.5471,-0.5518,-0.546,-0.545,-0.5528,0.0,0.0,0.0,0.0,0.0,0.0,0.0,0.0,0.0,0.0,0.0,-0.5589,-0.5732,-0.58,0.0,0.0,0.0,0.0,0.0,0.0,0.0,0.0,0.0,0.0,0.0,0.0,0.0,0.0,0.0,0.0,0.0,0.0,0.0,0.0,0.0,-0.6265,-0.6461,-0.662,-0.6902,-0.7451,-0.7719,-0.7885,-0.8082,-0.8177,-0.8208,-0.815,-0.8102,-0.7977,-0.7614,-0.738,-0.7149,-0.6834,-0.6817,-0.6844,-0.678,-0.7061,-0.737,-0.7567,-0.7807,-0.813,-0.8581,-0.8991,-0.9378,-0.972,0.0,-1.0395,0.0,0.0,0.0,0.0,0.0,0.0,0.0,-1.092,-1.1251,-1.1582,-1.2828,-1.3979,-1.5151,-1.6715,-1.7913,-1.8581,-1.9205,-1.9501,-1.9424,-1.9424,-1.9424,0.0,0.0,0.0,0.0,-1.851,-1.8237,-1.7962,-1.7702,-1.7582,-1.7582,-1.7582,-1.7208,-1.6707,0.0,0.0,0.0,0.0,0.0,0.0,0.0,-0.5096,-0.4799,-0.5063,-0.5103,-0.5196,-0.5382,-0.5395,-0.5395,-0.5392,0.0,0.0,0.0,0.0,0.0,0.0,0.0,0.0,0.0,0.0,0.0,-0.5589,-0.5732,-0.58,-0.58,-0.58,0.0,0.0,0.0,0.0,0.0,0.0,0.0,0.0,0.0,0.0,0.0,0.0,0.0,0.0,0.0,0.0,0.0,0.0,0.0,0.0,0.0,-0.6515,-0.6566,-0.697,-0.7258,-0.7487,-0.7736,-0.7716,-0.7641,-0.778,-0.7709,-0.7567,-0.7456,-0.7146,-0.6889,-0.6883,-0.6807,-0.6749,-0.6856,-0.7001,-0.7196,-0.755,-0.7719,-0.797,-0.8421,-0.875,-0.9053,0.0,0.0,-1.0171,0.0,0.0,0.0,0.0,0.0,0.0,0.0,0.0,-1.0853,-1.1181,-1.1912,-1.3069,-1.4615,-1.5653,-1.6909,-1.8303,-1.8731,-1.9062,-1.9424,-1.9424,0.0,0.0,0.0,0.0,0.0,-1.8235,-1.7995,-1.7962,-1.7702,-1.7582,-1.7582,-1.7582,-1.7208,-1.6707,0.0,0.0,0.0,0.0,0.0,0.0,0.0,0.0,-0.4724,-0.4816,-0.4975,-0.5117,-0.5199,0.0,0.0,0.0,0.0,0.0,0.0,0.0,0.0,0.0,0.0,0.0,0.0,0.0,0.0,-0.5735,-0.6027,-0.6153,-0.6149,-0.6006,-0.5895,0.0,0.0,0.0,0.0,0.0,0.0,0.0,0.0,0.0,0.0,0.0,0.0,0.0,0.0,0.0,0.0,0.0,0.0,0.0,0.0,0.0,0.0,-0.6614,-0.6936,-0.7258,-0.7458,-0.7553,-0.7611,-0.7655,-0.7634,-0.7533,-0.7272,-0.7024,-0.6856,-0.6793,-0.6732,-0.6749,-0.6859,-0.7001,-0.7196,-0.755,-0.7638,-0.7858,-0.8404,-0.8747,0.0,-0.9412,-0.99,-1.0324,0.0,0.0,0.0,0.0,0.0,0.0,0.0,0.0,-1.063,-1.0695,-1.1605,-1.2491,-1.3387,-1.4861,-1.6132,-1.7035,-1.7836,-1.8286,-1.8402,-1.8615,0.0,0.0,0.0,0.0,0.0,-1.8069,-1.7869,-1.7716,-1.7622,-1.7582,-1.7555,-1.7414,-1.7041,-1.6673,0.0,0.0,0.0,0.0,0.0,0.0,0.0,0.0,-0.4655,-0.4684,-0.485,-0.4975,0.0,0.0,0.0,0.0,0.0,0.0,0.0,0.0,0.0,0.0,0.0,0.0,0.0,0.0,-0.5857,-0.5976,-0.6259,-0.6409,-0.6463,-0.6268,-0.6169,-0.6105,0.0,0.0,0.0,0.0,0.0,0.0,0.0,0.0,-0.6293,0.0,0.0,0.0,0.0,0.0,0.0,0.0,0.0,0.0,0.0,0.0,0.0,0.0,-0.6627,-0.6922,-0.7075,-0.7187,-0.7261,-0.7261,-0.7261,-0.721,-0.7017,-0.6861,-0.6746,-0.6709,-0.6702,-0.6749,-0.6859,-0.7001,-0.7196,-0.755,-0.76,-0.7807,-0.8397,0.0,0.0,-0.9571,0.0,0.0,0.0,0.0,0.0,0.0,0.0,0.0,0.0,0.0,-1.0385,-1.0327,-1.1148,-1.1869,-1.2507,-1.3858,-1.4978,-1.5932,-1.6659,-1.7172,-1.7426,0.0,0.0,0.0,0.0,0.0,0.0,-1.7654,-1.7602,-1.7483,-1.7582,-1.7515,-1.7454,-1.7266,-1.6945,-1.652,0.0,0.0,0.0,0.0,0.0,0.0,0.0,0.0,0.0,0.0,0.0,-0.4799,0.0,0.0,0.0,0.0,0.0,0.0,0.0,0.0,0.0,0.0,0.0,0.0,0.0,-0.5728,-0.5952,-0.63,-0.6443,-0.6552,-0.6698,-0.6546,-0.6443,-0.63,-0.5942,0.0,0.0,0.0,0.0,0.0,-0.63,-0.6293,0.0,0.0,0.0,0.0,0.0,0.0,0.0,0.0,0.0,0.0,0.0,0.0,0.0,0.0,0.0,0.0,0.0,-0.6685,-0.6702,-0.6702,-0.6702,-0.6698,-0.6685,-0.6573,0.0,-0.6654,-0.6695,-0.6749,-0.6859,-0.7001,-0.7196,-0.755,-0.76,-0.7807,0.0,-0.8642,0.0,0.0,-1.031,0.0,0.0,0.0,0.0,0.0,0.0,0.0,0.0,0.0,0.0,-0.9977,-1.0486,-1.1117,-1.1888,-1.2553,-1.3555,-1.4873,-1.5262,-1.5787,-1.6379,0.0,0.0,0.0,0.0,0.0,0.0,-1.6964,-1.712,-1.7173,-1.7404,-1.7336,-1.7148,-1.7101,-1.674,-1.6321,0.0,0.0,0.0,0.0,0.0,0.0,0.0,0.0,0.0,0.0,0.0,0.0,0.0,0.0,0.0,0.0,0.0,0.0,0.0,0.0,0.0,0.0,0.0,0.0,0.0,-0.5728,-0.5952,-0.63,-0.6443,-0.6552,-0.6698,-0.6546,-0.6494,-0.6443,-0.5986,0.0,0.0,0.0,0.0,0.0,-0.63,-0.619,0.0,0.0,0.0,0.0,-0.5813,-0.5823,0.0,0.0,0.0,0.0,0.0,0.0,0.0,0.0,-0.6323,-0.6358,-0.6392,0.0,-0.6702,-0.6702,-0.6702,-0.6671,0.0,-0.6538,-0.6521,-0.6559,-0.662,-0.6749,-0.6859,-0.7001,-0.7196,-0.755,-0.76,-0.7807,-0.8397,-0.891,0.0,-1.0148,0.0,0.0,0.0,0.0,0.0,0.0,0.0,0.0,0.0,0.0,0.0,-0.988,-0.9971,-1.04,-1.1092,-1.1756,-1.2341,-1.2895,-1.3568,-1.3995,-1.4169,0.0,0.0,0.0,0.0,0.0,0.0,-1.5856,-1.6158,-1.6518,-1.6338,-1.6529,-1.6793,-1.634,-1.6239,-1.6239,0.0,0.0,0.0,0.0,0.0,0.0,0.0,0.0,0.0,0.0,0.0,0.0,0.0,0.0,0.0,0.0,0.0,0.0,0.0,0.0,0.0,0.0,0.0,0.0,0.0,-0.5762,-0.6017,-0.6504,-0.6539,-0.6688,-0.6898,-0.6753,-0.6644,-0.6556,-0.6034,0.0,0.0,0.0,0.0,0.0,-0.6183,0.0,0.0,0.0,0.0,0.0,-0.5627,-0.5644,0.0,-0.58,-0.5871,-0.5939,0.0,0.0,0.0,0.0,-0.6088,-0.6102,-0.6135,-0.6369,-0.6597,-0.6597,-0.6647,-0.6661,-0.6549,-0.6511,-0.6494,-0.6429,-0.6549,-0.6725,-0.681,-0.7054,-0.7326,-0.756,-0.7712,0.0,0.0,0.0,-0.9656,-1.012,0.0,0.0,0.0,0.0,0.0,0.0,0.0,0.0,0.0,0.0,0.0,0.0,-0.9758,-0.9995,-1.0547,-1.091,-1.1294,-1.1694,-1.2128,-1.2395,-1.2497,0.0,0.0,0.0,0.0,0.0,-1.4099,-1.4696,-1.5062,-1.537,-1.5594,-1.5908,-1.6111,-1.5937,-1.5985,-1.6046,0.0,0.0,0.0,0.0,0.0,0.0,0.0,0.0,0.0,0.0,0.0,0.0,0.0,0.0,0.0,0.0,0.0,0.0,0.0,0.0,0.0,0.0,0.0,0.0,-0.5793,-0.58,-0.6098,-0.6702,-0.6702,-0.6851,-0.7092,-0.6927,-0.6787,-0.6576,-0.6064,0.0,0.0,0.0,0.0,0.0,-0.6091,0.0,0.0,0.0,0.0,0.0,0.0,0.0,0.0,-0.5583,-0.5671,-0.5772,-0.5793,0.0,0.0,0.0,0.0,0.0,-0.5949,-0.6244,-0.6518,-0.6542,-0.6603,-0.6671,-0.6566,-0.6562,-0.6515,-0.6392,-0.6546,-0.6742,-0.6763,-0.7099,-0.7438,-0.7634,0.0,0.0,-0.9115,-0.9398,-0.9693,0.0,0.0,0.0,0.0,0.0,0.0,0.0,0.0,0.0,0.0,0.0,0.0,0.0,-0.9649,-0.9751,-1.0173,-1.0173,-1.0408,-1.0812,-1.0844,-1.0963,-1.1116,-1.1199,0.0,0.0,0.0,0.0,-1.2309,-1.3313,-1.3827,-1.4055,-1.4827,-1.5253,-1.5385,-1.5677,-1.5798,-1.5784,0.0,0.0,0.0,0.0,0.0,0.0,0.0,0.0,0.0,0.0,0.0,0.0,0.0,0.0,0.0,0.0,0.0,0.0,0.0,0.0,0.0,0.0,0.0,-0.5532,-0.5793,-0.58,-0.6098,-0.6702,-0.6702,-0.6851,-0.7092,-0.6861,-0.6519,-0.6091,-0.5996,-0.5956,-0.5956,0.0,0.0,-0.6286,-0.6091,0.0,0.0,0.0,0.0,0.0,0.0,0.0,0.0,-0.5545,-0.5603,-0.5644,-0.5766,0.0,0.0,0.0,0.0,0.0,-0.5949,-0.6244,-0.6545,-0.6634,-0.6681,-0.6729,-0.6834,-0.6759,-0.6661,-0.6637,-0.6773,-0.6886,-0.7007,-0.7238,-0.7502,-0.7857,0.0,-0.8737,0.0,0.0,0.0,0.0,0.0,0.0,0.0,0.0,0.0,0.0,0.0,0.0,0.0,0.0,0.0,0.0,0.0,-0.9483,-0.9566,-0.9566,-0.9555,-0.9644,-0.9799,-0.982,-0.9878,-1.0302,-1.05,0.0,0.0,0.0,-1.1328,-1.1594,-1.2201,-1.2878,-1.3316,-1.4017,-1.4863,-1.5126,-1.5491,-1.5784,0.0,0.0,0.0,0.0,0.0,0.0,0.0,0.0,0.0,0.0,0.0,0.0,0.0,0.0,0.0,0.0,0.0,0.0,0.0,0.0,0.0,0.0,-0.5593,-0.5664,-0.5796,-0.5962,-0.6264,-0.6702,-0.6783,-0.6889,-0.7088,-0.6837,-0.6505,-0.6149,-0.603,-0.5993,-0.5993,-0.5993,-0.6118,-0.6279,0.0,0.0,0.0,0.0,0.0,0.0,0.0,0.0,0.0,0.0,-0.5501,-0.5511,-0.5576,0.0,0.0,0.0,0.0,0.0,-0.5844,-0.6129,-0.6474,-0.6746,-0.6881,-0.6893,-0.6886,-0.6832,-0.68,-0.6719,-0.6885,-0.7018,-0.7085,-0.7397,-0.7756,-0.8208,0.0,-0.8842,-0.9222,0.0,0.0,0.0,0.0,0.0,0.0,0.0,0.0,0.0,0.0,0.0,0.0,0.0,0.0,0.0,0.0,-0.9316,-0.9316,-0.9181,-0.9181,-0.9313,-0.9355,-0.9335,-0.9255,-0.9466,-0.9541,0.0,0.0,-0.995,-1.0101,-1.051,-1.1054,-1.1662,-1.238,-1.3171,-1.3932,-1.4641,-1.5029,-1.5261,0.0,0.0,0.0,0.0,0.0,0.0,0.0,0.0,0.0,0.0,0.0,0.0,0.0,0.0,0.0,0.0,0.0,0.0,0.0,0.0,0.0,0.0,-0.5725,-0.582,-0.5854,-0.616,-0.6446,-0.6702,-0.6854,-0.6923,-0.6987,-0.677,-0.6508,-0.6293,-0.6135,-0.6084,-0.6084,-0.6084,-0.6152,-0.6272,0.0,0.0,0.0,0.0,0.0,0.0,0.0,0.0,0.0,0.0,0.0,0.0,0.0,0.0,0.0,-0.5395,-0.5395,-0.546,-0.5722,-0.6,-0.6315,-0.6763,-0.6964,-0.7088,-0.7051,-0.7058,-0.7007,-0.6929,-0.7092,-0.7213,-0.7247,-0.7665,0.0,-0.8425,-0.8638,-0.8896,0.0,0.0,0.0,0.0,0.0,0.0,0.0,0.0,0.0,0.0,0.0,0.0,0.0,0.0,0.0,0.0,0.0,0.0,-0.9103,-0.8994,-0.8994,-0.9103,-0.9103,-0.9045,-0.8881,-0.8848,-0.8831,-0.8876,-0.8993,-0.903,-0.9069,-0.965,-1.0065,-1.0534,-1.1489,-1.2314,-1.3141,-1.4058,-1.4442,-1.4586,0.0,0.0,0.0,0.0,0.0,0.0,0.0,0.0,0.0,0.0,0.0,0.0,0.0,0.0,0.0,0.0,0.0,0.0,0.0,0.0,0.0,0.0,0.0,-0.5867,-0.5973,-0.6176,-0.6446,-0.6702,-0.6854,-0.6861,-0.6729,-0.6566,-0.6446,-0.63,-0.6286,-0.6282,-0.6282,-0.6282,-0.6289,-0.6272,-0.5925,0.0,0.0,0.0,0.0,0.0,0.0,0.0,0.0,0.0,0.0,0.0,0.0,0.0,-0.5395,-0.5395,-0.5395,-0.546,-0.5722,-0.5922,-0.6118,-0.6603,-0.6889,-0.7169,-0.7489,-0.7441,-0.7377,-0.7509,-0.7553,-0.7607,-0.774,-0.813,-0.8445,-0.8476,-0.873,0.0,0.0,0.0,0.0,0.0,0.0,0.0,0.0,0.0,0.0,0.0,0.0,0.0,0.0,0.0,0.0,0.0,0.0,0.0,-0.8898,-0.8888,-0.8888,-0.8898,-0.8898,-0.8895,-0.8878,-0.8791,-0.8726,-0.8716,-0.8617,-0.8552,-0.8538,-0.8756,-0.9089,-0.9669,-1.0302,-1.1443,-1.278,-1.3366,-1.3757,-1.4004,0.0,0.0,0.0,0.0,0.0,0.0,0.0,0.0,0.0,0.0,0.0,0.0,0.0,0.0,0.0,0.0,0.0,0.0,0.0,0.0,0.0,0.0,0.0,-0.6056,-0.6169,-0.6342,-0.6487,-0.6559,-0.6712,-0.6709,-0.6556,-0.6538,-0.6436,-0.63,-0.63,-0.63,-0.63,-0.63,-0.6245,-0.6098,-0.5884,-0.5749,0.0,0.0,0.0,0.0,0.0,0.0,0.0,0.0,-0.5098,-0.5216,-0.5216,-0.5284,-0.5395,-0.5395,-0.5395,-0.546,-0.5722,-0.5915,-0.6101,-0.6586,-0.6922,-0.7149,-0.7411,-0.7414,-0.7414,-0.7567,-0.7672,-0.7777,-0.7877,-0.817,-0.8381,-0.8469,-0.8659,0.0,0.0,0.0,0.0,0.0,0.0,0.0,0.0,0.0,0.0,0.0,0.0,0.0,0.0,0.0,0.0,0.0,0.0,0.0,0.0,-0.8885,-0.8838,-0.8798,-0.8838,-0.8834,-0.8794,-0.8737,-0.8659,-0.856,-0.8414,-0.8402,-0.8388,-0.8487,-0.8721,-0.9114,-0.9846,-1.0605,-1.1331,-1.1868,-1.2257,-1.2554,0.0,0.0,0.0,0.0,0.0,0.0,0.0,0.0,0.0,0.0,0.0,0.0,0.0,0.0,0.0,0.0,0.0,0.0,0.0,0.0,0.0,0.0,0.0,-0.6205,-0.6394,-0.6536,-0.6606,-0.6595,-0.662,-0.6573,-0.6511,-0.6467,-0.6395,-0.6296,-0.6248,-0.6186,-0.6183,-0.6173,-0.6054,-0.5909,-0.5793,-0.5677,0.0,0.0,0.0,0.0,0.0,0.0,0.0,0.0,-0.4914,-0.5039,-0.5083,-0.5203,-0.533,-0.5382,-0.5429,-0.5521,-0.5735,-0.5949,-0.621,-0.6661,-0.6913,-0.7162,-0.7455,-0.7509,-0.7553,-0.7706,-0.7818,-0.7916,-0.7971,-0.8167,0.0,0.0,0.0,0.0,0.0,0.0,0.0,0.0,0.0,0.0,0.0,0.0,0.0,0.0,0.0,0.0,0.0,0.0,0.0,0.0,0.0,0.0,0.0,-0.8818,-0.8743,-0.8638,-0.8743,-0.874,-0.8635,-0.8591,-0.8516,-0.8408,-0.8262,-0.8197,-0.8191,-0.8232,-0.8432,-0.8726,-0.9476,-0.9875,-1.0068,-1.0511,-1.09,-1.134,0.0,0.0,0.0,0.0,0.0,0.0,0.0,0.0,0.0,0.0,0.0,0.0,0.0,0.0,0.0,0.0,0.0,0.0,0.0,0.0,0.0,0.0,0.0,-0.6247,-0.6591,-0.6809,-0.6878,-0.6795,-0.6588,-0.6508,-0.6504,-0.6364,-0.6296,-0.6293,-0.6098,-0.5993,-0.5983,-0.5867,-0.58,-0.5786,-0.5647,-0.5589,-0.5555,0.0,0.0,0.0,0.0,0.0,0.0,0.0,-0.4792,-0.4911,-0.5052,-0.5096,-0.513,-0.5347,-0.5504,-0.5623,-0.5766,-0.6027,-0.6409,-0.6817,-0.6994,-0.7216,-0.7709,-0.7811,-0.7855,-0.7958,-0.7988,-0.7988,-0.7988,-0.8167,0.0,0.0,0.0,0.0,0.0,0.0,0.0,0.0,0.0,0.0,0.0,0.0,0.0,0.0,0.0,0.0,0.0,0.0,0.0,0.0,0.0,0.0,0.0,-0.8557,-0.8482,-0.8479,-0.8479,-0.8479,-0.8476,-0.8385,-0.8323,-0.831,-0.8106,-0.7988,-0.7988,-0.7988,-0.8137,-0.8432,-0.8985,-0.9187,-0.9232,-0.948,-0.992,-1.0462,0.0,0.0,0.0,0.0,0.0,0.0,0.0,0.0,0.0,0.0,0.0,0.0,0.0,0.0,0.0,0.0,0.0,0.0,0.0,0.0,0.0,0.0,0.0,0.0,0.0,0.0,-0.6881,-0.6448,-0.63,-0.6211,-0.6159,-0.6118,-0.6156,-0.6293,-0.6098,-0.5993,-0.5983,-0.5867,-0.5742,-0.565,-0.5606,-0.5559,-0.544,0.0,0.0,0.0,0.0,0.0,0.0,0.0,0.0,0.0,-0.4904,-0.5019,-0.513,-0.5347,-0.5504,-0.5644,-0.5895,-0.6108,-0.6433,-0.69,-0.719,-0.739,-0.7733,-0.7811,-0.7855,-0.7958,-0.7988,-0.7988,-0.7988,-0.8025,0.0,0.0,0.0,0.0,0.0,0.0,0.0,0.0,0.0,0.0,0.0,0.0,0.0,0.0,0.0,0.0,0.0,0.0,0.0,0.0,0.0,0.0,0.0,0.0,-0.8431,-0.8333,-0.8333,-0.8333,-0.8333,-0.834,-0.8211,-0.8106,-0.8008,-0.7988,-0.7988,-0.7988,-0.8038,-0.8137,-0.829,-0.834,-0.8386,-0.8634,-0.908,-0.9628,0.0,0.0,0.0,0.0,0.0,0.0,0.0,0.0,0.0,0.0,-0.4573,-0.4593,0.0,0.0,0.0,0.0,0.0,0.0,0.0,0.0,0.0,0.0,0.0,0.0,0.0,-0.7364,-0.7078,0.0,0.0,-0.6035,-0.5939,-0.5939,-0.5989,-0.6108,-0.5922,-0.582,-0.5752,-0.5599,-0.5484,-0.5406,-0.5406,-0.5389,-0.5378,0.0,0.0,0.0,0.0,0.0,0.0,0.0,0.0,0.0,-0.4779,-0.4928,-0.5046,-0.5226,-0.546,-0.5725,-0.5929,-0.6227,-0.6563,-0.7099,-0.7346,-0.7539,-0.7834,-0.7902,-0.788,-0.7971,-0.7988,-0.7988,-0.7988,-0.7988,0.0,0.0,0.0,0.0,0.0,0.0,0.0,0.0,0.0,0.0,0.0,0.0,0.0,0.0,0.0,0.0,0.0,0.0,0.0,0.0,0.0,0.0,0.0,0.0,0.0,-0.8177,-0.8177,-0.8177,-0.8177,-0.8177,-0.813,-0.7988,-0.7988,-0.7988,-0.7988,-0.7988,-0.7988,-0.7988,-0.7988,-0.7988,-0.8041,-0.8184,-0.8584,-0.908,0.0,0.0,-0.4632,-0.4519,0.0,0.0,0.0,0.0,0.0,-0.4491,-0.4491,-0.4491,0.0,0.0,0.0,-0.4491,0.0,0.0,0.0,0.0,0.0,0.0,0.0,0.0,0.0,0.0,0.0,0.0,0.0,-0.5987,-0.5783,-0.5783,-0.5789,-0.5793,-0.5654,-0.5539,-0.5385,-0.5196,-0.5093,-0.5079,-0.5079,-0.5196,-0.5341,-0.5165,0.0,0.0,0.0,0.0,0.0,0.0,0.0,0.0,-0.4672,-0.4785,-0.4897,-0.5052,-0.544,-0.582,-0.5966,-0.6369,-0.681,-0.7275,-0.7516,-0.7709,-0.7928,-0.7988,-0.7988,-0.7988,-0.7988,-0.7988,-0.7988,-0.7988,0.0,0.0,0.0,0.0,0.0,0.0,0.0,0.0,0.0,0.0,0.0,0.0,0.0,0.0,0.0,0.0,0.0,0.0,0.0,0.0,0.0,0.0,0.0,0.0,0.0,0.0,-0.7988,-0.7988,-0.7988,-0.7988,-0.7988,-0.7988,-0.7988,-0.7988,-0.7988,-0.7988,-0.7988,-0.7988,-0.7988,-0.7988,-0.7988,-0.7988,-0.8333,-0.8775,0.0,0.0,-0.4546,-0.4519,0.0,0.0,0.0,0.0,-0.4491,-0.4491,-0.4491,-0.4491,-0.4491,-0.4491,0.0,-0.4491,-0.4491,0.0,0.0,0.0,0.0,0.0,0.0,0.0,0.0,0.0,0.0,0.0,0.0,-0.5992,-0.5637,-0.5637,-0.5694,-0.5793,-0.5654,-0.5539,-0.5385,-0.5196,-0.5036,-0.4935,-0.4935,-0.4986,-0.5009,-0.4948,-0.487,0.0,0.0,0.0,0.0,0.0,0.0,0.0,-0.4672,-0.4714,-0.4792,-0.5022,-0.5369,-0.5722,-0.6146,-0.6451,-0.6837,-0.7407,-0.775,-0.7914,-0.7975,-0.7988,-0.7988,-0.7988,-0.7988,-0.7988,-0.7988,0.0,0.0,0.0,0.0,0.0,0.0,0.0,0.0,0.0,0.0,0.0,0.0,0.0,0.0,0.0,0.0,0.0,0.0,0.0,0.0,0.0,0.0,0.0,-0.8089,-0.8005,-0.7988,0.0,-0.7988,-0.7988,-0.7988,-0.7988,-0.7988,-0.7988,-0.7988,-0.7988,-0.7988,-0.7988,-0.7988,-0.7988,-0.7988,-0.7988,-0.7988,-0.7988,-0.8187,-0.8482,0.0,0.0,0.0,0.0,0.0,0.0,0.0,0.0,-0.4491,-0.4491,-0.4491,-0.4491,-0.4491,-0.4491,0.0,0.0,-0.4491,-0.4491,0.0,0.0,0.0,0.0,0.0,0.0,0.0,0.0,0.0,0.0,-0.6397,-0.5917,-0.5515,-0.5515,-0.5552,-0.562,-0.5545,-0.5392,-0.5145,-0.5064,-0.4914,-0.4809,-0.4809,-0.4853,-0.4881,-0.484,-0.4762,-0.468,-0.4638,0.0,0.0,0.0,0.0,0.0,0.0,0.0,-0.4721,-0.4874,-0.5186,-0.5597,-0.5975,-0.6308,-0.6753,-0.7431,-0.7821,-0.7988,-0.7988,-0.7988,-0.7988,-0.7988,-0.7988,-0.7988,0.0,0.0,0.0,0.0,0.0,0.0,0.0,0.0,0.0,0.0,0.0,0.0,0.0,0.0,0.0,0.0,0.0,0.0,0.0,0.0,0.0,0.0,0.0,0.0,-0.7988,-0.7988,-0.7988,-0.7988,-0.7988,-0.7988,-0.7988,-0.7988,-0.7988,-0.7988,-0.7988,-0.7988,-0.7988,-0.7988,-0.7988,-0.7988,-0.7988,-0.7988,-0.7988,-0.7988,-0.8187,-0.8382,0.0,0.0,0.0,0.0,0.0,0.0,0.0,0.0,0.0,-0.4491,-0.4491,-0.4491,-0.4491,-0.4491,-0.4491,0.0,0.0,0.0,-0.4491,0.0,0.0,0.0,0.0,0.0,0.0,0.0,0.0,-0.6798,-0.6365,-0.5885,-0.5428,-0.5423,-0.5446,-0.547,-0.5446,-0.5237,-0.4924,-0.4897,-0.4816,-0.4653,-0.4653,-0.4728,-0.4826,-0.4701,-0.4653,-0.4662,-0.4535,-0.4491,-0.4491,-0.4491,0.0,0.0,0.0,0.0,-0.4657,-0.4684,-0.5003,-0.5388,-0.5677,-0.6149,-0.6712,-0.739,-0.7784,-0.7958,-0.7985,-0.7988,-0.7988,-0.7988,-0.7988,-0.7988,0.0,0.0,0.0,0.0,0.0,0.0,0.0,0.0,0.0,0.0,0.0,0.0,0.0,0.0,0.0,0.0,0.0,0.0,0.0,0.0,0.0,0.0,0.0,-0.7988,-0.7988,-0.7988,-0.7988,-0.7988,-0.7988,-0.7988,-0.7988,-0.7988,-0.7988,-0.7988,-0.7988,-0.7988,-0.7988,-0.7988,-0.7988,-0.7988,-0.7988,-0.7988,-0.7988,-0.7988,-0.8137,-0.8333,0.0,0.0,0.0,0.0,0.0,0.0,0.0,0.0,0.0,0.0,-0.4491,-0.4491,-0.4491,-0.4491,-0.4491,-0.4491,-0.4491,-0.4491,0.0,0.0,0.0,0.0,0.0,0.0,0.0,0.0,0.0,-0.6798,-0.6462,-0.6017,-0.5568,-0.5566,-0.5627,-0.5739,-0.5613,-0.5389,-0.5063,-0.4941,-0.4755,-0.4522,-0.4522,-0.4532,-0.4549,-0.4528,-0.4522,-0.4518,-0.4498,-0.4491,-0.4491,-0.4491,-0.4491,0.0,0.0,0.0,0.0,-0.4653,-0.4826,-0.507,-0.5501,-0.623,-0.6953,-0.7312,-0.7624,-0.7875,-0.7961,-0.7988,-0.7988,0.0,-0.7988,0.0,0.0,0.0,0.0,0.0,0.0,0.0,0.0,0.0,0.0,0.0,0.0,0.0,0.0,0.0,0.0,0.0,0.0,0.0,0.0,0.0,-0.7988,-0.7988,-0.7988,0.0,-0.7988,-0.7988,-0.7988,-0.7988,-0.7988,-0.7988,-0.7988,-0.7988,-0.7988,-0.7988,-0.7988,-0.7988,-0.7988,-0.7988,-0.7988,-0.7988,-0.7988,-0.7988,-0.7988,-0.7988,-0.8038,-0.8038,0.0,0.0,0.0,0.0,0.0,0.0,0.0,0.0,0.0,0.0,0.0,-0.4491,-0.4491,-0.4491,-0.4491,-0.4491,-0.4491,0.0,0.0,0.0,0.0,0.0,0.0,0.0,0.0,0.0,-0.7732,-0.6969,-0.6395,-0.6018,-0.5837,-0.5828,-0.5823,-0.5793,-0.5654,-0.5467,-0.5243,-0.5016,-0.4792,-0.4617,-0.4617,-0.4617,-0.4627,-0.4684,-0.4718,-0.4707,-0.4648,-0.4617,-0.4604,-0.4518,-0.4491,-0.4491,-0.4491,0.0,0.0,0.0,-0.467,-0.4908,-0.5447,-0.6061,-0.6647,-0.7027,-0.7346,-0.7628,-0.7858,-0.7913,-0.7887,-0.7971,0.0,0.0,0.0,0.0,0.0,0.0,0.0,0.0,0.0,0.0,0.0,0.0,0.0,0.0,0.0,0.0,0.0,0.0,0.0,0.0,-0.7988,-0.7988,-0.7988,-0.7988,-0.7988,0.0,-0.7988,-0.7988,-0.7988,-0.7988,-0.7988,-0.7988,-0.7988,-0.7988,-0.7988,-0.7988,-0.7988,-0.7988,-0.7988,-0.7988,-0.7988,-0.7988,-0.7988,-0.7988,-0.7988,-0.7988,-0.7988,-0.7988,0.0,0.0,0.0,0.0,0.0,0.0,0.0,0.0,0.0,0.0,0.0,-0.4491,-0.4491,0.0,0.0,0.0,-0.4491,0.0,0.0,0.0,0.0,0.0,0.0,0.0,0.0,0.0,-0.7648,-0.7112,-0.6397,-0.6032,-0.6002,-0.5958,-0.5952,-0.5911,-0.5806,-0.5668,-0.5436,-0.5142,-0.4921,-0.4752,-0.4789,-0.4802,-0.4819,-0.4972,-0.5033,-0.5013,-0.4857,-0.4802,-0.4772,-0.461,-0.4549,-0.4542,-0.4501,-0.4491,0.0,0.0,0.0,-0.4806,-0.5332,-0.5776,-0.6245,-0.6692,-0.7037,-0.7336,-0.7631,-0.7756,-0.7841,0.0,0.0,0.0,0.0,0.0,0.0,0.0,0.0,0.0,0.0,0.0,0.0,0.0,0.0,0.0,0.0,0.0,0.0,0.0,0.0,0.0,-0.7988,-0.7988,-0.7988,-0.7988,-0.7988,-0.7988,-0.7988,-0.7988,-0.7988,-0.7988,-0.7988,-0.7988,-0.7988,-0.7988,-0.7988,-0.7988,-0.7988,-0.7988,-0.7988,-0.7988,-0.7988,-0.7988,-0.7988,-0.7988,-0.7988,-0.7988,-0.7988,-0.7988,0.0,0.0,0.0,0.0,0.0,0.0,0.0,0.0,0.0,0.0,0.0,-0.4491,-0.4491,-0.4491,-0.4491,-0.4491,-0.4491,0.0,0.0,0.0,0.0,0.0,0.0,0.0,0.0,-0.7639,-0.7521,-0.7112,-0.6489,-0.6129,-0.5999,-0.5881,-0.5966,-0.6276,-0.6269,-0.6023,-0.5566,-0.544,-0.5172,-0.4887,-0.5022,-0.5076,-0.5093,-0.5313,-0.5371,-0.5351,-0.5162,-0.5076,-0.5032,-0.4775,-0.4677,-0.4653,-0.4535,-0.4491,-0.4491,0.0,0.0,0.0,-0.5039,-0.5386,-0.5766,-0.6388,-0.6725,-0.7031,-0.7326,0.0,0.0,0.0,0.0,0.0,0.0,0.0,0.0,0.0,0.0,0.0,0.0,0.0,0.0,0.0,0.0,0.0,0.0,0.0,0.0,0.0,0.0,0.0,-0.7988,-0.7988,-0.7988,-0.7988,-0.7988,-0.7988,-0.7988,-0.7988,-0.7988,-0.7988,-0.7988,-0.7988,-0.7988,-0.7988,-0.7988,-0.7988,-0.7988,-0.7988,-0.7988,-0.7988,-0.7988,-0.7988,-0.7988,-0.7988,-0.7988,-0.7988,-0.7988,-0.7988,0.0,0.0,0.0,0.0,0.0,0.0,0.0,0.0,0.0,0.0,0.0,0.0,0.0,-0.4491,-0.4491,-0.4491,-0.4491,0.0,0.0,0.0,0.0,0.0,0.0,0.0,0.0,-0.7192,-0.7117,-0.6982,-0.6278,-0.5926,-0.5868,-0.573,-0.5772,-0.5969,-0.6067,-0.6023,-0.585,-0.5542,-0.5392,-0.5345,-0.5298,-0.5393,-0.5576,-0.5732,-0.5854,-0.5941,-0.565,-0.5504,-0.5379,-0.5074,-0.4847,-0.468,-0.4655,-0.4569,-0.4491,-0.4491,-0.4528,-0.4617,-0.4792,-0.5067,-0.5393,-0.5803,-0.6207,-0.6576,-0.6875,-0.717,-0.7407,0.0,0.0,0.0,0.0,0.0,0.0,0.0,0.0,0.0,0.0,0.0,0.0,0.0,0.0,0.0,0.0,0.0,0.0,0.0,0.0,0.0,-0.7988,-0.7988,-0.7988,-0.7988,-0.7988,-0.7988,-0.7988,-0.7988,-0.7941,-0.7892,-0.7892,-0.7845,-0.7756,-0.7756,-0.7756,-0.7756,-0.7756,-0.7807,-0.7885,-0.7794,-0.7756,-0.7756,-0.7756,-0.7756,-0.7756,-0.7756,-0.7756,-0.7756,0.0,0.0,0.0,-0.4914,0.0,-0.4668,-0.4511,-0.4491,-0.4491,-0.4491,0.0,0.0,0.0,0.0,-0.4491,-0.4491,-0.4491,-0.4491,-0.4491,0.0,0.0,0.0,0.0,0.0,0.0,-0.6793,-0.6766,-0.6793,-0.6093,-0.5737,-0.572,-0.5515,-0.5515,-0.5657,-0.5759,-0.5833,-0.5864,-0.5597,-0.5532,-0.5586,-0.5566,-0.5723,-0.5973,-0.6122,-0.6274,-0.6416,-0.6118,-0.5935,-0.5769,0.0,-0.5159,-0.4928,-0.4799,-0.4655,-0.4491,-0.4491,-0.4491,-0.4525,-0.4679,-0.4833,-0.5067,-0.5423,-0.5812,-0.6149,-0.6407,0.0,0.0,0.0,0.0,0.0,0.0,0.0,0.0,0.0,0.0,0.0,0.0,0.0,0.0,0.0,0.0,0.0,0.0,0.0,0.0,0.0,0.0,0.0,-0.7917,-0.7914,-0.7891,-0.7843,-0.7843,-0.7843,-0.7843,-0.7843,-0.7841,-0.774,-0.774,-0.7692,-0.76,-0.76,-0.76,-0.7597,-0.7546,-0.7604,-0.7733,-0.7638,-0.76,-0.76,-0.76,-0.76,-0.76,-0.76,-0.76,-0.76,-0.6171,-0.5585,-0.5056,-0.4918,-0.4796,-0.4668,-0.4518,-0.4494,-0.4491,-0.4491,0.0,0.0,0.0,0.0,0.0,-0.4491,-0.4491,-0.4491,-0.4491,-0.4632,0.0,0.0,0.0,0.0,-0.6561,-0.6431,-0.6431,-0.6561,-0.591,-0.5576,-0.557,-0.5237,-0.5199,-0.5382,-0.5382,-0.5467,-0.5569,-0.5579,-0.5593,-0.5613,-0.5749,-0.5989,-0.6327,-0.6467,-0.6576,-0.6695,-0.6539,-0.6433,0.0,-0.5918,0.0,-0.5347,-0.5009,-0.4707,-0.4494,-0.4491,-0.4491,-0.4522,0.0,0.0,0.0,-0.5266,0.0,0.0,-0.5909,0.0,0.0,0.0,0.0,0.0,0.0,0.0,0.0,0.0,0.0,0.0,0.0,0.0,0.0,0.0,0.0,0.0,0.0,0.0,0.0,0.0,0.0,-0.7917,-0.7814,-0.7804,-0.7743,-0.7604,-0.76,-0.76,-0.76,-0.76,-0.7597,-0.7594,-0.7594,-0.759,-0.7587,-0.7587,-0.7587,-0.758,-0.7431,-0.7448,-0.7587,-0.7587,-0.7587,-0.7587,-0.7587,-0.7587,-0.7587,-0.7587,-0.7587,-0.7587,-0.5638,-0.5353,-0.5086,-0.5049,-0.486,-0.4677,-0.4662,-0.4563,-0.4491,0.0,0.0,0.0,-0.4501,-0.4491,-0.4491,-0.4491,-0.4491,-0.4491,-0.4491,-0.4546,-0.4629,-0.4798,-0.5038,-0.5308,-0.566,-0.5637,-0.5609,-0.566,-0.5274,-0.5086,-0.5078,-0.4914,-0.4894,-0.504,-0.504,-0.5067,-0.5118,-0.5368,-0.561,-0.5901,-0.583,-0.6115,-0.6583,-0.6624,-0.6797,0.0,0.0,-0.6705,-0.6532,0.0,-0.59,-0.5437,-0.4918,-0.4697,-0.4634,-0.4525,-0.4491,-0.4498,-0.4542,0.0,0.0,0.0,0.0,0.0,0.0,0.0,0.0,0.0,0.0,0.0,0.0,0.0,0.0,0.0,0.0,0.0,0.0,0.0,0.0,0.0,0.0,0.0,0.0,0.0,0.0,0.0,0.0,-0.7811,-0.7665,-0.7658,-0.7641,-0.76,-0.76,-0.76,-0.76,-0.76,-0.7543,-0.7434,-0.7434,-0.7377,-0.7223,-0.7223,-0.7223,-0.722,-0.7176,-0.7183,-0.7223,-0.7223,-0.7223,-0.7223,-0.7223,-0.7223,-0.7223,-0.7223,-0.7223,-0.7223,-0.5399,-0.523,-0.51,-0.51,-0.4958,-0.4853,-0.4796,-0.4711,-0.4682,0.0,0.0,0.0,-0.4663,-0.4624,-0.4586,-0.4586,-0.4528,-0.4491,-0.4491,-0.4491,-0.4546,-0.4688,-0.4767,-0.4928,-0.5203,-0.5171,-0.5171,-0.523,-0.4956,-0.4817,-0.4802,-0.4684,-0.4672,-0.4728,-0.4728,-0.4765,-0.484,-0.5077,-0.5399,-0.5752,-0.5786,-0.6125,0.0,-0.6675,-0.6885,0.0,0.0,0.0,-0.677,-0.6597,-0.6156,0.0,-0.515,-0.4887,-0.4769,-0.4677,-0.4682,-0.4682,-0.4682,-0.4718,-0.4799,-0.486,0.0,0.0,0.0,-0.5597,0.0,0.0,0.0,0.0,0.0,0.0,0.0,0.0,0.0,0.0,0.0,0.0,0.0,0.0,0.0,0.0,0.0,0.0,0.0,0.0,-0.7723,-0.7658,-0.7512,-0.7441,-0.7365,-0.7273,-0.7273,-0.7227,-0.7086,-0.7227,-0.723,-0.7143,-0.723,-0.7227,-0.7095,-0.7095,-0.7095,-0.7095,-0.7095,-0.7095,-0.7095,-0.7095,-0.7095,-0.7095,-0.7095,-0.7095,-0.7095,-0.7095,-0.7095,-0.7095,0.0,-0.522,-0.5103,-0.512,-0.511,-0.5056,-0.4931,-0.4897,-0.4887,0.0,-0.4887,-0.4894,-0.4911,-0.4792,-0.4691,-0.4691,-0.458,-0.4491,-0.4491,-0.4491,-0.4546,-0.466,-0.4688,-0.4798,-0.5014,-0.4928,-0.4901,-0.5042,-0.4798,-0.4688,-0.4688,-0.4546,-0.4491,-0.4491,-0.4491,-0.4566,-0.4677,-0.4847,-0.507,-0.5375,-0.5671,-0.6081,0.0,0.0,-0.6885,-0.7095,-0.7095,-0.7014,-0.6903,-0.6852,-0.642,0.0,-0.5518,-0.5206,-0.4955,-0.4921,-0.4911,-0.4908,-0.4891,-0.4887,-0.4918,-0.5046,-0.4992,0.0,-0.531,-0.5382,0.0,0.0,0.0,0.0,0.0,0.0,0.0,0.0,0.0,0.0,0.0,0.0,0.0,0.0,0.0,0.0,0.0,0.0,-0.7594,-0.7577,-0.756,-0.7489,-0.7353,-0.7169,-0.6966,-0.6751,-0.6707,-0.6615,-0.6387,-0.6612,-0.6748,-0.6795,-0.701,-0.7095,-0.7095,-0.7095,-0.7095,-0.7095,-0.7095,-0.7095,-0.7095,-0.7095,-0.7095,-0.7095,-0.7095,-0.7095,-0.7095,-0.7095,-0.7095,-0.7095,-0.4955,-0.5053,-0.5137,-0.5327,-0.5213,-0.509,-0.5063,-0.4961,-0.4887,-0.4887,-0.4887,-0.4931,-0.5046,-0.485,-0.4691,-0.4691,-0.458,-0.4491,-0.4491,-0.4491,-0.4519,-0.4546,-0.4546,-0.4574,-0.4629,-0.4601,-0.4601,-0.4629,-0.4574,-0.4546,-0.4546,-0.4519,-0.4491,-0.4491,-0.4491,-0.4505,-0.4552,-0.4802,-0.4952,-0.505,-0.5586,-0.6146,-0.6658,-0.6688,-0.6885,-0.7095,-0.7095,-0.7078,-0.7001,-0.6681,-0.6426,-0.6136,0.0,-0.5504,-0.541,-0.513,-0.5059,-0.5032,-0.4921,-0.4887,-0.4894,-0.4921,0.0,0.0,-0.513,-0.5274,-0.544,0.0,0.0,0.0,0.0,0.0,0.0,0.0,0.0,0.0,0.0,0.0,0.0,0.0,0.0,0.0,0.0,0.0,-0.755,-0.7424,-0.7299,-0.7131,-0.6926,-0.6897,-0.6659,-0.626,-0.6216,-0.6216,-0.6171,-0.639,-0.6567,-0.6795,-0.701,-0.7095,-0.7095,-0.7095,-0.7095,-0.7095,-0.7095,-0.7095,-0.7095,-0.7095,-0.7095,-0.7095,-0.7095,-0.7095,-0.7095,-0.7095,-0.7095,-0.7095,-0.4775,-0.4863,-0.4982,-0.5206,-0.5182,-0.5123,-0.5233,-0.5186,-0.5142,-0.5142,-0.5206,-0.5281,-0.5352,-0.5159,-0.4992,-0.4914,-0.4775,-0.4657,-0.461,-0.4604,-0.4569,-0.4494,-0.4491,-0.4491,-0.4491,-0.4491,-0.4491,-0.4491,-0.4491,-0.4491,-0.4491,-0.4491,-0.4491,-0.4491,-0.4491,-0.4491,-0.4508,-0.4789,-0.4928,-0.5039,-0.5593,0.0,-0.6495,-0.6644,-0.6885,-0.7095,-0.7095,-0.7095,-0.7041,-0.6712,-0.6528,0.0,0.0,-0.5755,-0.5664,0.0,-0.5413,-0.5345,-0.527,-0.5199,-0.5142,-0.5142,0.0,0.0,0.0,-0.5247,-0.5291,-0.5477,0.0,0.0,0.0,0.0,0.0,0.0,0.0,0.0,0.0,0.0,0.0,0.0,0.0,0.0,0.0,0.0,-0.7119,-0.7044,-0.7034,-0.6904,-0.6729,-0.6618,-0.6272,-0.5591,-0.5501,-0.5387,-0.5114,-0.5542,-0.5929,-0.6276,-0.6576,-0.679,-0.6922,-0.6957,-0.6991,-0.6994,-0.7065,-0.7095,-0.7095,-0.7095,-0.7095,-0.7095,-0.7095,-0.7095,-0.7095,-0.7095,-0.7095,-0.7095,-0.466,-0.4691,-0.4775,-0.5012,-0.5079,-0.514,-0.533,-0.5375,-0.5405,-0.5436,-0.5573,-0.563,-0.563,-0.5528,-0.5388,-0.5197,-0.5029,-0.4908,-0.4782,-0.4721,-0.4665,-0.4539,-0.4505,-0.4491,-0.4491,-0.4491,-0.4491,-0.4491,-0.4491,-0.4491,-0.4491,-0.4491,-0.4491,-0.4491,-0.4522,-0.4535,-0.4552,-0.483,-0.4995,-0.5137,0.0,-0.5986,-0.633,-0.6586,-0.6865,-0.7058,-0.7085,-0.7095,-0.7051,-0.68,-0.6617,-0.6464,-0.6169,-0.5989,0.0,0.0,0.0,0.0,0.0,0.0,0.0,0.0,0.0,-0.513,0.0,0.0,0.0,-0.5324,0.0,0.0,0.0,0.0,0.0,0.0,0.0,0.0,0.0,0.0,0.0,0.0,0.0,0.0,0.0,0.0,-0.6658,-0.6658,-0.6731,-0.6681,-0.6449,-0.6207,-0.5648,-0.4739,-0.4606,-0.4355,-0.3903,-0.4569,-0.5155,-0.5571,-0.607,-0.6405,-0.666,-0.6743,-0.6842,-0.6849,-0.6964,-0.7011,-0.7011,-0.7011,-0.7031,-0.7058,-0.7085,-0.7095,-0.7095,-0.7095,-0.7095,-0.7095,-0.466,-0.4691,-0.4745,-0.4884,-0.5015,-0.5103,-0.512,-0.5274,-0.5443,-0.5545,-0.5688,-0.5776,-0.5776,-0.565,-0.5555,-0.5538,-0.5274,-0.5066,-0.5049,-0.4836,-0.4684,-0.4667,-0.4563,-0.4491,-0.4491,-0.4491,-0.4491,-0.4491,-0.4491,-0.4491,-0.4491,-0.4491,-0.4491,-0.4494,-0.4634,-0.4663,-0.4684,-0.4951,-0.5083,0.0,-0.562,-0.5986,0.0,-0.6586,-0.6807,-0.6927,-0.7051,-0.7095,-0.7051,0.0,-0.6688,-0.6624,0.0,-0.6262,-0.6218,-0.6044,0.0,0.0,0.0,0.0,0.0,0.0,-0.5345,0.0,0.0,0.0,-0.5103,-0.512,0.0,0.0,0.0,0.0,0.0,0.0,0.0,0.0,0.0,0.0,0.0,0.0,0.0,0.0,0.0,0.0,0.0,-0.6538,-0.6357,-0.6138,-0.5835,-0.5267,-0.4555,-0.3624,-0.3412,-0.3281,-0.3231,-0.3859,-0.4527,-0.5155,-0.5654,-0.607,-0.6443,-0.6459,-0.6556,-0.6725,-0.6742,-0.6749,-0.6749,-0.6749,-0.6831,-0.6923,-0.7048,-0.7095,-0.7095,-0.7095,-0.7095,-0.7095,-0.4573,-0.4586,-0.4634,-0.4758,-0.4836,-0.4935,-0.5073,-0.5338,-0.5579,-0.5694,-0.584,-0.5932,-0.5932,-0.5959,-0.5942,-0.585,-0.569,-0.5545,0.0,0.0,-0.5033,-0.483,-0.4762,-0.4684,-0.4627,-0.4624,-0.458,-0.4491,-0.4491,-0.4491,0.0,-0.4491,-0.4491,-0.4498,-0.4651,-0.4691,-0.4711,-0.4975,-0.51,0.0,0.0,0.0,0.0,-0.642,-0.6719,-0.6906,-0.7045,-0.7095,-0.7051,0.0,-0.6702,0.0,0.0,0.0,0.0,0.0,0.0,0.0,0.0,0.0,0.0,0.0,0.0,0.0,-0.51,0.0,-0.51,0.0,0.0,0.0,0.0,0.0,0.0,0.0,0.0,0.0,0.0,0.0,0.0,0.0,0.0,0.0,0.0,0.0,0.0,0.0,0.0,-0.5817,-0.5311,-0.4835,-0.4045,-0.2845,-0.2595,-0.2375,-0.2223,-0.2746,-0.3388,-0.4112,-0.4593,-0.5034,-0.5399,-0.5635,-0.5749,-0.584,-0.608,-0.6197,-0.6197,-0.6284,-0.6405,-0.6463,-0.6646,-0.6857,-0.7085,-0.7004,-0.6974,-0.6974,-0.4491,-0.4491,-0.4525,-0.4638,-0.4663,-0.4806,-0.5142,-0.5454,-0.5698,-0.5844,-0.603,-0.6152,-0.6152,-0.6288,-0.6335,-0.6224,-0.6176,-0.6044,0.0,0.0,-0.5385,-0.5053,-0.4968,-0.4887,-0.4694,-0.4691,-0.4644,-0.4491,-0.4491,-0.4491,-0.4491,-0.4491,-0.4491,-0.4498,-0.4667,-0.4775,-0.483,-0.5128,-0.5245,-0.5312,-0.5715,-0.5888,-0.5966,-0.6371,-0.6634,-0.6842,-0.6987,-0.7038,-0.7001,-0.6787,-0.6702,0.0,-0.6392,0.0,0.0,0.0,0.0,0.0,-0.6095,0.0,0.0,0.0,0.0,0.0,0.0,0.0,0.0,0.0,0.0,0.0,0.0,0.0,0.0,-0.4911,0.0,0.0,0.0,0.0,0.0,0.0,0.0,0.0,0.0,0.0,0.0,0.0,0.0,0.0,-0.4876,-0.4205,-0.3332,-0.2213,-0.1811,-0.1518,-0.1336,-0.1727,-0.2313,-0.3095,-0.3485,-0.3954,-0.447,-0.4703,-0.4858,-0.4981,-0.5308,-0.5429,-0.5429,-0.5639,-0.5741,-0.5812,-0.6059,-0.6412,-0.6743,-0.682,-0.6865,-0.6865,-0.4491,-0.4491,-0.4491,-0.4498,-0.4621,-0.487,-0.5317,-0.5603,-0.5847,-0.5966,-0.6278,0.0,0.0,0.0,0.0,0.0,0.0,-0.6436,-0.6286,0.0,-0.5654,-0.5392,-0.5203,-0.4958,-0.4697,-0.4691,-0.4644,-0.4491,-0.4491,-0.4491,-0.4491,-0.4491,-0.4491,-0.4501,-0.4775,-0.4958,-0.5103,-0.5443,-0.5654,-0.5793,-0.5922,-0.6112,-0.6303,0.0,-0.6569,-0.6729,-0.6839,0.0,0.0,-0.6753,-0.6702,0.0,0.0,0.0,0.0,0.0,0.0,0.0,0.0,0.0,0.0,-0.583,0.0,0.0,0.0,0.0,-0.4935,0.0,0.0,0.0,0.0,-0.5233,-0.5052,-0.4911,-0.4796,0.0,0.0,0.0,0.0,0.0,0.0,0.0,0.0,0.0,0.0,0.0,0.0,0.0,-0.4523,-0.3219,-0.2223,-0.1647,-0.0982,-0.0629,-0.0628,-0.11,-0.1649,-0.2235,-0.247,-0.3018,-0.3841,-0.3843,-0.404,-0.4428,-0.4431,-0.4433,-0.4472,-0.467,-0.4812,-0.4985,-0.5356,-0.5639,-0.5919,-0.6501,-0.6709,-0.6709,-0.4491,-0.4491,-0.4491,-0.4491,-0.4617,-0.4873,-0.5327,-0.5698,-0.6006,0.0,-0.6441,0.0,0.0,-0.6759,-0.6851,0.0,0.0,-0.6668,-0.6457,-0.6252,0.0,-0.5667,-0.5603,-0.5437,0.0,-0.5033,-0.486,-0.4641,-0.4539,-0.4491,-0.4491,-0.4491,-0.4491,-0.4505,-0.4782,-0.4968,0.0,0.0,0.0,0.0,0.0,-0.6122,-0.6317,0.0,0.0,-0.6569,-0.6722,-0.6776,0.0,-0.66,-0.6549,-0.6515,-0.6361,-0.63,-0.63,-0.63,-0.63,0.0,0.0,0.0,-0.5767,-0.5627,0.0,0.0,0.0,0.0,0.0,0.0,0.0,0.0,0.0,-0.5075,-0.4965,-0.4911,-0.4792,-0.4665,0.0,0.0,0.0,0.0,0.0,0.0,0.0,0.0,0.0,0.0,0.0,0.0,0.0,-0.2882,-0.2027,-0.1176,-0.0667,-0.0393,-0.0393,-0.055,-0.0864,-0.1335,-0.157,-0.1922,-0.235,-0.2469,-0.2624,-0.2741,-0.3017,-0.3136,-0.3175,-0.3485,-0.3657,-0.3762,-0.42,-0.4498,-0.4816,-0.5947,-0.6353,-0.6394,-0.4651,-0.4651,-0.4638,-0.4583,-0.4788,-0.5078,-0.5423,-0.5823,0.0,0.0,-0.6597,0.0,-0.678,0.0,-0.696,0.0,-0.696,-0.6898,-0.6651,-0.6549,0.0,-0.6054,-0.5993,0.0,0.0,-0.5291,-0.504,-0.4691,-0.4621,-0.4542,-0.4491,-0.4491,-0.4491,-0.4505,-0.4782,-0.4968,-0.512,-0.5515,-0.5713,0.0,0.0,-0.5822,0.0,0.0,-0.6156,0.0,0.0,-0.662,-0.6607,-0.6428,-0.6394,-0.6331,-0.6028,-0.5948,-0.5948,-0.5867,-0.5828,-0.5828,-0.5828,-0.5644,0.0,0.0,-0.4853,0.0,-0.4458,0.0,0.0,0.0,0.0,0.0,0.0,0.0,-0.4836,-0.4795,-0.4777,-0.4701,0.0,-0.4491,0.0,0.0,0.0,0.0,0.0,0.0,-0.489,-0.4906,0.0,0.0,0.0,0.0,-0.1661,-0.093,-0.043,-0.0196,-0.0196,-0.0196,-0.0353,-0.0707,-0.0864,-0.1099,-0.1372,-0.1491,-0.1608,-0.1687,-0.1962,-0.208,-0.208,-0.2429,-0.2585,-0.2624,-0.3136,-0.3409,-0.3686,-0.5136,-0.5723,-0.5808,-0.4887,-0.4901,-0.4897,-0.4758,-0.5115,0.0,0.0,0.0,-0.6361,0.0,-0.6749,-0.6896,-0.6896,-0.7014,-0.7095,-0.7095,-0.7095,-0.7038,-0.6896,-0.6886,0.0,0.0,-0.6395,-0.6112,-0.5633,0.0,0.0,-0.4711,-0.4697,-0.4641,-0.4491,-0.4491,-0.4491,-0.4505,-0.4782,0.0,-0.5127,-0.5575,-0.5745,-0.5632,-0.5384,-0.5282,-0.524,-0.5043,0.0,-0.6239,-0.6374,-0.6421,-0.6381,-0.6187,-0.6147,-0.6045,-0.5439,-0.5282,-0.5201,-0.5043,-0.4963,-0.4963,-0.4963,-0.4965,-0.4861,-0.4518,0.0,0.0,0.0,0.0,-0.3843,0.0,0.0,0.0,0.0,0.0,-0.4718,-0.4633,-0.4762,-0.4806,-0.4542,0.0,0.0,0.0,0.0,0.0,0.0,-0.4867,-0.4836,-0.4823,-0.4165,-0.3584,0.0,0.0,0.0,-0.087,-0.031,0.0,0.0,0.0,-0.0079,-0.0275,-0.0275,-0.0471,-0.0864,-0.0864,-0.0982,-0.1218,-0.1257,-0.1257,-0.1257,-0.1451,-0.1568,-0.1607,-0.2196,-0.2431,-0.2627,-0.4112,-0.4774,-0.4982,-0.4887,-0.5098,-0.5303,0.0,-0.5395,-0.5484,0.0,0.0,0.0,0.0,-0.6902,-0.7041,-0.7041,-0.7075,-0.7095,-0.7095,-0.7095,0.0,0.0,0.0,0.0,-0.6651,-0.6607,-0.643,-0.6136,-0.5827,-0.5467,-0.4985,0.0,-0.4641,-0.4491,-0.4491,-0.4491,-0.4505,-0.4782,-0.4906,-0.4977,-0.5408,-0.5436,-0.5153,-0.4957,-0.4776,0.0,0.0,-0.4696,-0.4935,-0.5274,-0.5403,-0.5364,-0.5325,-0.521,-0.5053,-0.4904,-0.4735,-0.4618,-0.4577,-0.4538,-0.4538,-0.4538,-0.4345,-0.4051,-0.3875,-0.3556,-0.3287,0.0,0.0,0.0,0.0,0.0,0.0,0.0,0.0,0.0,-0.4553,-0.4679,-0.4721,-0.4672,0.0,0.0,0.0,0.0,0.0,-0.4355,-0.421,-0.4007,-0.3873,-0.3411,0.0,0.0,0.0,0.0,-0.0454,-0.0152,0.0,0.0,0.0,-0.0039,-0.0079,-0.0079,-0.0118,-0.0236,-0.0236,-0.0275,-0.0353,-0.051,-0.055,-0.0589,-0.0785,-0.0863,-0.0903,-0.1178,-0.153,-0.1998,-0.3487,-0.4268,-0.4543,-0.5199,-0.5396,0.0,-0.5565,0.0,0.0,-0.5848,0.0,0.0,-0.6688,-0.6913,0.0,-0.7095,-0.7095,-0.7095,-0.7095,-0.7095,0.0,-0.6857,0.0,0.0,-0.6471,-0.6365,-0.616,-0.5765,-0.5601,0.0,-0.4753,0.0,-0.4561,-0.4384,-0.4463,-0.4463,-0.4394,-0.4623,-0.4688,-0.4605,-0.4685,-0.4609,-0.4394,-0.3938,0.0,0.0,-0.3368,-0.3288,-0.3327,-0.356,-0.4105,-0.4693,-0.454,-0.4384,-0.4231,-0.3841,-0.3643,-0.3524,-0.3368,-0.3288,-0.3288,-0.3288,-0.3134,-0.293,-0.2772,-0.2516,-0.23,-0.223,-0.2167,-0.2192,0.0,0.0,0.0,0.0,0.0,0.0,-0.4315,-0.4326,-0.429,-0.4258,0.0,0.0,0.0,-0.3574,0.0,-0.3547,-0.3602,-0.3513,-0.3253,-0.2866,0.0,0.0,0.0,0.0,0.0,-0.011,0.0,0.0,0.0,0.0,0.0,0.0,0.0,0.0,0.0,0.0,0.0,-0.0118,-0.0157,-0.0196,-0.0275,-0.0353,-0.0353,-0.055,-0.0903,-0.1412,-0.2235,-0.286,-0.3327,-0.5616,-0.571,0.0,0.0,0.0,0.0,0.0,-0.6264,0.0,-0.6562,0.0,-0.6918,-0.6918,-0.6918,-0.6918,-0.6918,0.0,-0.6833,-0.6659,-0.6615,-0.6438,-0.6038,-0.5842,-0.5537,-0.5052,-0.501,-0.477,0.0,-0.4417,-0.4355,-0.4135,-0.4307,-0.4301,-0.4116,-0.4305,-0.4258,0.0,-0.3663,-0.3507,-0.3445,-0.2679,-0.2354,-0.2314,-0.196,-0.1803,-0.1803,-0.1803,-0.2781,-0.4031,-0.3682,-0.3526,-0.337,-0.2627,-0.2354,-0.2275,-0.1921,-0.1803,-0.1803,-0.1803,-0.1803,-0.1725,-0.1568,-0.1429,-0.137,-0.1294,-0.1234,-0.1259,-0.1512,-0.1679,0.0,0.0,0.0,0.0,-0.3901,0.0,0.0,0.0,0.0,0.0,0.0,0.0,0.0,0.0,-0.2935,-0.3058,-0.2766,-0.2346,0.0,0.0,0.0,0.0,0.0,-0.0106,0.0,0.0,0.0,0.0,0.0,0.0,0.0,0.0,0.0,0.0,0.0,0.0,0.0,0.0,0.0,0.0,0.0,-0.0196,-0.0471,-0.0786,-0.0786,-0.1138,-0.1686,-0.5922,0.0,0.0,0.0,0.0,-0.5218,-0.5091,-0.5616,-0.5943,-0.5732,-0.5853,-0.5941,-0.5941,-0.5941,-0.5941,-0.5941,-0.5941,0.0,0.0,0.0,0.0,-0.5505,-0.5304,-0.5055,-0.4792,-0.4619,-0.438,0.0,-0.3964,-0.383,-0.3779,-0.3767,-0.3749,-0.3699,-0.3728,0.0,-0.3416,-0.2799,0.0,-0.2424,-0.194,-0.1648,-0.1492,-0.1414,-0.1414,-0.1414,-0.1414,-0.1804,-0.2311,-0.2273,-0.2116,-0.1959,-0.1803,-0.1648,-0.1492,-0.1414,-0.1414,-0.1414,-0.1414,-0.1256,-0.106,-0.1021,-0.0901,-0.0742,-0.0742,-0.0739,-0.0737,-0.078,-0.0933,-0.1196,-0.1557,0.0,0.0,0.0,0.0,0.0,0.0,0.0,0.0,0.0,0.0,0.0,0.0,0.0,-0.2018,-0.1832,0.0,0.0,0.0,0.0,0.0,0.0,0.0,0.0,0.0,0.0,0.0,0.0,0.0,0.0,0.0,0.0,0.0,0.0,0.0,0.0,0.0,0.0,0.0,0.0,-0.0039,-0.0079,-0.0157,-0.0157,-0.0236,-0.0471,-0.5506,0.0,0.0,0.0,0.0,0.0,0.0,-0.4171,0.0,-0.5076,-0.5251,-0.5319,-0.5319,-0.5319,-0.5319,-0.5319,-0.5319,-0.5233,-0.501,-0.4877,-0.4612,-0.4119,-0.3983,0.0,-0.3317,-0.3331,-0.3249,-0.3076,-0.3213,-0.3237,-0.3193,-0.3293,-0.3272,-0.3109,-0.2855,-0.2636,0.0,0.0,0.0,-0.1479,-0.1088,-0.0863,-0.0786,-0.0668,-0.0628,-0.0628,-0.0628,-0.0746,-0.098,-0.1295,-0.1334,-0.1216,-0.098,-0.0863,-0.0746,-0.0668,-0.0628,-0.0628,-0.0628,-0.055,-0.0432,-0.0432,-0.0353,-0.0275,-0.0275,-0.0275,-0.0275,-0.0275,-0.0432,-0.0738,-0.116,-0.1746,0.0,0.0,0.0,0.0,0.0,0.0,-0.2071,0.0,0.0,0.0,0.0,0.0,0.0,0.0,0.0,0.0,0.0,0.0,0.0,0.0,0.0,0.0,0.0,0.0,0.0,0.0,0.0,0.0,0.0,0.0,0.0,0.0,0.0,0.0,0.0,0.0,0.0,0.0,0.0,0.0,0.0,0.0,0.0,-0.0118,0.0,-0.5012,0.0,0.0,-0.4161,0.0,-0.2927,-0.2704,-0.2982,-0.4108,-0.4337,-0.4383,-0.4383,-0.4383,-0.4383,-0.4383,-0.4383,-0.4249,-0.3894,-0.3807,-0.3449,-0.2689,-0.2598,-0.2372,-0.1852,-0.206,-0.2097,0.0,-0.2351,-0.2492,-0.2458,-0.2629,-0.2596,-0.2345,0.0,0.0,0.0,0.0,-0.0855,-0.0759,-0.0389,-0.0236,-0.0236,-0.0079,0.0,0.0,0.0,0.0,-0.0079,-0.055,-0.0707,-0.0668,-0.0353,-0.0236,-0.0196,-0.0039,0.0,0.0,0.0,0.0,0.0,0.0,0.0,0.0,0.0,0.0,0.0,0.0,-0.0155,-0.042,-0.0844,-0.1125,0.0,0.0,0.0,0.0,0.0,0.0,0.0,0.0,0.0,0.0,0.0,0.0,0.0,0.0,0.0,0.0,0.0,0.0,0.0,0.0,0.0,0.0,0.0,0.0,0.0,0.0,0.0,0.0,0.0,0.0,0.0,0.0,0.0,0.0,0.0,0.0,0.0,0.0,0.0,0.0,0.0,0.0,0.0,-0.0039,0.0,0.0,0.0,0.0,0.0,0.0,0.0,-0.1836,-0.1747,-0.2367,-0.2458,-0.2462,-0.2462,-0.2462,-0.2462,-0.2462,-0.2462,-0.2462,-0.2417,-0.2152,-0.1973,-0.1929,-0.166,-0.1495,-0.1388,-0.1396,-0.141,0.0,0.0,-0.1459,-0.1625,-0.1528,-0.1404,-0.1254,0.0,0.0,0.0,-0.0512,-0.0378,-0.0341,-0.0117,-0.0039,-0.0039,0.0,0.0,0.0,0.0,0.0,0.0,-0.0079,-0.0079,-0.0079,-0.0039,-0.0039,-0.0039,0.0,0.0,0.0,0.0,0.0,0.0,0.0,0.0,0.0,0.0,0.0,0.0,0.0,-0.0149,-0.033,-0.0365,-0.0679,-0.0948,0.0,0.0,0.0,0.0,0.0,-0.0862,-0.0833,0.0,0.0,0.0,0.0,0.0,0.0,0.0,0.0,0.0,0.0,0.0,0.0,0.0,0.0,0.0,0.0,0.0,0.0,0.0,0.0,0.0,0.0,0.0,0.0,0.0,0.0,0.0,0.0,0.0,0.0,0.0,0.0,0.0,0.0,0.0,-0.0039,0.0,0.0,0.0,0.0,0.0,0.0,0.0,-0.1031,-0.0807,-0.0852,-0.139,-0.1703,-0.1703,-0.1703,-0.1703,-0.1703,-0.1703,-0.1658,-0.1569,-0.1435,-0.1256,-0.0987,-0.0842,-0.0695,-0.0505,-0.065,-0.0702,0.0,0.0,0.0,0.0,0.0,0.0,0.0,0.0,-0.0484,-0.0435,-0.0224,-0.0115,-0.0116,-0.0039,0.0,0.0,0.0,0.0,0.0,0.0,0.0,0.0,0.0,0.0,0.0,0.0,0.0,0.0,0.0,0.0,0.0,0.0,0.0,0.0,0.0,0.0,0.0,0.0,0.0,0.0,0.0,-0.0073,-0.0109,-0.0107,-0.0247,-0.0349,0.0,0.0,0.0,0.0,0.0,0.0,-0.031,0.0,-0.0087,0.0,0.0,0.0,0.0,0.0,0.0,0.0,0.0,0.0,0.0,0.0,0.0,0.0,0.0,0.0,0.0,0.0,0.0,0.0,0.0,0.0,0.0,0.0,0.0,0.0,0.0,0.0,0.0,0.0,0.0,0.0,0.0,0.0,0.0,-0.1971,0.0,-0.1836,0.0,-0.13,-0.0987,-0.0673,-0.0404,-0.0224,-0.0045,-0.0584,-0.0987,-0.0987,-0.0987,-0.0987,-0.0987,-0.0987,-0.0942,-0.0808,-0.0763,-0.0628,-0.0314,-0.0264,0.0,0.0,-0.0122,-0.0195,-0.0227,-0.0394,0.0,0.0,-0.0589,0.0,0.0,-0.0243,-0.018,-0.0189,-0.0076,0.0,0.0,0.0,0.0,0.0,0.0,0.0,0.0,0.0,0.0,0.0,0.0,0.0,0.0,0.0,0.0,0.0,0.0,0.0,0.0,0.0,0.0,0.0,0.0,0.0,0.0,0.0,0.0,0.0,0.0,0.0,0.0,0.0,0.0,0.0,0.0,0.0,0.0,0.0,0.0,0.0,0.0,0.0,0.0,0.0,0.0,0.0,0.0,0.0,0.0,0.0,0.0,0.0,0.0,0.0,0.0,0.0,0.0,0.0,0.0,0.0,0.0,0.0,0.0,0.0,0.0,0.0,0.0,0.0,0.0,0.0,0.0,0.0,0.0,0.0,0.0,0.0,0.0,-0.1391,-0.1256,-0.1121,-0.1121,-0.0718,-0.0403,-0.0403,-0.018,0.0,0.0,0.0,0.0,0.0,0.0,0.0,0.0,0.0,0.0,0.0,0.0,0.0,0.0,0.0,0.0,0.0,0.0,0.0,0.0,0.0,0.0,0.0,0.0,0.0,0.0,0.0,0.0,0.0,0.0,0.0,0.0,0.0,0.0,0.0,0.0,0.0,0.0,0.0,0.0,0.0,0.0,0.0,0.0,0.0,0.0,0.0,0.0,0.0,0.0,0.0,0.0,0.0,0.0,0.0,0.0,0.0,0.0,0.0,0.0,0.0,0.0,0.0,0.0,0.0,0.0,0.0,0.0,0.0,0.0,0.0,0.0,0.0,0.0,0.0,0.0,0.0,0.0,0.0,0.0,0.0,0.0,0.0,0.0,0.0,0.0,0.0,0.0,0.0,0.0,0.0,0.0,0.0,0.0,0.0,0.0,0.0,0.0,0.0,0.0,0.0,0.0,0.0,0.0,0.0,0.0,0.0,0.0,-0.0449,-0.0404,-0.0359,-0.0359,-0.0225,-0.0135,-0.0135,-0.0045,0.0,0.0,0.0,0.0,0.0,0.0,0.0,0.0,0.0,0.0,0.0,0.0,0.0,0.0,0.0,0.0,0.0,0.0,0.0,0.0,0.0,0.0,0.0,0.0,0.0,0.0,0.0,0.0,0.0,0.0,0.0,0.0,0.0,0.0,0.0,0.0,0.0,0.0,0.0,0.0,0.0,0.0,0.0,0.0,0.0,0.0,0.0,0.0,0.0,0.0,0.0,0.0,0.0,0.0,0.0,0.0,0.0,0.0,0.0,0.0,0.0,0.0,0.0,0.0,0.0,0.0,0.0,0.0,0.0,0.0,0.0,0.0,0.0407,0.0551,0.0,0.0666,0.0,0.0,0.0,0.0,0.0,0.0,0.0,0.0,0.0,0.0,0.0,0.0,0.0,0.0,0.0,0.0,0.0,0.0,0.0,0.0,0.0,0.0,0.0,0.0,0.0,0.0,0.0,0.0,0.0,0.0,0.0,0.0,0.0,0.0,0.0,0.0,0.0,0.0,0.0,0.0,0.0,0.0,0.0,0.0,0.0,0.0,0.0,0.0,0.0,0.0,0.0,0.0,0.0,0.0,0.0,0.0,0.0,0.0,0.0,0.0,0.0,0.0,0.0,0.0,0.0,0.0,0.0,0.0,0.0,0.0,0.0,0.0,0.0,0.0,0.0,0.0,0.0,0.0,0.0,0.0,0.0,0.0,0.0,0.0,0.0,0.0,0.0,0.0,0.0,0.0,0.0,0.0,0.0,0.0,0.0,0.0,0.0,0.0,0.0,0.0,0.0,0.0,0.0,0.0,0.0,0.0,0.0,0.0034,0.0101,0.0,0.0,0.0,0.0,0.0,0.0,0.1216,0.0,0.0,0.0,0.0,0.0,0.0,0.0,0.0,0.0,0.0,0.0,0.0,0.0,0.0,0.0,0.0,0.0,0.0,0.0,0.0,0.0,0.0,0.0,0.0,0.0,0.0,0.0,0.0,0.0,0.0,0.0,0.0,0.0,0.0,0.0,0.0,0.0,0.0,0.0,0.0,0.0,0.0,0.0,0.0,0.0,0.0,0.0,0.0,0.0,0.0,0.0,0.0,0.0,0.0,0.0,0.0,0.0,0.0,0.0,0.0,0.0,0.0,0.0,0.0,0.0,0.0,0.0,0.0,0.0,0.0,0.0,0.0,0.0,0.0,0.0,0.0,0.0,0.0,0.0,0.0,0.0,0.0,0.0,0.0,0.0,0.0,0.0,0.0,0.0,0.0,0.0,0.0,0.0,0.0,0.0,0.0,0.0,0.0,0.0,0.0,0.0,0.0034,0.0034,0.0034,0.0034,0.0034,0.0034,0.0135,0.0303,0.0,0.0,0.0,0.0,0.0,0.0,0.1748,0.1744,0.0,0.0,0.0,0.0,0.0,0.0,0.0097,0.0065,0.0066,0.0067,0.0068,0.0069,0.0106,0.0074,0.0077,0.0079,0.0079,0.0079,0.0079,0.0079,0.0039,0.0039,0.0039,0.0,0.0,0.0,0.0,0.0,0.0,0.0,0.0,0.0,0.0,0.0,0.0,0.0,0.0,0.0,0.0,0.0,0.0,0.0,0.0,0.0,0.0,0.0,0.0,0.0,0.0,0.0,0.0,0.0,0.0,0.0,0.0,0.0,0.0,0.0,0.0,0.0,0.0,0.0,0.0,0.0,0.0,0.0,0.0,0.0,0.0,0.0,0.0,0.0,0.0,0.0,0.0,0.0,0.0,0.0,0.0,0.0,0.0,0.0,0.0,0.0,0.0,0.0,0.0,0.0,0.0,0.0,0.0,0.0,0.0,0.0,0.0,0.0,0.0,0.0,0.0,0.0107,0.0213,0.0244,0.0347,0.0448,0.0406,0.0505,0.0639,0.0672,0.0,0.0,0.0,0.2229,0.2654,0.2801,0.3113,0.3158,0.0,0.0,0.0,0.0,0.0,0.142,0.0866,0.0832,0.0835,0.0841,0.0893,0.0924,0.1005,0.0998,0.0977,0.0982,0.0982,0.0864,0.0668,0.0668,0.051,0.0236,0.0236,0.0157,0.0,0.0,0.0,0.0,0.0,0.0,0.0,0.0,0.0,0.0,0.0,0.0,0.0,0.0,0.0,0.0,0.0,0.0,0.0,0.0,0.0,0.0,0.0,0.0,0.0,0.0,0.0,0.0,0.0,0.0,0.0,0.0,0.0,0.0,0.0,0.0,0.0,0.0,0.0,0.0,0.0,0.0,0.0,0.0,0.0,0.0,0.0,0.0,0.0,0.0,0.0,0.0,0.0,0.0,0.0,0.0,0.013,0.0173,0.0216,0.0428,0.0508,0.05,0.0565,0.0396,0.0118,0.0118,0.0275,0.0432,0.055,0.0583,0.0576,0.0607,0.0599,0.0591,0.0584,0.0692,0.0762,0.0751,0.0883,0.0942,0.0929,0.1051,0.121,0.1376,0.1713,0.0,0.2586,0.3056,0.3458,0.3692,0.3889,0.3923,0.3725,0.0,0.0,0.2986,0.2917,0.2417,0.1344,0.1344,0.1344,0.1344,0.1398,0.1491,0.1589,0.159,0.1569,0.1569,0.1569,0.1491,0.1334,0.1256,0.1098,0.0903,0.0785,0.0707,0.0589,0.0589,0.0589,0.0589,0.0589,0.0589,0.0589,0.0,0.0,0.0,0.0,0.0,0.0,0.0,0.0,0.0,0.0,0.0,0.0,0.0,0.0,0.0,0.0,0.0,0.0,0.0,0.0,0.0,0.0,0.0,0.0,0.0,0.0,0.0,0.0,0.0,0.0,0.0,0.0,0.0,0.0,0.0,0.0,0.0,0.0042,0.0042,0.0084,0.0126,0.0169,0.017,0.0216,0.0218,0.0219,0.0223,0.0225,0.0225,0.0493,0.0583,0.067,0.1098,0.1219,0.1293,0.1414,0.1048,0.0631,0.0511,0.0785,0.1099,0.1335,0.1375,0.1406,0.1377,0.1408,0.14,0.1407,0.1438,0.1473,0.1468,0.1584,0.1662,0.1613,0.1752,0.1957,0.2217,0.0,0.2885,0.3553,0.3823,0.4092,0.4386,0.4453,0.4453,0.442,0.4259,0.0,0.0,0.3992,0.3322,0.2049,0.1949,0.1957,0.1973,0.2027,0.2139,0.2279,0.2289,0.2272,0.2272,0.2272,0.2234,0.2194,0.1998,0.1842,0.1724,0.157,0.1453,0.1375,0.1375,0.1375,0.1375,0.1375,0.1375,0.1374,0.0,0.0,0.0,0.0,0.0,0.0,0.0,0.0,0.0,0.0,0.0,0.0,0.0,0.0,0.0,0.0,0.0,0.0,0.0,0.0,0.0,0.0,0.0,0.0,0.0,0.0,0.0,0.0,0.0,0.0,0.0,0.0,0.0,0.0,0.0,0.0,0.0,0.0252,0.0337,0.0379,0.0758,0.0936,0.0951,0.1128,0.1187,0.1161,0.1165,0.1166,0.1211,0.1211,0.1391,0.1614,0.1653,0.1852,0.204,0.207,0.2129,0.2128,0.1537,0.1568,0.1764,0.1803,0.1803,0.1802,0.1795,0.1794,0.1792,0.1824,0.2094,0.2313,0.2303,0.2583,0.2796,0.268,0.2927,0.3101,0.0,0.0,0.3859,0.4154,0.4459,0.4728,0.4954,0.5123,0.516,0.4987,0.4954,0.4791,0.4525,0.4492,0.4292,0.3887,0.3623,0.3532,0.3694,0.3723,0.383,0.401,0.4025,0.4031,0.4031,0.4031,0.3837,0.3489,0.3489,0.3057,0.2353,0.2314,0.2118,0.1803,0.1803,0.1803,0.1803,0.1803,0.1803,0.1803,0.0763,0.0763,0.0763,0.0763,0.0763,0.0763,0.0763,0.0763,0.0763,0.0763,0.0763,0.0763,0.0763,0.0763,0.0763,0.0763,0.0763,0.0763,0.0763,0.0269,0.0045,0.0224,0.0224,0.0314,0.0584,0.0578,0.0575,0.0575,0.035,0.0217,0.0214,0.0214,0.0213,0.0211,0.0469,0.06,0.06,0.0824,0.1002,0.1177,0.1395,0.1577,0.1722,0.181,0.1822,0.1837,0.1837,0.1837,0.1882,0.2107,0.2286,0.2465,0.3002,0.3249,0.3392,0.3613,0.3151,0.2622,0.2759,0.286,0.2978,0.321,0.3249,0.3249,0.3249,0.3249,0.3249,0.3249,0.3407,0.3513,0.3513,0.3732,0.3896,0.3807,0.3916,0.0,0.0,0.4201,0.4425,0.4686,0.4858,0.5024,0.5256,0.5359,0.5362,0.5259,0.5259,0.5193,0.5027,0.5027,0.4994,0.4891,0.4356,0.4198,0.4429,0.4432,0.4509,0.4732,0.4732,0.4732,0.4732,0.4732,0.4616,0.4421,0.4348,0.4075,0.3682,0.3565,0.3407,0.3249,0.3249,0.3249,0.3249,0.3249,0.3249,0.321,0.1569,0.1569,0.1569,0.1569,0.1569,0.1569,0.1569,0.1569,0.1569,0.1569,0.1569,0.1569,0.1569,0.1569,0.1569,0.1569,0.1569,0.1569,0.1569,0.0897,0.0539,0.0628,0.0673,0.0941,0.1345,0.1345,0.1345,0.1256,0.0897,0.0712,0.0614,0.0614,0.0652,0.0727,0.1086,0.1313,0.1357,0.1647,0.1883,0.2063,0.2287,0.2509,0.2686,0.2819,0.2864,0.2864,0.2864,0.2864,0.2908,0.3267,0.3448,0.3626,0.4342,0.4567,0.4683,0.4998,0.4229,0.341,0.387,0.4036,0.4151,0.4462,0.454,0.454,0.454,0.454,0.454,0.454,0.4579,0.4618,0.4618,0.4742,0.4825,0.4798,0.0,0.0,0.0,0.4894,0.494,0.5175,0.5176,0.5223,0.5395,0.5395,0.5395,0.5395,0.5395,0.5395,0.5395,0.5395,0.5395,0.5395,0.4858,0.468,0.4939,0.4939,0.5067,0.5318,0.5318,0.5318,0.5318,0.5318,0.5279,0.5198,0.5046,0.4932,0.4815,0.4657,0.4579,0.454,0.454,0.454,0.454,0.454,0.454,0.4499,0.215,0.215,0.215,0.215,0.215,0.215,0.215,0.215,0.215,0.215,0.215,0.215,0.215,0.215,0.215,0.215,0.215,0.215,0.215,0.2059,0.1836,0.1345,0.157,0.1838,0.2104,0.2105,0.2016,0.1749,0.1705,0.1569,0.1343,0.1343,0.1476,0.1697,0.1744,0.1878,0.2145,0.2596,0.2823,0.2911,0.3762,0.4119,0.4208,0.4607,0.4786,0.4786,0.4786,0.4786,0.4786,0.483,0.501,0.5238,0.5282,0.5455,0.5583,0.562,0.5577,0.5339,0.4796,0.4774,0.4927,0.4965,0.4965,0.4965,0.4965,0.4965,0.4965,0.4965,0.5124,0.5243,0.5243,0.5392,0.5505,0.5454,0.0,0.0,0.5453,0.5489,0.5538,0.5572,0.5447,0.5395,0.5395,0.5395,0.5395,0.5395,0.5395,0.5395,0.5395,0.5395,0.5395,0.5395,0.5359,0.5433,0.5728,0.5728,0.5882,0.6222,0.6222,0.6222,0.6222,0.6222,0.606,0.5822,0.5822,0.5592,0.5243,0.5243,0.5124,0.4965,0.4965,0.4965,0.4965,0.4965,0.4965,0.4965,0.3937,0.3937,0.3937,0.3937,0.3937,0.3937,0.3937,0.3937,0.3937,0.3937,0.3937,0.3937,0.3937,0.3937,0.3937,0.3937,0.3937,0.3937,0.3937,0.3937,0.3446,0.2374,0.3002,0.3403,0.3492,0.3492,0.3448,0.336,0.2778,0.242,0.2331,0.2331,0.2376,0.251,0.3092,0.3403,0.3537,0.3983,0.4297,0.4476,0.4835,0.5055,0.5186,0.5364,0.5453,0.5453,0.5453,0.5453,0.5455,0.5636,0.5772,0.5905,0.6171,0.6305,0.6375,0.6424,0.6391,0.6239,0.5925,0.5692,0.5589,0.5747,0.5789,0.5789,0.5789,0.5789,0.5789,0.5789,0.5867,0.5909,0.5909,0.5986,0.6009,0.5991,0.0,0.5858,0.5805,0.5745,0.5688,0.5599,0.5538,0.5498,0.5402,0.5395,0.5395,0.5395,0.5395,0.5395,0.5395,0.5395,0.5395,0.5395,0.5487,0.5599,0.58,0.58,0.5956,0.63,0.63,0.63,0.63,0.63,0.6261,0.6141,0.6141,0.606,0.5909,0.5909,0.5867,0.5789,0.5789,0.5789,0.5789,0.5789,0.5789,0.5789,0.523,0.523,0.523,0.523,0.523,0.523,0.523,0.523,0.523,0.523,0.523,0.523,0.523,0.523,0.523,0.523,0.523,0.523,0.523,0.5277,0.4832,0.3715,0.4297,0.4656,0.4743,0.4743,0.4699,0.4656,0.3985,0.3626,0.3537,0.3537,0.3582,0.3717,0.4342,0.4701,0.4788,0.5188,0.5458,0.5638,0.5772,0.5902,0.6033,0.6121,0.6118,0.6118,0.6118,0.6118,0.6166,0.6346,0.6393,0.6479,0.6792,0.6881,0.6905,0.6937,0.6888,0.6739,0.6583,0.6314,0.6116,0.6271,0.63,0.63,0.63,0.63,0.63,0.63,0.63,0.63,0.63,0.63,0.63,0.63,0.6173,0.6101,0.6101,0.5969,0.582,0.5674,0.5616,0.5532,0.5409,0.5395,0.5395,0.5395,0.5395,0.5395,0.5395,0.5395,0.5395,0.5395,0.5545,0.5657,0.58,0.5847,0.6003,0.63,0.63,0.63,0.6296,0.6248,0.6186,0.6186,0.6186,0.6186,0.6231,0.6279,0.63,0.63,0.63,0.63,0.63,0.63,0.63,0.6261,0.5719,0.5719,0.5719,0.5719,0.5719,0.5719,0.5719,0.5719,0.5719,0.5719,0.5719,0.5719,0.5719,0.5719,0.5719,0.5719,0.5719,0.5719,0.5719,0.5947,0.5905,0.5416,0.5416,0.5502,0.5719,0.5719,0.5589,0.5416,0.5416,0.528,0.501,0.501,0.5146,0.5416,0.5416,0.5502,0.5719,0.5991,0.6127,0.6127,0.6618,0.6795,0.6836,0.701,0.7095,0.7095,0.7095,0.7095,0.7095,0.7095,0.7095,0.7095,0.7095,0.7095,0.7095,0.7095,0.6997,0.6852,0.6746,0.659,0.6477,0.6334,0.63,0.63,0.63,0.63,0.63,0.63,0.63,0.63,0.63,0.63,0.63,0.63,0.63,0.63,0.63,0.6129,0.5936,0.582,0.5677,0.5566,0.5409,0.5395,0.5395,0.5395,0.5395,0.5395,0.5395,0.5395,0.5395,0.5395,0.5545,0.5657,0.5796,0.5915,0.6105,0.6296,0.6296,0.6296,0.6289,0.6098,0.599,0.599,0.599,0.599,0.6003,0.6235,0.6296,0.63,0.63,0.63,0.63,0.63,0.63,0.63,0.6697,0.6697,0.6697,0.6697,0.6697,0.6697,0.6697,0.6697,0.6697,0.6697,0.6697,0.6697,0.6697,0.6697,0.6697,0.6697,0.6697,0.6697,0.6697,0.6741,0.6745,0.6609,0.6479,0.6393,0.6479,0.6479,0.6438,0.6393,0.6038,0.5861,0.5769,0.5769,0.5816,0.5905,0.6216,0.6438,0.6482,0.67,0.6789,0.6833,0.6966,0.701,0.701,0.7098,0.7095,0.7095,0.7095,0.7095,0.7095,0.7095,0.7095,0.7095,0.7095,0.7095,0.7095,0.7095,0.6997,0.6876,0.6829,0.6671,0.6477,0.6334,0.63,0.63,0.63,0.63,0.63,0.63,0.63,0.63,0.63,0.63,0.63,0.63,0.63,0.63,0.63,0.6259,0.6095,0.5833,0.5766,0.564,0.5419,0.5395,0.5395,0.5395,0.5395,0.5395,0.5395,0.5395,0.5395,0.5395,0.5606,0.5711,0.5654,0.5901,0.6016,0.6098,0.6098,0.6044,0.5939,0.5891,0.5871,0.5871,0.5871,0.5928,0.5996,0.6078,0.6162,0.63,0.63,0.63,0.63,0.63,0.63,0.6282,0.7095,0.7095,0.7095,0.7095,0.7095,0.7095,0.7095,0.7095,0.7095,0.7095,0.7095,0.7095,0.7095,0.7095,0.7095,0.7095,0.7095,0.7095,0.7095,0.7095,0.7095,0.7095,0.6966,0.6925,0.6925,0.6925,0.6925,0.6925,0.6656,0.6479,0.6479,0.6479,0.6479,0.6523,0.6792,0.6925,0.6925,0.7054,0.7095,0.7095,0.7095,0.7095,0.7095,0.7095,0.7095,0.7095,0.7095,0.7095,0.7095,0.7095,0.7095,0.7095,0.7095,0.7095,0.7095,0.7095,0.7038,0.6957,0.6903,0.6793,0.6603,0.6436,0.634,0.63,0.63,0.63,0.63,0.63,0.63,0.63,0.63,0.63,0.63,0.63,0.63,0.63,0.63,0.63,0.6207,0.5922,0.5837,0.5708,0.5508,0.5429,0.5395,0.5395,0.5395,0.5428,0.5491,0.5491,0.5557,0.5723,0.5935,0.5986,0.5935,0.6147,0.6126,0.5902,0.5902,0.5891,0.58,0.5742,0.5718,0.5718,0.5718,0.5769,0.5864,0.5946,0.6084,0.6176,0.6276,0.63,0.63,0.63,0.63,0.6279,0.7095,0.7095,0.7095,0.7095,0.7095,0.7095,0.7095,0.7095,0.7095,0.7095,0.7095,0.7095,0.7095,0.7095,0.7095,0.7095,0.7095,0.7095,0.7095,0.7095,0.7095,0.7095,0.7095,0.7095,0.7095,0.7095,0.7095,0.7095,0.7095,0.7095,0.7095,0.7095,0.7095,0.7095,0.7095,0.7095,0.7095,0.7095,0.7095,0.7095,0.7095,0.7095,0.7095,0.7095,0.7095,0.7095,0.7095,0.7095,0.7095,0.7095,0.7095,0.7095,0.7095,0.7095,0.7095,0.7139,0.7143,0.7112,0.7026,0.7022,0.6943,0.6688,0.6541,0.6394,0.6303,0.63,0.63,0.63,0.63,0.63,0.63,0.63,0.63,0.63,0.63,0.6338,0.6338,0.6377,0.6318,0.6122,0.5978,0.583,0.571,0.5518,0.5425,0.5395,0.5395,0.5462,0.5605,0.5638,0.5837,0.6234,0.6407,0.6448,0.6454,0.6561,0.6358,0.5815,0.5815,0.5776,0.5755,0.563,0.5569,0.5569,0.5569,0.5579,0.561,0.5881,0.5959,0.5986,0.6166,0.6259,0.6262,0.6276,0.6279,0.6255,0.7095,0.7095,0.7095,0.7095,0.7095,0.7095,0.7095,0.7095,0.7095,0.7095,0.7095,0.7095,0.7095,0.7095,0.7095,0.7095,0.7095,0.7095,0.7095,0.7095,0.7095,0.7095,0.7095,0.7095,0.7095,0.7095,0.7095,0.7095,0.7095,0.7095,0.7095,0.7095,0.7095,0.7095,0.7095,0.7095,0.7095,0.7095,0.7095,0.7095,0.7095,0.7095,0.7095,0.7095,0.7095,0.7095,0.7095,0.7095,0.7095,0.7095,0.7095,0.7095,0.7095,0.7095,0.7143,0.7367,0.7415,0.7496,0.7807,0.7829,0.7762,0.7679,0.7588,0.7273,0.6482,0.63,0.63,0.63,0.63,0.63,0.63,0.63,0.63,0.63,0.6412,0.6525,0.6525,0.6799,0.6965,0.6794,0.6741,0.6636,0.6341,0.5847,0.5521,0.5395,0.5395,0.5513,0.5836,0.5972,0.6241,0.6585,0.6859,0.6957,0.6796,0.6818,0.6499,0.5801,0.5801,0.5703,0.5491,0.546,0.5443,0.5443,0.5443,0.5515,0.5596,0.5657,0.5749,0.5854,0.5888,0.5901,0.5915,0.6037,0.6078,0.6057,0.7095,0.7095,0.7095,0.7095,0.7095,0.7095,0.7095,0.7095,0.7095,0.7095,0.7095,0.7095,0.7095,0.7095,0.7095,0.7095,0.7095,0.7095,0.7095,0.7095,0.7095,0.7095,0.7095,0.7095,0.7095,0.7095,0.7095,0.7095,0.7095,0.7095,0.7095,0.7095,0.7095,0.7095,0.7095,0.7095,0.7095,0.7095,0.7095,0.7095,0.7095,0.7095,0.7095,0.7095,0.7187,0.7279,0.7279,0.7452,0.7625,0.7757,0.7801,0.7801,0.7801,0.7801,0.7845,0.7981,0.8113,0.8241,0.8456,0.8562,0.8551,0.8363,0.8269,0.8009,0.708,0.6872,0.6872,0.6872,0.6872,0.6872,0.6872,0.6872,0.6872,0.6872,0.6949,0.7061,0.7173,0.7369,0.7486,0.7538,0.7451,0.7293,0.6909,0.6513,0.6222,0.6157,0.6157,0.6333,0.6693,0.6906,0.7207,0.7593,0.7862,0.7904,0.7674,0.7659,0.7316,0.6613,0.6251,0.6004,0.5888,0.5888,0.5855,0.5785,0.5785,0.5703,0.5616,0.5658,0.57,0.5708,0.5776,0.58,0.5813,0.5891,0.5878,0.582,0.7095,0.7095,0.7095,0.7095,0.7095,0.7095,0.7095,0.7095,0.7095,0.7095,0.7095,0.7095,0.7095,0.7095,0.7095,0.7095,0.7095,0.7095,0.7095,0.7095,0.7095,0.7095,0.7095,0.7095,0.7095,0.7095,0.7095,0.7095,0.7095,0.7095,0.7095,0.7095,0.7095,0.7095,0.7095,0.7139,0.7187,0.7187,0.7231,0.7272,0.7272,0.7316,0.736,0.736,0.7496,0.768,0.7724,0.8025,0.8416,0.8632,0.8719,0.8719,0.8719,0.8719,0.8719,0.8807,0.8938,0.9109,0.9283,0.941,0.9493,0.9252,0.9173,0.8972,0.8259,0.7846,0.7595,0.7595,0.7595,0.7595,0.7595,0.7595,0.7595,0.7595,0.7672,0.7748,0.7936,0.8089,0.8237,0.8389,0.8291,0.7997,0.7543,0.7325,0.7166,0.7091,0.7095,0.7281,0.7735,0.7912,0.82,0.8706,0.8895,0.8859,0.8683,0.8651,0.8361,0.7814,0.7167,0.6712,0.6482,0.6482,0.6412,0.6309,0.6309,0.6112,0.5789,0.5861,0.5854,0.5734,0.5856,0.5902,0.5905,0.593,0.5881,0.5846,0.7095,0.7095,0.7095,0.7095,0.7095,0.7095,0.7095,0.7095,0.7095,0.7095,0.7095,0.7095,0.7095,0.7095,0.7095,0.7095,0.7095,0.7095,0.7095,0.7095,0.7095,0.7095,0.7095,0.7095,0.7095,0.7095,0.7095,0.7095,0.7095,0.7095,0.7095,0.7095,0.7095,0.7095,0.7095,0.7231,0.7459,0.7459,0.7676,0.8069,0.8069,0.8197,0.8416,0.8416,0.8416,0.846,0.8632,0.8846,0.9061,0.9104,0.9104,0.9104,0.9104,0.9104,0.9192,0.9593,0.9724,0.9941,1.0761,1.102,1.1043,1.1249,1.1135,1.0861,1.059,0.9207,0.8008,0.8008,0.8008,0.8008,0.8008,0.8008,0.8008,0.8008,0.8318,0.8551,0.8589,0.916,0.9614,0.9652,0.9479,0.9103,0.8417,0.8148,0.7903,0.7544,0.7509,0.7762,0.8335,0.8348,0.8619,0.9286,0.9253,0.929,0.9358,0.9236,0.9139,0.9043,0.8786,0.8004,0.683,0.683,0.683,0.6793,0.6671,0.6609,0.6544,0.6374,0.632,0.6291,0.6315,0.6322,0.6338,0.6451,0.6584,0.6718,0.7095,0.7095,0.7095,0.7095,0.7095,0.7095,0.7095,0.7095,0.7095,0.7095,0.7095,0.7095,0.7095,0.7095,0.7095,0.7095,0.7095,0.7095,0.7095,0.7231,0.7323,0.7323,0.7455,0.754,0.754,0.7672,0.7713,0.7713,0.7316,0.7095,0.7095,0.7234,0.7323,0.7323,0.7584,0.776,0.7896,0.8157,0.8416,0.8588,0.8719,0.8846,0.8934,0.8934,0.9113,0.9419,1.0024,1.0279,1.0409,1.0664,1.0755,1.0755,1.0755,1.0755,1.0799,1.102,1.1198,1.137,1.18,1.2015,1.2085,1.2087,1.2022,1.1821,1.1411,1.0683,0.9947,0.9511,0.9448,0.9448,0.9448,0.9448,0.9448,0.9448,0.9604,0.976,0.9873,1.0175,1.0443,1.055,1.0379,1.0157,0.9824,0.9585,0.9416,0.9228,0.9228,0.9385,0.9781,0.9704,0.9831,1.0176,1.0123,1.0058,0.9945,0.9881,0.976,0.9568,0.9472,0.8952,0.8069,0.8069,0.7967,0.7804,0.7744,0.7484,0.7129,0.7036,0.6868,0.6671,0.6671,0.6671,0.6692,0.6878,0.6933,0.692]}]]